[[[{"header":{"parameterUnit":"kt","parameterCategory":2,"dx":1,"dy":1,"la1":29.764190673828125,"la2":30.86408042907715,"lo1":-88.46762084960938,"lo2":-86.9344482421875,"nx":47,"ny":34,"refTime":"2022-10-13T00:00:00:Z","depth":"0","parameterNumber":2,"parameterNumberName":"U-component_of_CURRENTS"},"data":[0.0352,0.0336,0.0198,0.0304,0.071,0.1095,0.1356,0.1297,0.086,0.0406,0.0096,-0.0203,-0.0481,-0.0694,-0.0731,-0.0545,-0.0294,-0.0123,-0.0064,-0.0123,-0.0331,-0.0651,-0.0817,-0.0828,-0.0865,-0.087,-0.0673,-0.0166,0.0491,0.047,-0.0182,-0.0363,-0.016,-0.0053,0.0005,0.0021,-0.0011,-0.0069,-0.0128,-0.0117,0.0016,0.0267,0.0619,0.1078,0.1644,0.2184,0.2488,-0.0133,-0.0208,-0.0208,-0.0235,-0.0139,0.008,0.024,0.0208,0.0069,-0.0101,-0.0331,-0.0534,-0.0662,-0.0694,-0.0561,-0.0347,-0.0198,-0.008,-0.0021,-0.0123,-0.0331,-0.0481,-0.0587,-0.0758,-0.102,-0.1207,-0.1287,-0.1212,-0.0694,0.0027,0.0096,-0.031,-0.0379,-0.0262,-0.0203,-0.0117,0.0037,0.0203,0.0352,0.0502,0.0673,0.0908,0.1217,0.1516,0.1714,0.1794,0.1831,-0.0176,-0.031,-0.0502,-0.0603,-0.0555,-0.0432,-0.031,-0.0267,-0.0336,-0.0475,-0.0577,-0.0619,-0.0593,-0.047,-0.0299,-0.0187,-0.0133,-0.0096,-0.0064,-0.0048,-0.0043,-0.0069,-0.0203,-0.0475,-0.0913,-0.1372,-0.1564,-0.1548,-0.1436,-0.1004,-0.0294,0.0005,-0.0192,-0.0246,-0.0176,-0.0096,0.008,0.0326,0.0609,0.0838,0.1004,0.1116,0.1153,0.1137,0.1116,0.1196,0.1356,-0.0198,-0.031,-0.0438,-0.0577,-0.0646,-0.0614,-0.0582,-0.0598,-0.0646,-0.0689,-0.0673,-0.0577,-0.0432,-0.0288,-0.0198,-0.0166,-0.0149,-0.0123,-0.0085,-0.0027,0.0059,0.0144,0.0128,-0.0032,-0.0331,-0.0886,-0.1361,-0.1426,-0.134,-0.1271,-0.103,-0.0443,0.0117,0.016,-0.0032,0.0021,0.0171,0.039,0.0683,0.0897,0.1014,0.103,0.0988,0.0956,0.0998,0.1121,0.1313,-0.0139,-0.0246,-0.0384,-0.0545,-0.0683,-0.078,-0.0822,-0.0806,-0.0747,-0.0646,-0.0529,-0.0432,-0.0379,-0.0342,-0.032,-0.0299,-0.0246,-0.0176,-0.0101,-0.0027,0.0037,0.0112,0.0176,0.0187,0.0133,-0.0048,-0.0331,-0.0507,-0.0609,-0.0774,-0.0908,-0.0838,-0.0443,0.0139,0.047,0.0454,0.0331,0.0363,0.055,0.0769,0.0977,0.1068,0.1073,0.1062,0.1078,0.1132,0.126,-0.0101,-0.023,-0.0347,-0.0459,-0.0561,-0.063,-0.0662,-0.0657,-0.0614,-0.0555,-0.0529,-0.055,-0.0571,-0.0566,-0.0523,-0.0459,-0.0374,-0.0283,-0.0198,-0.0133,-0.0107,-0.0075,-0.0011,0.008,0.0176,0.0235,0.0198,0.0112,0.0043,-0.0027,-0.0208,-0.0481,-0.0566,-0.0368,0.0005,0.0448,0.0753,0.078,0.063,0.0646,0.086,0.1036,0.1095,0.1084,0.1052,0.103,0.1062,-0.0251,-0.031,-0.0368,-0.0432,-0.0497,-0.0566,-0.0635,-0.0699,-0.0742,-0.0769,-0.079,-0.0806,-0.079,-0.0747,-0.0678,-0.0598,-0.0513,-0.0427,-0.0363,-0.0331,-0.0315,-0.0288,-0.0214,-0.0096,0.0037,0.0166,0.023,0.0235,0.0198,0.0139,0.0075,-0.0075,-0.0267,-0.0416,-0.0368,-0.0064,0.0267,0.0609,0.1004,0.1191,0.1111,0.11,0.1191,0.1223,0.118,0.1143,0.1121,-0.0737,-0.0731,-0.0742,-0.0758,-0.079,-0.0844,-0.0897,-0.0934,-0.095,-0.0972,-0.0972,-0.0956,-0.0913,-0.0849,-0.0785,-0.0715,-0.0646,-0.0566,-0.047,-0.0363,-0.0272,-0.0224,-0.0224,-0.0214,-0.0144,-0.0048,0.0048,0.0107,0.0123,0.0133,0.0144,0.0107,-0.0016,-0.0176,-0.0336,-0.0326,-0.0059,0.0149,0.0555,0.1014,0.1276,0.1511,0.1527,0.1484,0.1506,0.1511,0.1484,-0.1095,-0.1068,-0.1052,-0.1052,-0.1041,-0.1036,-0.103,-0.103,-0.1041,-0.1057,-0.1057,-0.1041,-0.0993,-0.0924,-0.0865,-0.0812,-0.0758,-0.0678,-0.055,-0.0395,-0.0283,-0.0262,-0.0288,-0.0283,-0.0219,-0.0117,-0.0016,0.0043,0.0064,0.0069,0.0085,0.0091,0.0027,-0.0085,-0.0224,-0.0363,-0.0374,-0.0112,0.0101,0.0203,0.0726,0.1207,0.1367,0.1447,0.1527,0.1612,0.1612,-0.1175,-0.1111,-0.1078,-0.1078,-0.1073,-0.1052,-0.103,-0.1025,-0.1052,-0.1095,-0.1121,-0.1121,-0.1078,-0.102,-0.0961,-0.0892,-0.0812,-0.0726,-0.0657,-0.0614,-0.0587,-0.0545,-0.047,-0.0363,-0.023,-0.0096,-0.0005,0.0027,0.0037,0.0043,0.0053,0.0064,0.0043,-0.0021,-0.0144,-0.0304,-0.0459,-0.0566,-0.0609,-0.0283,0.0069,0.0155,0.0705,0.1175,0.1244,0.1361,0.1452,-0.1377,-0.1313,-0.1191,-0.1105,-0.1062,-0.1004,-0.0945,-0.094,-0.1004,-0.1078,-0.1121,-0.1105,-0.1073,-0.1084,-0.1073,-0.0982,-0.087,-0.0785,-0.0731,-0.0683,-0.063,-0.0571,-0.0491,-0.0379,-0.024,-0.0112,-0.0027,0.0005,0.0011,0.0037,0.0075,0.0096,0.0075,0.0027,-0.0059,-0.0171,-0.0304,-0.047,-0.0598,-0.0662,-0.0705,-0.04,0.0085,0.0192,0.0662,0.1351,0.1532,-0.2136,-0.2077,-0.1725,-0.1356,-0.1095,-0.0908,-0.086,-0.0945,-0.1073,-0.1169,-0.1276,-0.15,-0.1559,-0.1388,-0.1244,-0.1095,-0.095,-0.0849,-0.079,-0.0747,-0.0694,-0.063,-0.0529,-0.0406,-0.0278,-0.016,-0.0075,-0.0027,0.0,0.0016,0.0037,0.0053,0.0043,0.0027,-0.0005,-0.0053,-0.0139,-0.024,-0.0326,-0.0379,-0.0347,-0.024,-0.0224,-0.0085,0.0432,0.0662,0.0715,-0.2771,-0.2365,-0.1831,-0.1607,-0.1714,-0.1901,-0.1789,-0.1436,-0.1201,-0.11,-0.1281,-0.1853,-0.1762,-0.126,-0.1239,-0.1212,-0.1105,-0.0988,-0.0902,-0.0833,-0.0758,-0.0683,-0.0571,-0.0459,-0.0379,-0.031,-0.0235,-0.0166,-0.0117,-0.0107,-0.0112,-0.0117,-0.0101,-0.0069,-0.0032,-0.0027,-0.0064,-0.0117,-0.0166,-0.0246,-0.0363,-0.0459,-0.0481,-0.0497,-0.0705,-0.1068,-0.1244,0,0,-0.0758,-0.1965,-0.299,-0.3171,-0.1922,-0.0876,-0.055,-0.0192,0.0224,0.0411,0,-0.1009,-0.1826,-0.1575,-0.1399,-0.1207,-0.1062,-0.095,-0.0892,-0.0966,-0.0801,-0.0555,-0.055,-0.0513,-0.0443,-0.0358,-0.0294,-0.0272,-0.0304,-0.0336,-0.0347,-0.0294,-0.0171,-0.0043,0.0011,-0.0032,-0.0123,-0.0251,-0.0427,-0.0641,-0.0902,-0.1212,-0.1543,-0.1815,-0.2034,-0.2403,-0.2445,-0.1815,-0.0918,-0.0497,0,0,-0.0262,-0.0769,-0.0513,0.0737,0.2803,0.2862,0.1607,0,0,0,0,0,0,0,0,-0.0267,-0.0657,-0.0817,-0.0865,-0.0988,-0.1244,-0.1121,-0.0715,-0.0539,-0.0518,-0.0603,-0.0694,-0.0571,-0.0262,-0.0096,-0.0112,-0.0187,-0.0294,-0.0448,-0.0646,-0.0822,-0.095,-0.1041,-0.1127,-0.1233,-0.2136,-0.2226,-0.1986,-0.1692,-0.1377,-0.0662,-0.0182,0.016,0.0491,0,0,0,0.1399,0.0886,-0.1153,-0.0897,-0.0246,0.0016,-0.0032,0.0032,0.0149,0,0,0,0,0,0,0,-0.0523,-0.1084,-0.0892,-0.0614,-0.0539,-0.0363,-0.0139,-0.0123,-0.0251,-0.0395,-0.0454,-0.0464,-0.0486,-0.0545,-0.0662,-0.0812,-0.0982,-0.1159,-0.1313,-0.2189,-0.1676,-0.1143,-0.0993,-0.1249,-0.1853,-0.1997,-0.1164,-0.0411,-0.0422,-0.0075,0.0726,0.1623,0.0577,-0.071,-0.0203,0.0214,0.0545,0.0726,0.078,0.0758,0,0,0,0,0,0,0,0,0,0,0,0,-0.0133,-0.0288,-0.055,-0.1095,-0.1249,-0.0924,-0.0577,-0.0438,-0.0464,-0.0507,-0.0598,-0.0758,-0.0966,-0.1143,0,-0.0486,-0.0571,0.0037,0.0219,0.0187,0,0,0,0,0,0.1207,0.166,0.0139,-0.0518,-0.0053,0.0763,0.1586,0.1564,0.1201,0,0,0,0,0,0,0,0,0,0,0,0,0,0,0,0,0.0278,0.087,0,0,-0.016,-0.0219,-0.0278,-0.0363,-0.0523,-0.0769,-0.0865,0,0,0,-0.0091,-0.0064,0.0053,0,0,0,0,0,0.1458,0.1746,-0.0214,-0.0603,0.0336,0.1676,0.2109,0.1196,0,0,0,0,0,0,0,0,0,0,0,0,0,0,0,0,0,0,-0.0363,-0.0347,0,0,0,0,0,0,0,-0.0363,0,0,0,0,0,0,0,0,0,0,0,0.1345,0.1361,-0.0667,-0.0689,0.063,0.1767,0.2274,0,0,0,0,0,0,0,0,0,0,0,0,0,0,0,0,0,0,0,0,-0.0256,-0.0016,0.0534,0.0582,0,0,0,0,0,0,0,0,0,0,0,0,0,0,0,0,0.1223,0.095,-0.0721,-0.0513,0.0657,0.1447,0,0,0,0,0,0,0,0,0,0,0,0,0,0,0,0,0,0,0,0,0,0,-0.0593,-0.134,-0.1842,-0.1143,-0.0171,-0.0251,0,0,0,0,0,0,0,0,0,0,0,0,0,0,0.0769,0.0032,-0.0507,0.0336,0.1041,0,0,0,0,0,0,0,0,0,0,0,0,0,0,0,0,0,0,0,0,0,0,0,0,0,0,0.0048,0.0096,0,0,0,0,0,0,0,0,0,0,0,0,0,0,0.1447,0.1426,-0.0203,0.04,0.1159,0,0,0,0,0,0,0,0,0,0,0,0,0,0,0,0,0,0,0,0,0,0,0,0,0,0,0,0,0,0,0,0,0,0,0,0,0,0,0,0,0,0,0.1692,0.1623,-0.0288,0.0427,0.1287,0,0,0,0,0,0,0,0,0,0,0,0,0,0,0,0,0,0,0,0,0,0,0,0,0,0,0,0,0,0,0,0,0,0,0,0,0,0,0,0,0,0,0.0486,0.0166,-0.032,0.0763,0.1522,0,0,0,0,0,0,0,0,0,0,0,0,0,0,0,0,0,0,0,0,0,0,0,0,0,0,0,0,0,0,0,0,0,0,0,0,0,0,0,0,0,0,0,-0.0363,0.0128,0.15,0.2029,0,0,0,0,0,0,0,0,0,0,0,0,0,0,0,0,0,0,0,0,0,0,0,0,0,0,0,0,0,0,0,0,0,0,0,0,0,0,0,0,0,0,0,0.0753,0.2504,0.3017,0.2531,0,0,0,0,0,0,0,0,0,0,0,0,0,0,0,0,0,0,0,0,0,0,0,0,0,0,0,0,0,0,0,0,0,0,0,0,0,0,0,0,0,0,0,0,0.1046,0.2098,0,0,0,0,0,0,0,0,0,0,0,0,0,0,0,0,0,0,0,0,0,0,0,0,0,0,0,0,0,0,0,0,0,0,0,0,0,0,0,0,0,0,0,0,0,0,0,0,0,0,0,0,0,0,0,0,0,0,0,0,0,0,0,0,0,0,0,0,0,0,0,0,0,0,0,0,0,0,0,0,0,0,0,0,0,0,0,0,0,0,0,0,0,0,0,0,0,0,0,0,0,0,0,0,0,0,0,0,0,0,0,0,0,0,0,0,0,0,0,0,0,0,0,0,0,0,0,0,0,0,0,0,0,0,0,0,0,0,0,0,0,0,0,0,0,0,0,0,0,0,0,0,0,0,0,0,0,0,0,0,0,0,0,0,0,0,0,0,0,0,0,0,0,0,0,0,0,0,0,0,0,0,0,0,0,0,0,0,0,0,0,0,0,0,0,0,0,0,0,0,0,0,0,0,0,0,0,0,0,0,0,0,0,0,0,0,0,0,0,0,0,0,0,0,0,0,0,0,0,0,0,0,0,0,0,0,0,0,0,0,0,0,0,0,0,0,0,0,0,0,0,0,0,0,0,0,0,0,0,0,0,0,0,0,0,0,0,0,0,0,0,0,0,0,0,0,0,0,0,0,0,0,0,0,0,0,0,0,0,0,0,0,0,0,0,0,0,0,0,0,0,0,0,0,0,0,0,0,0,0,0,0,0]}],[{"header":{"parameterUnit":"kt","parameterCategory":2,"dx":1,"dy":1,"la1":29.764190673828125,"la2":30.86408042907715,"lo1":-88.46762084960938,"lo2":-86.9344482421875,"nx":47,"ny":34,"refTime":"2022-10-13T00:00:00:Z","depth":"0","parameterNumber":3,"parameterNumberName":"V-component_of_CURRENTS"},"data":[-0.0101,-0.0363,-0.0107,0.0561,0.1132,0.1335,0.1276,0.1052,0.1095,0.1244,0.1297,0.1399,0.157,0.1789,0.181,0.1709,0.1564,0.1474,0.1057,0.087,0.1116,0.1207,0.0683,0.0032,-0.0331,0.0176,0.1148,0.1372,0.0459,-0.0107,0.0075,0.0374,0.0384,0.0481,0.0427,0.023,0.0075,0.0053,0.0107,0.0299,0.0491,0.0662,0.0774,0.0838,0.0902,0.0956,0.0993,-0.0112,-0.0235,-0.0133,0.0262,0.0731,0.102,0.118,0.1265,0.1377,0.1393,0.1404,0.1484,0.1644,0.1741,0.157,0.1447,0.1415,0.1356,0.1132,0.0993,0.1191,0.1223,0.071,0.0203,-0.0272,-0.0021,0.0577,0.0945,0.0902,0.0545,0.0235,0.0379,0.0539,0.0614,0.0657,0.063,0.0635,0.0689,0.0662,0.0705,0.0801,0.087,0.0945,0.0972,0.094,0.095,0.1004,-0.0059,-0.0091,-0.0032,0.0219,0.0614,0.0886,0.1127,0.1287,0.1351,0.1372,0.1399,0.1468,0.1532,0.149,0.1319,0.1292,0.1329,0.1276,0.1153,0.1078,0.1132,0.1153,0.0908,0.0593,0.0096,-0.0043,0.0326,0.0395,0.0358,0.0534,0.0614,0.0555,0.0491,0.0662,0.0683,0.0673,0.0747,0.0865,0.0929,0.0929,0.0956,0.0913,0.0897,0.0806,0.0683,0.0582,0.0646,0.0011,0.0043,0.0064,0.0235,0.0502,0.0737,0.0961,0.1137,0.1223,0.1271,0.1276,0.1281,0.1276,0.1233,0.1164,0.1212,0.126,0.1217,0.1116,0.103,0.0998,0.1036,0.1036,0.0961,0.0715,0.0326,0.0272,0.0208,0.0005,-0.0016,0.0347,0.0737,0.0673,0.0545,0.0481,0.0561,0.0593,0.0699,0.0763,0.0769,0.0769,0.0694,0.0635,0.0486,0.0374,0.0267,0.0331,0.0096,0.016,0.0224,0.031,0.0443,0.0609,0.0785,0.0966,0.1095,0.1127,0.1084,0.1062,0.1095,0.1105,0.11,0.1148,0.1164,0.1121,0.1041,0.0945,0.0865,0.0881,0.0977,0.1062,0.1089,0.0854,0.0513,0.0315,0.0203,-0.0016,-0.016,0.024,0.071,0.079,0.0523,0.0256,0.0117,0.0342,0.0427,0.0443,0.0475,0.0464,0.0443,0.0336,0.024,0.016,0.0198,0.023,0.0288,0.0368,0.0448,0.0529,0.0635,0.0753,0.0876,0.0972,0.1009,0.0998,0.1009,0.1052,0.1068,0.1062,0.1062,0.1041,0.0998,0.094,0.0849,0.0763,0.0753,0.0828,0.0956,0.1052,0.1004,0.0731,0.0539,0.0491,0.0347,0.0048,-0.0144,0.0219,0.0721,0.0796,0.0545,0.0166,-0.0048,-0.0155,-0.0011,0.0117,0.0149,0.0128,0.0091,0.0021,-0.0043,-0.0048,0.0342,0.0395,0.047,0.0539,0.0614,0.0705,0.0806,0.0902,0.0966,0.1004,0.103,0.1052,0.1062,0.1057,0.1025,0.0977,0.0934,0.0897,0.086,0.0806,0.0753,0.0731,0.0742,0.0833,0.0924,0.0902,0.0737,0.0598,0.0577,0.0593,0.0464,0.0139,0.0085,0.0262,0.0539,0.0838,0.0742,0.0283,-0.0123,-0.0235,-0.0384,-0.0331,-0.0283,-0.0304,-0.0384,-0.0459,-0.0481,0.0363,0.0422,0.0507,0.0582,0.0673,0.0785,0.0892,0.0977,0.102,0.1057,0.1073,0.1078,0.1073,0.1046,0.0998,0.0934,0.0881,0.0828,0.079,0.0763,0.078,0.0812,0.0774,0.0812,0.0854,0.0838,0.0699,0.0566,0.0582,0.0641,0.063,0.0432,0.0299,0.0294,0.0267,0.0454,0.0753,0.0673,0.0555,0.0203,-0.023,-0.0384,-0.0518,-0.0539,-0.0694,-0.0774,-0.0785,0.031,0.0395,0.0507,0.0603,0.0699,0.0828,0.0956,0.1046,0.1095,0.1105,0.1095,0.1073,0.1057,0.1025,0.0982,0.0924,0.086,0.078,0.0699,0.0651,0.0721,0.079,0.0806,0.0806,0.0806,0.078,0.0619,0.0507,0.0561,0.0641,0.0657,0.0561,0.0464,0.0411,0.0347,0.0272,0.0427,0.0577,0.055,0.0555,0.0614,0.024,-0.023,-0.039,-0.0683,-0.0828,-0.0876,0.024,0.0368,0.0523,0.0635,0.0721,0.0849,0.0998,0.1121,0.1185,0.1185,0.1132,0.1068,0.102,0.0988,0.0945,0.0897,0.0838,0.0737,0.0619,0.055,0.0587,0.0651,0.0726,0.0721,0.0689,0.0641,0.0513,0.0432,0.0497,0.0603,0.0646,0.0614,0.0555,0.0513,0.0448,0.0331,0.0267,0.039,0.0347,0.0582,0.0785,0.0699,0.0667,0.0166,-0.0379,-0.0651,-0.0742,0.0208,0.0347,0.0539,0.0673,0.0721,0.0812,0.1014,0.1217,0.1335,0.1324,0.1223,0.1116,0.1052,0.102,0.0881,0.0801,0.0769,0.0689,0.0571,0.0481,0.0464,0.0518,0.0571,0.0561,0.0502,0.0443,0.0374,0.0342,0.04,0.0513,0.0598,0.0635,0.0646,0.0625,0.055,0.0422,0.0299,0.024,0.0278,0.0379,0.0422,0.0822,0.1057,0.0689,0.0603,0.0219,-0.0176,0.0555,0.039,0.04,0.0603,0.0646,0.0731,0.1084,0.1415,0.1548,0.149,0.1404,0.1351,0.1127,0.118,0.0796,0.0657,0.0662,0.0614,0.0518,0.0416,0.0363,0.0347,0.0352,0.0331,0.0272,0.0214,0.0187,0.0208,0.0288,0.0395,0.0507,0.0609,0.0694,0.0721,0.0646,0.0486,0.0336,0.0246,0.0149,0.0053,0.0123,0.0497,0.0603,0.086,0.1228,0.0812,0.0513,0.0892,0.0448,0.0299,0.0641,0.0822,0.1207,0.1452,0.1687,0.1692,0.1612,0.1815,0.2189,0.1159,0.1356,0.0769,0.0689,0.0689,0.0555,0.0491,0.0475,0.0342,0.023,0.0139,0.0128,0.008,0.0032,0.0011,0.0069,0.0171,0.0278,0.0406,0.0529,0.0646,0.0721,0.0667,0.0513,0.0342,0.0224,0.0155,0.0069,0.0011,0.0043,0.0117,0.0475,0.071,0.0497,0.0475,0,0,0.1543,0.1351,0.1794,0.1725,0.1746,0.2114,0.1714,0.1511,0.1943,0.3219,0,0.2867,0.0801,0.079,0.0769,0.0545,0.0497,0.0561,0.0368,0.0208,0.0272,0.047,0.0352,0.0283,0.0149,0.0112,0.0069,0.0208,0.0352,0.0448,0.0545,0.0598,0.0523,0.0406,0.0315,0.0224,0.0203,0.0182,0.0107,0.0021,-0.0043,0.0016,0.0166,0.0139,0.0021,0.0598,0.047,0.2216,0.1692,0.1821,0,0,0.283,0.2018,0.1372,0.1778,0.3599,0.2162,0.512,0,0,0,0,0,0,0,0,0.0491,0.0892,0.0689,0.0598,0.0352,0.0219,0.031,0.0454,0.0299,0.0395,0.0432,0.0416,0.0096,0.0011,0.0166,0.0198,0.0262,0.0294,0.0251,0.0144,0.0032,-0.0043,-0.0048,-0.0043,-0.0059,0.1159,0.0961,0.15,0.1404,0.0854,0.0166,0.0539,0.2798,0.2776,0,0,0,0.4191,0.6049,0.1255,0.0913,0.0497,0.0406,0.0459,0.0619,0.0208,0,0,0,0,0,0,0,0.1111,0.0982,0.0267,0.0374,0.0374,0.0497,-0.0064,-0.0331,0.0027,0.0176,0.031,0.0358,0.0326,0.0251,0.0112,-0.0011,-0.008,-0.0069,-0.0021,0.1121,0.0796,0.1682,0.149,0.1201,0.1084,0.1084,0.2344,0.3219,0.0,0.0,0.1233,0.4485,0.5574,0.2451,0.1436,0.0774,0.0667,0.0806,0.118,0.0416,0,0,0,0,0,0,0,0,0,0,0,0,0.0678,0.0075,-0.0053,0.0107,0.0187,0.0331,0.0635,0.0481,0.0363,0.0256,0.0096,0.0043,0.0037,-0.0005,0,0.0609,0.2045,0.1447,0.1842,0.1388,0,0,0,0,0,0.1965,0.5035,0.4832,0.2536,0.1105,0.0432,0.0294,0.1057,0.0918,0,0,0,0,0,0,0,0,0,0,0,0,0,0,0,0,0.024,0.0678,0,0,0.0625,0.0438,0.0352,0.0166,0.0144,0.0144,0.0352,0,0,0,0.1271,0.1858,0.0929,0,0,0,0,0,0.094,0.52,0.4869,0.2766,0.1148,0.0021,0.0678,0.1426,0,0,0,0,0,0,0,0,0,0,0,0,0,0,0,0,0,0,0.1175,0.0288,0,0,0,0,0,0,0,0.0689,0,0,0,0,0,0,0,0,0,0,0,-0.0347,0.5371,0.5142,0.2739,0.0982,-0.0379,0.1287,0,0,0,0,0,0,0,0,0,0,0,0,0,0,0,0,0,0,0,0,0.0577,-0.0069,0.0555,0.0699,0,0,0,0,0,0,0,0,0,0,0,0,0,0,0,0,-0.1212,0.5024,0.5216,0.2739,0.0625,-0.0288,0,0,0,0,0,0,0,0,0,0,0,0,0,0,0,0,0,0,0,0,0,0,-0.0133,0.1116,0.1404,0.0,0.0886,0.0107,0,0,0,0,0,0,0,0,0,0,0,0,0,0,0.3209,0.5254,0.3171,0.0459,-0.008,0,0,0,0,0,0,0,0,0,0,0,0,0,0,0,0,0,0,0,0,0,0,0,0,0,0,0.1773,0.0214,0,0,0,0,0,0,0,0,0,0,0,0,0,0,0.1479,0.5558,0.3844,0.0635,0.0011,0,0,0,0,0,0,0,0,0,0,0,0,0,0,0,0,0,0,0,0,0,0,0,0,0,0,0,0,0,0,0,0,0,0,0,0,0,0,0,0,0,0,-0.0149,0.6321,0.4164,0.0587,-0.0016,0,0,0,0,0,0,0,0,0,0,0,0,0,0,0,0,0,0,0,0,0,0,0,0,0,0,0,0,0,0,0,0,0,0,0,0,0,0,0,0,0,0,-0.1383,0.5131,0.3817,0.0283,-0.0053,0,0,0,0,0,0,0,0,0,0,0,0,0,0,0,0,0,0,0,0,0,0,0,0,0,0,0,0,0,0,0,0,0,0,0,0,0,0,0,0,0,0,0,0.3123,0.276,0.0224,0.0224,0,0,0,0,0,0,0,0,0,0,0,0,0,0,0,0,0,0,0,0,0,0,0,0,0,0,0,0,0,0,0,0,0,0,0,0,0,0,0,0,0,0,0,0.2814,0.2819,0.0513,0.0443,0,0,0,0,0,0,0,0,0,0,0,0,0,0,0,0,0,0,0,0,0,0,0,0,0,0,0,0,0,0,0,0,0,0,0,0,0,0,0,0,0,0,0,0,0.362,0.0731,0,0,0,0,0,0,0,0,0,0,0,0,0,0,0,0,0,0,0,0,0,0,0,0,0,0,0,0,0,0,0,0,0,0,0,0,0,0,0,0,0,0,0,0,0,0,0,0,0,0,0,0,0,0,0,0,0,0,0,0,0,0,0,0,0,0,0,0,0,0,0,0,0,0,0,0,0,0,0,0,0,0,0,0,0,0,0,0,0,0,0,0,0,0,0,0,0,0,0,0,0,0,0,0,0,0,0,0,0,0,0,0,0,0,0,0,0,0,0,0,0,0,0,0,0,0,0,0,0,0,0,0,0,0,0,0,0,0,0,0,0,0,0,0,0,0,0,0,0,0,0,0,0,0,0,0,0,0,0,0,0,0,0,0,0,0,0,0,0,0,0,0,0,0,0,0,0,0,0,0,0,0,0,0,0,0,0,0,0,0,0,0,0,0,0,0,0,0,0,0,0,0,0,0,0,0,0,0,0,0,0,0,0,0,0,0,0,0,0,0,0,0,0,0,0,0,0,0,0,0,0,0,0,0,0,0,0,0,0,0,0,0,0,0,0,0,0,0,0,0,0,0,0,0,0,0,0,0,0,0,0,0,0,0,0,0,0,0,0,0,0,0,0,0,0,0,0,0,0,0,0,0,0,0,0,0,0,0,0,0,0,0,0,0,0,0,0,0,0,0,0,0,0,0,0,0,0,0,0,0,0,0,0]}]],[[{"header":{"parameterUnit":"kt","parameterCategory":2,"dx":1,"dy":1,"la1":29.764190673828125,"la2":30.86408042907715,"lo1":-88.46762084960938,"lo2":-86.9344482421875,"nx":47,"ny":34,"refTime":"2022-10-13T00:00:00:Z","depth":"2","parameterNumber":2,"parameterNumberName":"U-component_of_CURRENTS"},"data":[0.0272,0.0251,0.0107,0.023,0.0646,0.1041,0.1303,0.1244,0.0812,0.0363,0.0059,-0.024,-0.0518,-0.0726,-0.0763,-0.0577,-0.0326,-0.016,-0.0107,-0.0171,-0.0374,-0.0689,-0.0849,-0.087,-0.0918,-0.0918,-0.0715,-0.0203,0.0448,0.0422,-0.0224,-0.0411,-0.0214,-0.0117,-0.0064,-0.0048,-0.0085,-0.0149,-0.0214,-0.0208,-0.0075,0.0176,0.0523,0.0982,0.1548,0.2088,0.2392,-0.0198,-0.0278,-0.0283,-0.031,-0.0203,0.0021,0.0187,0.016,0.0027,-0.0144,-0.0368,-0.0571,-0.0699,-0.0726,-0.0598,-0.0384,-0.0235,-0.0123,-0.0069,-0.0171,-0.0374,-0.0518,-0.0619,-0.0806,-0.1073,-0.1265,-0.1335,-0.1255,-0.0742,-0.0021,0.0043,-0.0363,-0.0443,-0.0326,-0.0278,-0.0192,-0.0043,0.0117,0.0262,0.0406,0.0577,0.0812,0.1121,0.142,0.1618,0.1698,0.1741,-0.024,-0.0368,-0.0561,-0.0657,-0.0609,-0.0486,-0.0358,-0.031,-0.0379,-0.0518,-0.0619,-0.0657,-0.0635,-0.0507,-0.0342,-0.023,-0.0176,-0.0139,-0.0112,-0.0096,-0.0091,-0.0107,-0.024,-0.0518,-0.0966,-0.1426,-0.1612,-0.1596,-0.149,-0.1062,-0.0352,-0.0059,-0.0262,-0.032,-0.0251,-0.0176,-0.0005,0.0235,0.0513,0.0742,0.0902,0.1014,0.1057,0.1041,0.1025,0.1105,0.1271,-0.0267,-0.0368,-0.0491,-0.063,-0.0694,-0.0662,-0.0625,-0.0641,-0.0689,-0.0731,-0.0715,-0.0619,-0.0475,-0.0331,-0.024,-0.0208,-0.0192,-0.0166,-0.0133,-0.008,0.0005,0.0096,0.0085,-0.0075,-0.0384,-0.0945,-0.1415,-0.1479,-0.1404,-0.134,-0.1105,-0.0513,0.0043,0.008,-0.0117,-0.0064,0.008,0.0288,0.0582,0.0796,0.0913,0.0934,0.0897,0.087,0.0913,0.1036,0.1233,-0.0203,-0.0304,-0.0443,-0.0598,-0.0737,-0.0828,-0.087,-0.0854,-0.0796,-0.0689,-0.0571,-0.0481,-0.0422,-0.039,-0.0368,-0.0347,-0.0294,-0.0224,-0.0149,-0.008,-0.0016,0.0059,0.0128,0.0144,0.0085,-0.0096,-0.0384,-0.0566,-0.0673,-0.0849,-0.0993,-0.0924,-0.0523,0.0053,0.0379,0.0363,0.024,0.0267,0.0454,0.0667,0.0876,0.0972,0.0982,0.0977,0.0993,0.1046,0.1175,-0.0166,-0.0288,-0.0406,-0.0513,-0.0614,-0.0678,-0.071,-0.0705,-0.0657,-0.0603,-0.0577,-0.0598,-0.0619,-0.0609,-0.0571,-0.0507,-0.0427,-0.0331,-0.0246,-0.0192,-0.016,-0.0133,-0.0064,0.0027,0.0123,0.0182,0.0139,0.0048,-0.0027,-0.0107,-0.0299,-0.0571,-0.0657,-0.0459,-0.0085,0.0352,0.0651,0.0678,0.0534,0.0545,0.0763,0.0934,0.0998,0.0993,0.0966,0.095,0.0988,-0.031,-0.0368,-0.0427,-0.0486,-0.0545,-0.0614,-0.0689,-0.0747,-0.079,-0.0817,-0.0838,-0.0849,-0.0838,-0.0796,-0.0726,-0.0646,-0.0566,-0.0481,-0.0416,-0.039,-0.0374,-0.0347,-0.0278,-0.016,-0.0021,0.0101,0.0166,0.016,0.0123,0.0053,-0.0016,-0.0171,-0.0368,-0.0518,-0.0464,-0.016,0.0171,0.0513,0.0908,0.1095,0.1014,0.1004,0.1095,0.1132,0.1095,0.1057,0.1046,-0.0796,-0.079,-0.0801,-0.0812,-0.0838,-0.0892,-0.0945,-0.0977,-0.0998,-0.1014,-0.102,-0.1004,-0.0961,-0.0902,-0.0833,-0.0769,-0.0705,-0.0625,-0.0534,-0.0427,-0.0342,-0.0294,-0.0294,-0.0278,-0.0214,-0.0117,-0.0027,0.0027,0.0048,0.0048,0.0053,0.0005,-0.0117,-0.0283,-0.0438,-0.0422,-0.0155,0.0053,0.0454,0.0918,0.118,0.1415,0.1431,0.1393,0.1415,0.1426,0.1404,-0.1159,-0.1127,-0.1111,-0.11,-0.1089,-0.1078,-0.1078,-0.1073,-0.1084,-0.11,-0.1105,-0.1089,-0.1041,-0.0977,-0.0918,-0.087,-0.0817,-0.0742,-0.0619,-0.047,-0.0363,-0.0336,-0.0358,-0.0352,-0.0288,-0.0192,-0.0096,-0.0037,-0.0021,-0.0016,0.0,-0.0011,-0.008,-0.0192,-0.0331,-0.0464,-0.0475,-0.0208,0.0005,0.0112,0.063,0.1116,0.1276,0.1361,0.1442,0.1532,0.1532,-0.1239,-0.1169,-0.1137,-0.1132,-0.1121,-0.11,-0.1078,-0.1073,-0.11,-0.1137,-0.1169,-0.1169,-0.1132,-0.1073,-0.1014,-0.095,-0.0876,-0.0801,-0.0731,-0.0689,-0.0662,-0.0619,-0.0545,-0.0432,-0.0304,-0.0176,-0.0085,-0.0053,-0.0048,-0.0043,-0.0032,-0.0032,-0.0059,-0.0128,-0.0251,-0.0406,-0.0555,-0.0662,-0.0705,-0.0379,-0.0021,0.0069,0.0614,0.1089,0.1159,0.1287,0.1377,-0.1436,-0.1372,-0.1255,-0.1164,-0.1111,-0.1052,-0.0993,-0.0988,-0.1046,-0.1127,-0.1169,-0.1159,-0.1127,-0.1137,-0.1132,-0.1046,-0.094,-0.086,-0.0806,-0.0753,-0.0699,-0.0641,-0.0561,-0.0448,-0.0315,-0.0192,-0.0107,-0.0075,-0.0069,-0.0048,-0.0011,0.0,-0.0021,-0.0075,-0.016,-0.0278,-0.0406,-0.0566,-0.0689,-0.0753,-0.0796,-0.0491,0.0,0.0107,0.0582,0.1271,0.1458,-0.221,-0.2146,-0.1794,-0.1415,-0.1148,-0.0956,-0.0908,-0.0988,-0.1116,-0.1217,-0.1324,-0.1548,-0.1607,-0.1442,-0.1303,-0.1153,-0.1014,-0.0918,-0.086,-0.0812,-0.0758,-0.0694,-0.0598,-0.0475,-0.0347,-0.0235,-0.0155,-0.0112,-0.0091,-0.0069,-0.0048,-0.0037,-0.0048,-0.0069,-0.0107,-0.016,-0.024,-0.0331,-0.0411,-0.0459,-0.0432,-0.0326,-0.0304,-0.016,0.0352,0.0587,0.0641,-0.2782,-0.2429,-0.1901,-0.1666,-0.1757,-0.1943,-0.1842,-0.149,-0.1244,-0.1137,-0.1313,-0.189,-0.181,-0.1319,-0.1297,-0.1271,-0.1175,-0.1062,-0.0977,-0.0913,-0.0833,-0.0742,-0.0635,-0.0523,-0.0443,-0.0379,-0.031,-0.0246,-0.0203,-0.0192,-0.0203,-0.0208,-0.0192,-0.016,-0.0123,-0.0123,-0.016,-0.0203,-0.0251,-0.0331,-0.0443,-0.0534,-0.0555,-0.0566,-0.0769,-0.1132,-0.1303,0,0,-0.0796,-0.2029,-0.299,-0.3225,-0.1997,-0.094,-0.0603,-0.024,0.016,0.0336,0,-0.103,-0.1869,-0.158,-0.1399,-0.1244,-0.1121,-0.1014,-0.0956,-0.1014,-0.086,-0.0635,-0.0609,-0.0571,-0.0518,-0.0448,-0.0379,-0.0358,-0.039,-0.0427,-0.0438,-0.0384,-0.0262,-0.0133,-0.008,-0.0112,-0.0198,-0.0326,-0.0502,-0.071,-0.0966,-0.1265,-0.158,-0.1847,-0.2072,-0.2242,-0.2392,-0.1853,-0.1014,-0.0641,0,0,-0.0304,-0.0822,-0.055,0.0662,0.2536,0.2483,0.1271,0,0,0,0,0,0,0,0,-0.0251,-0.0641,-0.0801,-0.0806,-0.0977,-0.1287,-0.1201,-0.0801,-0.0614,-0.0593,-0.0683,-0.0774,-0.0651,-0.0342,-0.0176,-0.0182,-0.0251,-0.0358,-0.0507,-0.0699,-0.0876,-0.0998,-0.1073,-0.1153,-0.1255,-0.2152,-0.2237,-0.2002,-0.1746,-0.1479,-0.0796,-0.031,0.0011,0.0304,0,0,0,0.1084,0.087,-0.0817,-0.0897,-0.031,-0.0021,-0.0059,0.0,0.0112,0,0,0,0,0,0,0,-0.0545,-0.1127,-0.095,-0.0673,-0.0603,-0.0448,-0.024,-0.0214,-0.0331,-0.0454,-0.0507,-0.0518,-0.0539,-0.0593,-0.0705,-0.0854,-0.1014,-0.118,-0.1329,-0.2061,-0.1692,-0.1201,-0.1041,-0.1308,-0.1922,-0.2125,-0.1196,0.0,0.0283,0.047,0.0812,0.1361,0.0502,-0.0689,-0.0288,0.0139,0.0464,0.0635,0.0662,0.0619,0,0,0,0,0,0,0,0,0,0,0,0,-0.0123,-0.0326,-0.0646,-0.1164,-0.1287,-0.0945,-0.0614,-0.0481,-0.0502,-0.0545,-0.063,-0.0785,-0.0982,-0.1153,0,-0.0486,-0.0651,-0.0112,0.008,0.0053,0,0,0,0,0,0.1004,0.1388,0.0085,-0.0507,-0.0096,0.0694,0.1495,0.1452,0.1084,0,0,0,0,0,0,0,0,0,0,0,0,0,0,0,0,0.0219,0.0785,0,0,-0.0176,-0.0235,-0.0288,-0.0368,-0.0518,-0.0737,-0.0833,0,0,0,-0.008,0.0005,0.0171,0,0,0,0,0,0.1255,0.1506,-0.0224,-0.0587,0.0278,0.1516,0.189,0.1084,0,0,0,0,0,0,0,0,0,0,0,0,0,0,0,0,0,0,-0.0182,0.0048,0,0,0,0,0,0,0,-0.031,0,0,0,0,0,0,0,0,0,0,0,0.1132,0.1132,-0.0646,-0.0678,0.0497,0.1538,0.2024,0,0,0,0,0,0,0,0,0,0,0,0,0,0,0,0,0,0,0,0,-0.0166,0.0123,0.0566,0.055,0,0,0,0,0,0,0,0,0,0,0,0,0,0,0,0,0.1052,0.079,-0.0667,-0.0507,0.0454,0.1111,0,0,0,0,0,0,0,0,0,0,0,0,0,0,0,0,0,0,0,0,0,0,-0.0507,-0.1127,-0.1057,-0.0085,0.0235,-0.0235,0,0,0,0,0,0,0,0,0,0,0,0,0,0,0.0459,0.0075,-0.047,0.0155,0.0715,0,0,0,0,0,0,0,0,0,0,0,0,0,0,0,0,0,0,0,0,0,0,0,0,0,0,0.0064,0.0128,0,0,0,0,0,0,0,0,0,0,0,0,0,0,0.1217,0.1233,-0.0166,0.023,0.0812,0,0,0,0,0,0,0,0,0,0,0,0,0,0,0,0,0,0,0,0,0,0,0,0,0,0,0,0,0,0,0,0,0,0,0,0,0,0,0,0,0,0,0.1383,0.1324,-0.0256,0.0251,0.0902,0,0,0,0,0,0,0,0,0,0,0,0,0,0,0,0,0,0,0,0,0,0,0,0,0,0,0,0,0,0,0,0,0,0,0,0,0,0,0,0,0,0,0.0267,-0.0021,-0.0262,0.0641,0.1223,0,0,0,0,0,0,0,0,0,0,0,0,0,0,0,0,0,0,0,0,0,0,0,0,0,0,0,0,0,0,0,0,0,0,0,0,0,0,0,0,0,0,0,-0.0358,0.0208,0.1415,0.1698,0,0,0,0,0,0,0,0,0,0,0,0,0,0,0,0,0,0,0,0,0,0,0,0,0,0,0,0,0,0,0,0,0,0,0,0,0,0,0,0,0,0,0,0.0881,0.2264,0.2349,0.1938,0,0,0,0,0,0,0,0,0,0,0,0,0,0,0,0,0,0,0,0,0,0,0,0,0,0,0,0,0,0,0,0,0,0,0,0,0,0,0,0,0,0,0,0,0.086,0.1719,0,0,0,0,0,0,0,0,0,0,0,0,0,0,0,0,0,0,0,0,0,0,0,0,0,0,0,0,0,0,0,0,0,0,0,0,0,0,0,0,0,0,0,0,0,0,0,0,0,0,0,0,0,0,0,0,0,0,0,0,0,0,0,0,0,0,0,0,0,0,0,0,0,0,0,0,0,0,0,0,0,0,0,0,0,0,0,0,0,0,0,0,0,0,0,0,0,0,0,0,0,0,0,0,0,0,0,0,0,0,0,0,0,0,0,0,0,0,0,0,0,0,0,0,0,0,0,0,0,0,0,0,0,0,0,0,0,0,0,0,0,0,0,0,0,0,0,0,0,0,0,0,0,0,0,0,0,0,0,0,0,0,0,0,0,0,0,0,0,0,0,0,0,0,0,0,0,0,0,0,0,0,0,0,0,0,0,0,0,0,0,0,0,0,0,0,0,0,0,0,0,0,0,0,0,0,0,0,0,0,0,0,0,0,0,0,0,0,0,0,0,0,0,0,0,0,0,0,0,0,0,0,0,0,0,0,0,0,0,0,0,0,0,0,0,0,0,0,0,0,0,0,0,0,0,0,0,0,0,0,0,0,0,0,0,0,0,0,0,0,0,0,0,0,0,0,0,0,0,0,0,0,0,0,0,0,0,0,0,0,0,0,0,0,0,0,0,0,0,0,0,0,0,0,0,0,0,0,0,0,0,0,0]}],[{"header":{"parameterUnit":"kt","parameterCategory":2,"dx":1,"dy":1,"la1":29.764190673828125,"la2":30.86408042907715,"lo1":-88.46762084960938,"lo2":-86.9344482421875,"nx":47,"ny":34,"refTime":"2022-10-13T00:00:00:Z","depth":"2","parameterNumber":3,"parameterNumberName":"V-component_of_CURRENTS"},"data":[-0.0198,-0.0481,-0.0224,0.0459,0.1046,0.1249,0.1185,0.0966,0.1014,0.1164,0.1212,0.1313,0.1484,0.1698,0.1714,0.1612,0.1463,0.1367,0.0945,0.0747,0.0988,0.1084,0.0561,-0.0096,-0.0464,0.0027,0.0972,0.1185,0.0267,-0.0304,-0.0139,0.0155,0.0155,0.024,0.0187,-0.0011,-0.0166,-0.0187,-0.0133,0.0059,0.0256,0.0427,0.0534,0.0603,0.0667,0.0721,0.0763,-0.0198,-0.0326,-0.024,0.016,0.0646,0.0934,0.1095,0.1185,0.1297,0.1313,0.1324,0.1399,0.1559,0.165,0.1474,0.1345,0.1308,0.1249,0.1014,0.0876,0.1073,0.11,0.0582,0.008,-0.0406,-0.016,0.0422,0.0774,0.0715,0.0347,0.0027,0.016,0.031,0.0374,0.0411,0.0384,0.0384,0.0432,0.0406,0.0454,0.055,0.0619,0.0694,0.0726,0.0694,0.071,0.0769,-0.0139,-0.0166,-0.0112,0.0133,0.0529,0.0806,0.1046,0.1207,0.1271,0.1287,0.1313,0.1377,0.1442,0.1393,0.1217,0.1185,0.1217,0.1164,0.1036,0.0961,0.1009,0.103,0.0774,0.0459,-0.0032,-0.0171,0.0187,0.024,0.0182,0.0342,0.04,0.0331,0.0262,0.0422,0.0438,0.0422,0.0491,0.0598,0.0657,0.0657,0.0689,0.0651,0.0641,0.0555,0.0438,0.0342,0.0411,-0.0069,-0.0037,-0.0011,0.016,0.0427,0.0662,0.0881,0.1057,0.1143,0.1191,0.1191,0.1191,0.118,0.1137,0.1062,0.1105,0.1148,0.1105,0.1004,0.0913,0.0876,0.0908,0.0902,0.0822,0.0577,0.0192,0.0133,0.0059,-0.0155,-0.0192,0.0144,0.0507,0.0432,0.0299,0.023,0.0299,0.0326,0.0422,0.0486,0.0491,0.0497,0.0427,0.0379,0.0235,0.0128,0.0027,0.0091,0.0016,0.008,0.0144,0.0235,0.0368,0.0534,0.0705,0.0886,0.1009,0.1041,0.0993,0.0966,0.0998,0.1009,0.0998,0.1041,0.1057,0.1009,0.0924,0.0822,0.0742,0.0753,0.0844,0.0918,0.094,0.0705,0.0363,0.0155,0.0037,-0.0192,-0.0352,0.0021,0.0464,0.0534,0.0262,-0.0011,-0.0155,0.0069,0.0144,0.0166,0.0203,0.0198,0.0176,0.008,-0.0016,-0.0091,-0.0048,0.0144,0.0208,0.0288,0.0368,0.0448,0.0555,0.0667,0.079,0.0886,0.0924,0.0913,0.0918,0.0956,0.0966,0.0966,0.0956,0.0934,0.0892,0.0822,0.0731,0.0641,0.0625,0.0694,0.0812,0.0897,0.0844,0.0566,0.0363,0.0304,0.016,-0.0149,-0.0358,-0.0016,0.0464,0.0523,0.0267,-0.0112,-0.0331,-0.0438,-0.0294,-0.0166,-0.0128,-0.0144,-0.0176,-0.024,-0.0304,-0.0304,0.0256,0.031,0.0384,0.0454,0.0534,0.0625,0.0726,0.0817,0.0881,0.0918,0.094,0.0961,0.0972,0.0961,0.0924,0.087,0.0828,0.0785,0.0742,0.0683,0.0625,0.0598,0.0603,0.0689,0.0769,0.0737,0.0561,0.0411,0.0379,0.0384,0.0251,-0.0085,-0.0144,0.0011,0.0267,0.0555,0.0454,-0.0005,-0.0411,-0.0523,-0.0673,-0.0619,-0.0566,-0.0582,-0.0657,-0.0721,-0.0737,0.0278,0.0336,0.0422,0.0497,0.0587,0.0699,0.0806,0.0892,0.094,0.0966,0.0982,0.0988,0.0977,0.095,0.0897,0.0828,0.0774,0.0715,0.0667,0.063,0.063,0.0657,0.0614,0.0651,0.0689,0.0662,0.0513,0.0374,0.0374,0.0427,0.0406,0.0198,0.0053,0.0043,0.0,0.0176,0.0464,0.0379,0.0256,-0.0096,-0.0523,-0.0683,-0.0812,-0.0828,-0.0972,-0.1041,-0.1052,0.0235,0.0315,0.0427,0.0518,0.0619,0.0742,0.087,0.0961,0.1004,0.1014,0.0998,0.0977,0.0956,0.0924,0.0876,0.0817,0.0747,0.0651,0.0566,0.0507,0.0555,0.0625,0.0635,0.0635,0.063,0.0593,0.0427,0.0304,0.0342,0.0416,0.0427,0.0326,0.0219,0.0155,0.008,0.0,0.0139,0.0278,0.0251,0.0251,0.0315,-0.0059,-0.0523,-0.0683,-0.0966,-0.11,-0.1143,0.0171,0.0294,0.0448,0.055,0.0635,0.0758,0.0908,0.103,0.1095,0.1089,0.1036,0.0966,0.0918,0.0881,0.0833,0.078,0.0715,0.0603,0.0481,0.04,0.0427,0.0491,0.0566,0.055,0.0513,0.0459,0.032,0.0224,0.0278,0.0374,0.0411,0.0374,0.031,0.0256,0.0187,0.0064,-0.0011,0.0101,0.0053,0.0283,0.0481,0.04,0.0368,-0.0128,-0.0673,-0.0929,-0.1009,0.0139,0.0278,0.0464,0.0593,0.0635,0.0726,0.0918,0.1121,0.1233,0.1223,0.1116,0.1009,0.094,0.0908,0.0763,0.0673,0.0641,0.055,0.0427,0.0336,0.0315,0.0363,0.0411,0.0395,0.0336,0.0267,0.0187,0.0144,0.0192,0.0288,0.0363,0.039,0.0395,0.0368,0.0294,0.016,0.0027,-0.0037,-0.0005,0.0085,0.0123,0.0518,0.0753,0.0379,0.0299,-0.0069,-0.0454,0.0395,0.031,0.0326,0.0529,0.0561,0.0646,0.0993,0.1308,0.1442,0.1383,0.1292,0.1239,0.1014,0.1062,0.0667,0.0518,0.0523,0.047,0.0374,0.0272,0.0214,0.0208,0.0203,0.0187,0.0123,0.0059,0.0021,0.0032,0.0096,0.0182,0.0278,0.0368,0.0448,0.047,0.0395,0.023,0.008,-0.0016,-0.0112,-0.0214,-0.0155,0.0203,0.0304,0.0555,0.0918,0.0507,0.0219,0.0598,0.0342,0.023,0.0577,0.0731,0.1057,0.1271,0.1559,0.1602,0.1511,0.1703,0.205,0.1046,0.1228,0.0635,0.0443,0.0395,0.0326,0.0294,0.0235,0.0133,0.0091,0.0,-0.0011,-0.0059,-0.0101,-0.0133,-0.0091,0.0,0.0091,0.0203,0.031,0.0422,0.0486,0.0427,0.0267,0.0091,-0.0021,-0.0096,-0.0182,-0.0246,-0.0219,-0.0149,0.0192,0.0422,0.0208,0.0192,0,0,0.1447,0.1239,0.1559,0.1495,0.1442,0.1943,0.1628,0.142,0.1842,0.2803,0,0.2589,0.0657,0.0432,0.0315,0.0224,0.024,0.0219,0.0091,0.0059,-0.0064,0.0117,0.0107,0.0059,-0.0075,-0.0107,-0.0075,0.0043,0.0176,0.0262,0.0347,0.039,0.0304,0.0182,0.0085,-0.0011,-0.0032,-0.0048,-0.0123,-0.0208,-0.0272,-0.0219,-0.0075,-0.0101,-0.0203,0.0288,0.0288,0.2109,0.1522,0.1516,0,0,0.2611,0.1826,0.1276,0.1692,0.2953,0.1698,0.4666,0,0,0,0,0,0,0,0,-0.0133,0.0288,0.0288,0.0101,-0.0123,-0.0123,0.0069,0.0224,0.0149,0.0246,0.0267,0.0246,-0.0091,-0.0182,-0.0043,-0.0016,0.0053,0.0085,0.0048,-0.0053,-0.016,-0.0235,-0.024,-0.0235,-0.024,0.0502,0.0582,0.1372,0.1212,0.0555,-0.0048,0.0427,0.2605,0.2205,0,0,0,0.3273,0.5403,0.0769,0.0603,0.0379,0.023,0.0198,0.0208,0.0037,0,0,0,0,0,0,0,0.0555,0.0555,0.0117,0.024,0.0219,0.023,-0.0283,-0.0491,-0.0155,-0.0011,0.0112,0.0171,0.0144,0.0075,-0.0059,-0.0176,-0.024,-0.023,-0.0176,0.0427,0.0235,0.1175,0.1164,0.0822,0.0561,0.0854,0.2184,0.2376,0.0,0.0,0.0609,0.3636,0.4997,0.1842,0.103,0.0577,0.0416,0.0427,0.0491,0.008,0,0,0,0,0,0,0,0,0,0,0,0,0.0144,-0.0283,-0.023,-0.0069,-0.0011,0.0128,0.0352,0.0278,0.0192,0.0085,-0.0053,-0.0096,-0.0101,-0.0133,0,-0.0107,0.1185,0.0913,0.1143,0.0699,0,0,0,0,0,0.1062,0.4426,0.4522,0.2322,0.0918,0.0246,0.0101,0.0737,0.0416,0,0,0,0,0,0,0,0,0,0,0,0,0,0,0,0,0.0043,0.0144,0,0,0.023,0.0256,0.016,0.0016,0.0005,0.0,0.0107,0,0,0,0.0657,0.095,0.0198,0,0,0,0,0,0.0283,0.4762,0.4613,0.2573,0.0886,-0.039,0.0192,0.102,0,0,0,0,0,0,0,0,0,0,0,0,0,0,0,0,0,0,0.0363,0.0085,0,0,0,0,0,0,0,0.0304,0,0,0,0,0,0,0,0,0,0,0,-0.1004,0.4933,0.488,0.2493,0.0481,-0.1143,0.0545,0,0,0,0,0,0,0,0,0,0,0,0,0,0,0,0,0,0,0,0,0.0166,-0.0235,0.04,0.0491,0,0,0,0,0,0,0,0,0,0,0,0,0,0,0,0,-0.1847,0.4592,0.4939,0.244,-0.0107,-0.1287,0,0,0,0,0,0,0,0,0,0,0,0,0,0,0,0,0,0,0,0,0,0,-0.047,0.0806,0.0977,0.0,0.0507,0.0021,0,0,0,0,0,0,0,0,0,0,0,0,0,0,0.2643,0.4853,0.2808,-0.0379,-0.1137,0,0,0,0,0,0,0,0,0,0,0,0,0,0,0,0,0,0,0,0,0,0,0,0,0,0,0.1009,0.0043,0,0,0,0,0,0,0,0,0,0,0,0,0,0,0.0416,0.4896,0.3396,-0.0288,-0.1111,0,0,0,0,0,0,0,0,0,0,0,0,0,0,0,0,0,0,0,0,0,0,0,0,0,0,0,0,0,0,0,0,0,0,0,0,0,0,0,0,0,0,-0.1292,0.5462,0.3721,-0.0331,-0.1175,0,0,0,0,0,0,0,0,0,0,0,0,0,0,0,0,0,0,0,0,0,0,0,0,0,0,0,0,0,0,0,0,0,0,0,0,0,0,0,0,0,0,-0.2221,0.4447,0.3417,-0.0571,-0.1223,0,0,0,0,0,0,0,0,0,0,0,0,0,0,0,0,0,0,0,0,0,0,0,0,0,0,0,0,0,0,0,0,0,0,0,0,0,0,0,0,0,0,0,0.2627,0.1911,-0.0998,-0.0956,0,0,0,0,0,0,0,0,0,0,0,0,0,0,0,0,0,0,0,0,0,0,0,0,0,0,0,0,0,0,0,0,0,0,0,0,0,0,0,0,0,0,0,0.229,0.1281,-0.0854,-0.071,0,0,0,0,0,0,0,0,0,0,0,0,0,0,0,0,0,0,0,0,0,0,0,0,0,0,0,0,0,0,0,0,0,0,0,0,0,0,0,0,0,0,0,0,0.1842,-0.0384,0,0,0,0,0,0,0,0,0,0,0,0,0,0,0,0,0,0,0,0,0,0,0,0,0,0,0,0,0,0,0,0,0,0,0,0,0,0,0,0,0,0,0,0,0,0,0,0,0,0,0,0,0,0,0,0,0,0,0,0,0,0,0,0,0,0,0,0,0,0,0,0,0,0,0,0,0,0,0,0,0,0,0,0,0,0,0,0,0,0,0,0,0,0,0,0,0,0,0,0,0,0,0,0,0,0,0,0,0,0,0,0,0,0,0,0,0,0,0,0,0,0,0,0,0,0,0,0,0,0,0,0,0,0,0,0,0,0,0,0,0,0,0,0,0,0,0,0,0,0,0,0,0,0,0,0,0,0,0,0,0,0,0,0,0,0,0,0,0,0,0,0,0,0,0,0,0,0,0,0,0,0,0,0,0,0,0,0,0,0,0,0,0,0,0,0,0,0,0,0,0,0,0,0,0,0,0,0,0,0,0,0,0,0,0,0,0,0,0,0,0,0,0,0,0,0,0,0,0,0,0,0,0,0,0,0,0,0,0,0,0,0,0,0,0,0,0,0,0,0,0,0,0,0,0,0,0,0,0,0,0,0,0,0,0,0,0,0,0,0,0,0,0,0,0,0,0,0,0,0,0,0,0,0,0,0,0,0,0,0,0,0,0,0,0,0,0,0,0,0,0,0,0,0,0,0,0,0,0,0,0,0,0]}]],[[{"header":{"parameterUnit":"kt","parameterCategory":2,"dx":1,"dy":1,"la1":29.764190673828125,"la2":30.86408042907715,"lo1":-88.46762084960938,"lo2":-86.9344482421875,"nx":47,"ny":34,"refTime":"2022-10-13T00:00:00:Z","depth":"4","parameterNumber":2,"parameterNumberName":"U-component_of_CURRENTS"},"data":[0.0235,0.0198,0.0048,0.0182,0.0619,0.102,0.1276,0.1217,0.0796,0.0358,0.0048,-0.0251,-0.0529,-0.0731,-0.0769,-0.0577,-0.0331,-0.0171,-0.0123,-0.0187,-0.0395,-0.0699,-0.0854,-0.0886,-0.0945,-0.0945,-0.0726,-0.0214,0.0432,0.0406,-0.024,-0.0427,-0.0235,-0.0139,-0.0085,-0.0069,-0.0107,-0.0171,-0.024,-0.0235,-0.0107,0.0144,0.0486,0.0945,0.1506,0.2045,0.2355,-0.0219,-0.0304,-0.0326,-0.0352,-0.0235,-0.0005,0.0166,0.0144,0.0016,-0.0149,-0.0374,-0.0577,-0.0705,-0.0731,-0.0598,-0.039,-0.024,-0.0133,-0.0085,-0.0192,-0.039,-0.0523,-0.063,-0.0822,-0.1105,-0.1292,-0.1351,-0.1265,-0.0753,-0.0037,0.0027,-0.0379,-0.0464,-0.0347,-0.0299,-0.0214,-0.0069,0.0091,0.0235,0.0368,0.0539,0.0774,0.1078,0.1377,0.1575,0.1666,0.1709,-0.0262,-0.039,-0.0577,-0.0678,-0.0625,-0.0502,-0.0368,-0.032,-0.039,-0.0523,-0.0625,-0.0662,-0.0641,-0.0518,-0.0347,-0.024,-0.0187,-0.0149,-0.0128,-0.0117,-0.0107,-0.0117,-0.0246,-0.0534,-0.0993,-0.1452,-0.1628,-0.1607,-0.1506,-0.1078,-0.0368,-0.008,-0.0278,-0.0342,-0.0272,-0.0203,-0.0032,0.0208,0.0481,0.0705,0.0865,0.0977,0.102,0.1004,0.0993,0.1078,0.1249,-0.0288,-0.0384,-0.0507,-0.0646,-0.071,-0.0673,-0.0641,-0.0651,-0.0699,-0.0742,-0.0726,-0.063,-0.0481,-0.0342,-0.0251,-0.0219,-0.0203,-0.0176,-0.0144,-0.0096,-0.0011,0.008,0.008,-0.008,-0.04,-0.0966,-0.1431,-0.149,-0.142,-0.1367,-0.1132,-0.0534,0.0027,0.0059,-0.0139,-0.0091,0.0053,0.0262,0.055,0.0758,0.0876,0.0897,0.0865,0.0838,0.0886,0.1014,0.1212,-0.0224,-0.0326,-0.0459,-0.0614,-0.0747,-0.0844,-0.0881,-0.0865,-0.0801,-0.0699,-0.0582,-0.0491,-0.0432,-0.0395,-0.0374,-0.0352,-0.0299,-0.0235,-0.016,-0.0096,-0.0032,0.0043,0.0117,0.0133,0.0075,-0.0112,-0.04,-0.0582,-0.0699,-0.0881,-0.103,-0.0956,-0.055,0.0027,0.0352,0.0336,0.0208,0.024,0.0422,0.0635,0.0844,0.094,0.0956,0.095,0.0972,0.1025,0.1153,-0.0187,-0.031,-0.0422,-0.0529,-0.0625,-0.0694,-0.0721,-0.0715,-0.0667,-0.0614,-0.0587,-0.0603,-0.0625,-0.0619,-0.0582,-0.0518,-0.0432,-0.0342,-0.0262,-0.0203,-0.0176,-0.0149,-0.008,0.0016,0.0117,0.0171,0.0128,0.0032,-0.0048,-0.0133,-0.0331,-0.0614,-0.0694,-0.0486,-0.0107,0.0326,0.0625,0.0651,0.0502,0.0518,0.0731,0.0908,0.0972,0.0972,0.094,0.0924,0.0961,-0.0331,-0.039,-0.0443,-0.0502,-0.0561,-0.063,-0.0699,-0.0758,-0.0801,-0.0828,-0.0844,-0.086,-0.0844,-0.0801,-0.0737,-0.0657,-0.0577,-0.0491,-0.0427,-0.04,-0.039,-0.0363,-0.0288,-0.0171,-0.0037,0.0091,0.0149,0.0144,0.0096,0.0027,-0.0053,-0.0208,-0.0411,-0.0555,-0.0497,-0.0187,0.0144,0.0481,0.0876,0.1062,0.0988,0.0977,0.1068,0.11,0.1068,0.1036,0.102,-0.0812,-0.0812,-0.0812,-0.0828,-0.0854,-0.0902,-0.0956,-0.0982,-0.1004,-0.102,-0.1025,-0.1009,-0.0966,-0.0908,-0.0844,-0.078,-0.0715,-0.0641,-0.055,-0.0448,-0.0363,-0.0315,-0.031,-0.0294,-0.023,-0.0139,-0.0048,0.0005,0.0021,0.0021,0.0016,-0.0032,-0.016,-0.0326,-0.0475,-0.0454,-0.0187,0.0027,0.0427,0.0892,0.1148,0.1388,0.1404,0.1361,0.1383,0.1399,0.1383,-0.1175,-0.1143,-0.1121,-0.1111,-0.11,-0.1089,-0.1084,-0.1078,-0.1089,-0.1105,-0.1111,-0.1095,-0.1046,-0.0988,-0.0929,-0.0881,-0.0828,-0.0758,-0.0641,-0.0497,-0.039,-0.0358,-0.0379,-0.0368,-0.0304,-0.0208,-0.0117,-0.0059,-0.0043,-0.0037,-0.0032,-0.0048,-0.0123,-0.0235,-0.0374,-0.0502,-0.0502,-0.024,-0.0027,0.008,0.0598,0.1084,0.1244,0.1329,0.141,0.1506,0.1511,-0.126,-0.1191,-0.1153,-0.1143,-0.1132,-0.1105,-0.1078,-0.1078,-0.11,-0.1143,-0.1175,-0.1175,-0.1137,-0.1078,-0.1025,-0.0961,-0.0892,-0.0822,-0.0758,-0.0715,-0.0683,-0.0635,-0.0561,-0.0448,-0.0326,-0.0198,-0.0112,-0.008,-0.0069,-0.0064,-0.0059,-0.0064,-0.0096,-0.0171,-0.0288,-0.0443,-0.0587,-0.0689,-0.0731,-0.0411,-0.0053,0.0037,0.0577,0.1052,0.1127,0.126,0.1356,-0.1442,-0.1383,-0.1265,-0.1175,-0.1121,-0.1057,-0.0993,-0.0993,-0.1052,-0.1127,-0.1169,-0.1164,-0.1137,-0.1148,-0.1143,-0.1062,-0.0961,-0.0881,-0.0828,-0.0774,-0.0715,-0.0657,-0.0577,-0.047,-0.0336,-0.0214,-0.0128,-0.0101,-0.0096,-0.0069,-0.0037,-0.0027,-0.0053,-0.0112,-0.0203,-0.0315,-0.0438,-0.0593,-0.0715,-0.078,-0.0822,-0.0523,-0.0037,0.0075,0.055,0.1233,0.142,-0.2226,-0.2194,-0.1831,-0.1431,-0.1159,-0.0961,-0.0908,-0.0993,-0.1121,-0.1217,-0.1324,-0.1548,-0.1607,-0.1447,-0.1308,-0.1164,-0.103,-0.0929,-0.0876,-0.0828,-0.0774,-0.071,-0.0614,-0.0491,-0.0368,-0.0256,-0.0176,-0.0133,-0.0112,-0.0096,-0.0075,-0.0064,-0.0075,-0.0101,-0.0139,-0.0198,-0.0272,-0.0358,-0.0438,-0.0486,-0.0464,-0.0358,-0.0336,-0.0198,0.031,0.055,0.0598,-0.252,-0.2355,-0.1938,-0.1676,-0.1714,-0.1815,-0.1698,-0.1431,-0.1244,-0.1132,-0.1297,-0.1869,-0.1815,-0.1335,-0.1297,-0.1255,-0.1164,-0.1062,-0.0988,-0.0918,-0.0844,-0.0753,-0.0646,-0.0529,-0.0454,-0.039,-0.0326,-0.0267,-0.0224,-0.0219,-0.023,-0.0235,-0.0219,-0.0187,-0.0155,-0.0155,-0.0192,-0.0235,-0.0278,-0.0358,-0.047,-0.0566,-0.0587,-0.0598,-0.0796,-0.1159,-0.134,0,0,-0.0822,-0.1997,-0.2632,-0.2547,-0.1511,-0.0886,-0.0614,-0.0267,0.0096,0.0262,0,-0.0998,-0.1767,-0.1447,-0.1303,-0.1212,-0.1084,-0.0977,-0.0924,-0.0929,-0.0769,-0.0545,-0.0491,-0.0502,-0.0513,-0.047,-0.0406,-0.0384,-0.0416,-0.0454,-0.0464,-0.0411,-0.0294,-0.0166,-0.0107,-0.0139,-0.0224,-0.0352,-0.0529,-0.0737,-0.0988,-0.1271,-0.1575,-0.1847,-0.2072,-0.1538,-0.1858,-0.1692,-0.1014,-0.0678,0,0,-0.031,-0.0822,-0.055,0.0566,0.2253,0.2007,0.071,0,0,0,0,0,0,0,0,-0.0133,-0.0267,-0.0336,-0.0523,-0.0817,-0.1159,-0.1127,-0.0822,-0.0635,-0.0614,-0.0699,-0.0796,-0.0678,-0.0368,-0.0198,-0.0203,-0.0272,-0.0379,-0.0529,-0.0721,-0.0892,-0.1009,-0.1078,-0.1148,-0.1255,-0.1922,-0.1997,-0.1869,-0.1735,-0.1458,-0.0763,-0.04,-0.0149,0.0128,0,0,0,0.0529,0.1169,0.0651,0.0085,0.0112,0.0123,0.0224,0.0192,0.0112,0,0,0,0,0,0,0,-0.0422,-0.086,-0.0828,-0.0678,-0.0603,-0.047,-0.0283,-0.0251,-0.0358,-0.0464,-0.0513,-0.0529,-0.055,-0.0603,-0.0721,-0.0865,-0.1025,-0.1175,-0.1319,-0.1826,-0.1479,-0.1078,-0.0966,-0.1255,-0.1773,-0.1869,-0.095,0.0753,0.1943,0.2162,0.1484,0.0758,0.0454,-0.0091,-0.0267,0.0064,0.0395,0.0635,0.0662,0.0566,0,0,0,0,0,0,0,0,0,0,0,0,-0.0085,-0.0336,-0.0758,-0.1201,-0.1217,-0.0822,-0.0577,-0.0513,-0.0513,-0.0561,-0.0646,-0.0796,-0.0982,-0.1148,0,-0.023,-0.0251,-0.0005,0.0053,0.0064,0,0,0,0,0,0.0256,0.0432,0.0096,-0.0219,-0.0069,0.0534,0.1201,0.118,0.087,0,0,0,0,0,0,0,0,0,0,0,0,0,0,0,0,0.0331,0.0657,0,0,-0.0144,-0.0192,-0.0246,-0.0352,-0.0475,-0.0614,-0.0705,0,0,0,0.0069,0.0182,0.0224,0,0,0,0,0,0.0219,0.0443,0.0021,-0.0224,0.0214,0.1036,0.1308,0.063,0,0,0,0,0,0,0,0,0,0,0,0,0,0,0,0,0,0,0.0235,0.0603,0,0,0,0,0,0,0,-0.0171,0,0,0,0,0,0,0,0,0,0,0,0.0085,0.0187,-0.0214,-0.0358,0.0224,0.102,0.1506,0,0,0,0,0,0,0,0,0,0,0,0,0,0,0,0,0,0,0,0,-0.0085,0.0262,0.0619,0.0539,0,0,0,0,0,0,0,0,0,0,0,0,0,0,0,0,0.0032,-0.0059,-0.0219,-0.0283,-0.0059,0.0198,0,0,0,0,0,0,0,0,0,0,0,0,0,0,0,0,0,0,0,0,0,0,-0.0315,-0.0454,0.0214,0.0587,0.0251,0.0011,0,0,0,0,0,0,0,0,0,0,0,0,0,0,-0.0149,0.0635,0.0011,-0.0406,-0.0502,0,0,0,0,0,0,0,0,0,0,0,0,0,0,0,0,0,0,0,0,0,0,0,0,0,0,0.0096,0.0198,0,0,0,0,0,0,0,0,0,0,0,0,0,0,0.0395,0.0854,0.0486,-0.0384,-0.0876,0,0,0,0,0,0,0,0,0,0,0,0,0,0,0,0,0,0,0,0,0,0,0,0,0,0,0,0,0,0,0,0,0,0,0,0,0,0,0,0,0,0,0.024,0.0603,0.0422,-0.0326,-0.0828,0,0,0,0,0,0,0,0,0,0,0,0,0,0,0,0,0,0,0,0,0,0,0,0,0,0,0,0,0,0,0,0,0,0,0,0,0,0,0,0,0,0,-0.0539,-0.0486,0.0326,0.0117,-0.0315,0,0,0,0,0,0,0,0,0,0,0,0,0,0,0,0,0,0,0,0,0,0,0,0,0,0,0,0,0,0,0,0,0,0,0,0,0,0,0,0,0,0,0,0.0096,0.0657,0.0699,0.0278,0,0,0,0,0,0,0,0,0,0,0,0,0,0,0,0,0,0,0,0,0,0,0,0,0,0,0,0,0,0,0,0,0,0,0,0,0,0,0,0,0,0,0,0.0892,0.1217,0.032,-0.0011,0,0,0,0,0,0,0,0,0,0,0,0,0,0,0,0,0,0,0,0,0,0,0,0,0,0,0,0,0,0,0,0,0,0,0,0,0,0,0,0,0,0,0,0,0.0304,0.0603,0,0,0,0,0,0,0,0,0,0,0,0,0,0,0,0,0,0,0,0,0,0,0,0,0,0,0,0,0,0,0,0,0,0,0,0,0,0,0,0,0,0,0,0,0,0,0,0,0,0,0,0,0,0,0,0,0,0,0,0,0,0,0,0,0,0,0,0,0,0,0,0,0,0,0,0,0,0,0,0,0,0,0,0,0,0,0,0,0,0,0,0,0,0,0,0,0,0,0,0,0,0,0,0,0,0,0,0,0,0,0,0,0,0,0,0,0,0,0,0,0,0,0,0,0,0,0,0,0,0,0,0,0,0,0,0,0,0,0,0,0,0,0,0,0,0,0,0,0,0,0,0,0,0,0,0,0,0,0,0,0,0,0,0,0,0,0,0,0,0,0,0,0,0,0,0,0,0,0,0,0,0,0,0,0,0,0,0,0,0,0,0,0,0,0,0,0,0,0,0,0,0,0,0,0,0,0,0,0,0,0,0,0,0,0,0,0,0,0,0,0,0,0,0,0,0,0,0,0,0,0,0,0,0,0,0,0,0,0,0,0,0,0,0,0,0,0,0,0,0,0,0,0,0,0,0,0,0,0,0,0,0,0,0,0,0,0,0,0,0,0,0,0,0,0,0,0,0,0,0,0,0,0,0,0,0,0,0,0,0,0,0,0,0,0,0,0,0,0,0,0,0,0,0,0,0,0,0,0,0,0,0,0]}],[{"header":{"parameterUnit":"kt","parameterCategory":2,"dx":1,"dy":1,"la1":29.764190673828125,"la2":30.86408042907715,"lo1":-88.46762084960938,"lo2":-86.9344482421875,"nx":47,"ny":34,"refTime":"2022-10-13T00:00:00:Z","depth":"4","parameterNumber":3,"parameterNumberName":"V-component_of_CURRENTS"},"data":[-0.024,-0.0545,-0.0304,0.0406,0.1009,0.1212,0.1143,0.0929,0.0982,0.1137,0.1191,0.1287,0.1458,0.1676,0.1692,0.1586,0.1431,0.1335,0.0913,0.071,0.095,0.1046,0.0529,-0.0123,-0.0502,-0.0021,0.0908,0.11,0.0176,-0.0395,-0.0235,0.0048,0.0037,0.0112,0.0053,-0.0133,-0.0283,-0.0299,-0.024,-0.0048,0.0149,0.032,0.0427,0.0502,0.0561,0.0614,0.0662,-0.0219,-0.0363,-0.0294,0.0107,0.0609,0.0902,0.1062,0.1159,0.1276,0.1287,0.1297,0.1377,0.1538,0.1623,0.1447,0.1319,0.1276,0.1212,0.0982,0.0844,0.1041,0.1068,0.0555,0.0053,-0.0432,-0.0192,0.0379,0.0715,0.0651,0.0267,-0.0059,0.0069,0.0214,0.0267,0.0299,0.0267,0.0267,0.0315,0.0294,0.0336,0.0432,0.0502,0.0577,0.0614,0.0587,0.0614,0.0683,-0.0155,-0.0187,-0.0139,0.0101,0.0502,0.078,0.1025,0.1185,0.1244,0.1265,0.1292,0.1356,0.142,0.1367,0.1185,0.1153,0.1185,0.1127,0.1004,0.0929,0.0982,0.0993,0.0737,0.0427,-0.0059,-0.0192,0.016,0.0208,0.0139,0.0283,0.0326,0.0246,0.0171,0.0331,0.0342,0.032,0.0379,0.0481,0.0545,0.0545,0.0571,0.0534,0.0529,0.0448,0.0342,0.0251,0.0326,-0.0085,-0.0053,-0.0027,0.0139,0.0406,0.0641,0.086,0.1036,0.1116,0.1164,0.1164,0.1164,0.1148,0.1105,0.103,0.1073,0.1116,0.1068,0.0966,0.0881,0.0844,0.087,0.086,0.078,0.0545,0.0171,0.0112,0.0037,-0.0182,-0.023,0.0085,0.0427,0.0342,0.0203,0.0139,0.0208,0.023,0.0315,0.0374,0.0384,0.039,0.0326,0.0272,0.0139,0.0037,-0.0064,0.0005,-0.0005,0.0064,0.0128,0.0214,0.0347,0.0513,0.0689,0.0865,0.0988,0.1014,0.0966,0.094,0.0972,0.0977,0.0972,0.1009,0.1025,0.0977,0.0892,0.079,0.0705,0.0715,0.0801,0.0876,0.0897,0.0673,0.0331,0.0123,0.0005,-0.0219,-0.039,-0.0037,0.0384,0.0438,0.0166,-0.0107,-0.0246,-0.0032,0.0048,0.0069,0.0107,0.0107,0.0085,-0.0011,-0.0107,-0.0182,-0.0133,0.0117,0.0187,0.0267,0.0347,0.0427,0.0534,0.0646,0.0769,0.0865,0.0897,0.0886,0.0892,0.0929,0.094,0.0934,0.0929,0.0902,0.086,0.079,0.0699,0.0614,0.0593,0.0662,0.0774,0.0854,0.0801,0.0523,0.0315,0.0256,0.0117,-0.0198,-0.0406,-0.008,0.0374,0.0427,0.0166,-0.0208,-0.0427,-0.0539,-0.039,-0.0262,-0.0219,-0.023,-0.0267,-0.0331,-0.0395,-0.0395,0.0235,0.0288,0.0363,0.0432,0.0507,0.0598,0.0699,0.0796,0.0854,0.0897,0.0918,0.0934,0.0945,0.0934,0.0897,0.0844,0.0801,0.0753,0.071,0.0646,0.0587,0.0555,0.0561,0.0646,0.0721,0.0689,0.0513,0.0352,0.032,0.0326,0.0187,-0.0144,-0.0203,-0.0059,0.0176,0.0454,0.0352,-0.0101,-0.0513,-0.0619,-0.0769,-0.0715,-0.0657,-0.0673,-0.0747,-0.0817,-0.0833,0.0256,0.0315,0.0395,0.0475,0.0566,0.0678,0.0785,0.087,0.0913,0.0945,0.0961,0.0961,0.095,0.0924,0.087,0.0801,0.0742,0.0678,0.063,0.0587,0.0577,0.0598,0.0555,0.0598,0.0635,0.0603,0.0454,0.031,0.0304,0.0358,0.0342,0.0133,-0.0011,-0.0027,-0.008,0.008,0.0358,0.0278,0.0149,-0.0203,-0.0625,-0.0785,-0.0913,-0.0929,-0.1073,-0.1143,-0.1148,0.0219,0.0299,0.0406,0.0497,0.0593,0.0721,0.0844,0.0934,0.0982,0.0993,0.0972,0.095,0.0924,0.0892,0.0844,0.078,0.071,0.0614,0.0518,0.0448,0.0486,0.0555,0.0571,0.0577,0.0566,0.0529,0.0358,0.023,0.0267,0.0342,0.0352,0.0251,0.0149,0.0085,0.0005,-0.0085,0.0048,0.0176,0.0144,0.0144,0.0203,-0.0166,-0.0635,-0.079,-0.1068,-0.1201,-0.1244,0.016,0.0283,0.0427,0.0529,0.0609,0.0731,0.0881,0.1004,0.1068,0.1062,0.1004,0.094,0.0886,0.0844,0.0796,0.0737,0.0667,0.055,0.0422,0.0336,0.0363,0.0432,0.0502,0.0491,0.0448,0.039,0.0246,0.0155,0.0203,0.0294,0.0331,0.0294,0.0235,0.0187,0.0112,-0.0016,-0.0096,0.0005,-0.0053,0.0171,0.0358,0.0283,0.024,-0.0251,-0.0785,-0.103,-0.1111,0.0139,0.0267,0.0448,0.0571,0.0614,0.0699,0.0897,0.1095,0.1201,0.1185,0.1078,0.0966,0.0892,0.086,0.0715,0.0625,0.0587,0.0491,0.0374,0.0278,0.0256,0.0304,0.0352,0.0336,0.0272,0.0203,0.0123,0.0075,0.0117,0.0208,0.0283,0.031,0.0315,0.0294,0.0219,0.0085,-0.0053,-0.0123,-0.0096,-0.0016,0.0,0.0384,0.0603,0.0235,0.0155,-0.0203,-0.0577,0.0224,0.0192,0.032,0.0518,0.0545,0.063,0.0972,0.1276,0.141,0.134,0.1255,0.1196,0.0966,0.1009,0.0603,0.0448,0.0454,0.0406,0.0315,0.0214,0.0155,0.0155,0.0155,0.0133,0.0075,0.0011,-0.0027,-0.0021,0.0032,0.0112,0.0203,0.0288,0.0363,0.039,0.032,0.0155,0.0005,-0.0091,-0.0192,-0.0299,-0.0251,0.008,0.0155,0.039,0.0737,0.0331,0.0059,0.0294,0.0123,0.023,0.0571,0.0641,0.0726,0.0988,0.1484,0.158,0.1479,0.1655,0.1954,0.1009,0.1159,0.0518,0.0262,0.0246,0.024,0.0208,0.0139,0.0059,0.0037,-0.0048,-0.0053,-0.0096,-0.0139,-0.0171,-0.0128,-0.0043,0.0037,0.0144,0.024,0.0347,0.0406,0.0352,0.0192,0.0016,-0.0096,-0.0171,-0.0262,-0.0326,-0.031,-0.0262,0.0053,0.0256,0.0048,0.0048,0,0,0.1324,0.118,0.1324,0.0753,0.0892,0.1821,0.1618,0.1388,0.1762,0.2525,0,0.229,0.0491,0.0144,0.0096,0.0128,0.0128,0.0059,0.0,-0.0021,-0.0342,-0.0262,-0.0278,-0.0278,-0.0288,-0.0198,-0.0107,0.0005,0.0139,0.0219,0.0294,0.0331,0.0235,0.0101,0.0005,-0.008,-0.0101,-0.0117,-0.0192,-0.0278,-0.0342,-0.031,-0.0176,-0.0198,-0.0283,0.0048,0.0101,0.1895,0.1335,0.1111,0,0,0.2461,0.1778,0.1233,0.1596,0.2563,0.1345,0.394,0,0,0,0,0,0,0,0,-0.0587,-0.0416,-0.0395,-0.0384,-0.0352,-0.024,-0.0251,0.0027,0.0123,0.0219,0.023,0.0203,-0.0133,-0.0235,-0.0117,-0.008,-0.0011,0.0027,-0.0011,-0.0107,-0.0208,-0.0288,-0.0299,-0.0294,-0.0294,0.0112,0.0219,0.1143,0.0956,0.0166,-0.0283,0.0384,0.2413,0.1981,0,0,0,0.2435,0.4341,0.023,0.0005,0.0123,0.0064,-0.0123,-0.0144,-0.0107,0,0,0,0,0,0,0,-0.0133,-0.0176,0.008,0.0219,0.0192,0.008,-0.0374,-0.0523,-0.0203,-0.0064,0.0064,0.0128,0.0096,0.0037,-0.0101,-0.0219,-0.0283,-0.0272,-0.0219,0.0128,-0.0219,0.0571,0.0694,0.0422,-0.0155,0.0769,0.1965,0.2002,0.0,0.0,-0.0246,0.2445,0.4068,0.1046,0.0246,0.0192,0.0123,-0.016,-0.0358,-0.0214,0,0,0,0,0,0,0,0,0,0,0,0,-0.0059,-0.0363,-0.0384,-0.024,-0.0182,0.0075,0.0048,0.0043,0.0112,0.0,-0.0091,-0.0149,-0.0182,-0.0171,0,-0.0683,0.0262,0.023,0.0427,-0.0005,0,0,0,0,0,-0.0966,0.3118,0.3908,0.1879,0.0464,-0.0219,-0.0374,0.0085,-0.0288,0,0,0,0,0,0,0,0,0,0,0,0,0,0,0,0,-0.055,-0.0294,0,0,-0.0048,0.0123,0.0021,-0.0032,-0.0064,-0.0117,-0.0155,0,0,0,-0.0032,0.0037,-0.0272,0,0,0,0,0,-0.1596,0.3513,0.4015,0.2072,0.0149,-0.1319,-0.0833,0.0235,0,0,0,0,0,0,0,0,0,0,0,0,0,0,0,0,0,0,-0.0235,-0.0064,0,0,0,0,0,0,0,-0.0187,0,0,0,0,0,0,0,0,0,0,0,-0.2056,0.3727,0.4218,0.1757,-0.0513,-0.2515,-0.0806,0,0,0,0,0,0,0,0,0,0,0,0,0,0,0,0,0,0,0,0,-0.0128,-0.0464,0.0187,0.024,0,0,0,0,0,0,0,0,0,0,0,0,0,0,0,0,-0.2152,0.3673,0.4186,0.1468,-0.141,-0.3086,0,0,0,0,0,0,0,0,0,0,0,0,0,0,0,0,0,0,0,0,0,0,-0.0934,0.0374,0.0481,0.0,0.0166,-0.0069,0,0,0,0,0,0,0,0,0,0,0,0,0,0,0.197,0.3956,0.1559,-0.2178,-0.3187,0,0,0,0,0,0,0,0,0,0,0,0,0,0,0,0,0,0,0,0,0,0,0,0,0,0,0.0331,-0.0139,0,0,0,0,0,0,0,0,0,0,0,0,0,0,-0.0662,0.3652,0.1805,-0.2648,-0.3257,0,0,0,0,0,0,0,0,0,0,0,0,0,0,0,0,0,0,0,0,0,0,0,0,0,0,0,0,0,0,0,0,0,0,0,0,0,0,0,0,0,0,-0.2072,0.4084,0.1922,-0.2894,-0.315,0,0,0,0,0,0,0,0,0,0,0,0,0,0,0,0,0,0,0,0,0,0,0,0,0,0,0,0,0,0,0,0,0,0,0,0,0,0,0,0,0,0,-0.2285,0.338,0.1452,-0.2776,-0.2744,0,0,0,0,0,0,0,0,0,0,0,0,0,0,0,0,0,0,0,0,0,0,0,0,0,0,0,0,0,0,0,0,0,0,0,0,0,0,0,0,0,0,0,0.2157,-0.0107,-0.2499,-0.2018,0,0,0,0,0,0,0,0,0,0,0,0,0,0,0,0,0,0,0,0,0,0,0,0,0,0,0,0,0,0,0,0,0,0,0,0,0,0,0,0,0,0,0,0.2248,-0.0443,-0.2146,-0.1575,0,0,0,0,0,0,0,0,0,0,0,0,0,0,0,0,0,0,0,0,0,0,0,0,0,0,0,0,0,0,0,0,0,0,0,0,0,0,0,0,0,0,0,0,0.0326,-0.204,0,0,0,0,0,0,0,0,0,0,0,0,0,0,0,0,0,0,0,0,0,0,0,0,0,0,0,0,0,0,0,0,0,0,0,0,0,0,0,0,0,0,0,0,0,0,0,0,0,0,0,0,0,0,0,0,0,0,0,0,0,0,0,0,0,0,0,0,0,0,0,0,0,0,0,0,0,0,0,0,0,0,0,0,0,0,0,0,0,0,0,0,0,0,0,0,0,0,0,0,0,0,0,0,0,0,0,0,0,0,0,0,0,0,0,0,0,0,0,0,0,0,0,0,0,0,0,0,0,0,0,0,0,0,0,0,0,0,0,0,0,0,0,0,0,0,0,0,0,0,0,0,0,0,0,0,0,0,0,0,0,0,0,0,0,0,0,0,0,0,0,0,0,0,0,0,0,0,0,0,0,0,0,0,0,0,0,0,0,0,0,0,0,0,0,0,0,0,0,0,0,0,0,0,0,0,0,0,0,0,0,0,0,0,0,0,0,0,0,0,0,0,0,0,0,0,0,0,0,0,0,0,0,0,0,0,0,0,0,0,0,0,0,0,0,0,0,0,0,0,0,0,0,0,0,0,0,0,0,0,0,0,0,0,0,0,0,0,0,0,0,0,0,0,0,0,0,0,0,0,0,0,0,0,0,0,0,0,0,0,0,0,0,0,0,0,0,0,0,0,0,0,0,0,0,0,0,0,0,0,0,0,0]}]],[[{"header":{"parameterUnit":"kt","parameterCategory":2,"dx":1,"dy":1,"la1":29.764190673828125,"la2":30.86408042907715,"lo1":-88.46762084960938,"lo2":-86.9344482421875,"nx":47,"ny":34,"refTime":"2022-10-13T00:00:00:Z","depth":"6","parameterNumber":2,"parameterNumberName":"U-component_of_CURRENTS"},"data":[0.0208,0.0155,-0.0005,0.0144,0.0598,0.1004,0.126,0.1201,0.0785,0.0352,0.0043,-0.0251,-0.0529,-0.0731,-0.0763,-0.0571,-0.0326,-0.0171,-0.0128,-0.0198,-0.0406,-0.071,-0.086,-0.0897,-0.0966,-0.0961,-0.0737,-0.0219,0.0427,0.0395,-0.0246,-0.0432,-0.024,-0.0149,-0.0101,-0.008,-0.0117,-0.0182,-0.0251,-0.0251,-0.0123,0.0123,0.047,0.0924,0.1484,0.2018,0.2328,-0.023,-0.032,-0.0352,-0.0379,-0.0256,-0.0021,0.0149,0.0139,0.0011,-0.0155,-0.0379,-0.0577,-0.0705,-0.0731,-0.0598,-0.039,-0.024,-0.0139,-0.0096,-0.0203,-0.04,-0.0529,-0.063,-0.0833,-0.1127,-0.1308,-0.1356,-0.1271,-0.0758,-0.0043,0.0021,-0.039,-0.047,-0.0358,-0.031,-0.0224,-0.008,0.008,0.0219,0.0352,0.0518,0.0753,0.1057,0.1356,0.1554,0.1644,0.1698,-0.0272,-0.04,-0.0587,-0.0689,-0.0635,-0.0507,-0.0379,-0.0326,-0.039,-0.0529,-0.063,-0.0667,-0.0641,-0.0518,-0.0347,-0.024,-0.0187,-0.0155,-0.0133,-0.0128,-0.0112,-0.0117,-0.0246,-0.0539,-0.1014,-0.1468,-0.1639,-0.1612,-0.1516,-0.1089,-0.0379,-0.0085,-0.0288,-0.0352,-0.0283,-0.0214,-0.0043,0.0192,0.0464,0.0689,0.0844,0.0956,0.1004,0.0988,0.0977,0.1068,0.1239,-0.0299,-0.0395,-0.0518,-0.0657,-0.0715,-0.0678,-0.0646,-0.0657,-0.0699,-0.0742,-0.0726,-0.063,-0.0486,-0.0342,-0.0251,-0.0219,-0.0203,-0.0182,-0.0149,-0.0101,-0.0021,0.0075,0.0075,-0.0085,-0.0411,-0.0977,-0.1442,-0.15,-0.1431,-0.1383,-0.1143,-0.0545,0.0016,0.0048,-0.0149,-0.0101,0.0043,0.0246,0.0534,0.0742,0.086,0.0881,0.0849,0.0828,0.0876,0.1004,0.1201,-0.0235,-0.0336,-0.047,-0.0619,-0.0753,-0.0849,-0.0886,-0.087,-0.0806,-0.0699,-0.0587,-0.0491,-0.0432,-0.0395,-0.0379,-0.0352,-0.0304,-0.0235,-0.0166,-0.0101,-0.0043,0.0037,0.0112,0.0133,0.0075,-0.0117,-0.0406,-0.0593,-0.071,-0.0902,-0.1052,-0.0972,-0.0561,0.0016,0.0336,0.0326,0.0198,0.0224,0.0406,0.0619,0.0833,0.0924,0.094,0.094,0.0961,0.1014,0.1143,-0.0192,-0.0315,-0.0427,-0.0539,-0.063,-0.0699,-0.0726,-0.0715,-0.0673,-0.0619,-0.0593,-0.0609,-0.0625,-0.0614,-0.0582,-0.0518,-0.0432,-0.0347,-0.0262,-0.0214,-0.0187,-0.0155,-0.0085,0.0016,0.0112,0.0166,0.0123,0.0021,-0.0059,-0.0149,-0.0358,-0.0635,-0.0715,-0.0502,-0.0117,0.031,0.0603,0.0635,0.0491,0.0502,0.0721,0.0897,0.0961,0.0956,0.0929,0.0913,0.095,-0.0342,-0.04,-0.0454,-0.0507,-0.0566,-0.0635,-0.0705,-0.0758,-0.0801,-0.0828,-0.0844,-0.0854,-0.0844,-0.0801,-0.0737,-0.0657,-0.0577,-0.0497,-0.0432,-0.0406,-0.04,-0.0374,-0.0299,-0.0176,-0.0037,0.0085,0.0144,0.0133,0.0085,0.0011,-0.0075,-0.0235,-0.0438,-0.0577,-0.0513,-0.0198,0.0133,0.047,0.0854,0.1046,0.0972,0.0961,0.1057,0.1089,0.1052,0.102,0.1009,-0.0822,-0.0817,-0.0822,-0.0833,-0.086,-0.0902,-0.0956,-0.0982,-0.1004,-0.102,-0.1025,-0.1009,-0.0966,-0.0908,-0.0844,-0.078,-0.0715,-0.0641,-0.0555,-0.0454,-0.0368,-0.0326,-0.032,-0.0299,-0.0235,-0.0144,-0.0059,-0.0005,0.0011,0.0011,0.0,-0.0053,-0.0187,-0.0352,-0.0497,-0.047,-0.0198,0.0011,0.0411,0.0876,0.1132,0.1372,0.1388,0.1345,0.1367,0.1383,0.1367,-0.1185,-0.1148,-0.1127,-0.1116,-0.11,-0.1089,-0.1084,-0.1078,-0.1089,-0.1105,-0.1111,-0.1089,-0.1046,-0.0988,-0.0929,-0.0881,-0.0833,-0.0763,-0.0646,-0.0507,-0.04,-0.0368,-0.0384,-0.0374,-0.031,-0.0219,-0.0128,-0.0075,-0.0053,-0.0053,-0.0048,-0.0069,-0.0144,-0.0262,-0.0395,-0.0518,-0.0518,-0.0251,-0.0043,0.0069,0.0587,0.1068,0.1228,0.1313,0.1393,0.149,0.1495,-0.1271,-0.1201,-0.1159,-0.1143,-0.1132,-0.1105,-0.1078,-0.1073,-0.11,-0.1137,-0.1169,-0.1175,-0.1137,-0.1078,-0.1025,-0.0966,-0.0897,-0.0833,-0.0769,-0.0726,-0.0689,-0.0641,-0.0561,-0.0459,-0.0331,-0.0208,-0.0123,-0.0091,-0.008,-0.0075,-0.0069,-0.008,-0.0117,-0.0198,-0.0315,-0.0464,-0.0603,-0.0705,-0.0742,-0.0432,-0.0075,0.0021,0.0555,0.1025,0.1111,0.1244,0.134,-0.1447,-0.1393,-0.1276,-0.118,-0.1121,-0.1052,-0.0988,-0.0988,-0.1046,-0.1127,-0.1164,-0.1159,-0.1132,-0.1148,-0.1143,-0.1068,-0.0966,-0.0892,-0.0838,-0.0785,-0.0726,-0.0662,-0.0582,-0.0475,-0.0347,-0.0219,-0.0139,-0.0112,-0.0107,-0.008,-0.0048,-0.0037,-0.0069,-0.0133,-0.0224,-0.0336,-0.0454,-0.0603,-0.0726,-0.079,-0.0838,-0.0545,-0.0064,0.0048,0.0518,0.1196,0.1388,-0.2093,-0.2157,-0.1842,-0.1442,-0.1159,-0.0961,-0.0908,-0.0988,-0.1116,-0.1207,-0.1313,-0.1532,-0.1591,-0.1442,-0.1308,-0.1169,-0.103,-0.0934,-0.0881,-0.0833,-0.078,-0.0715,-0.0619,-0.0497,-0.0374,-0.0267,-0.0187,-0.0144,-0.0123,-0.0107,-0.0085,-0.0075,-0.0085,-0.0117,-0.016,-0.0219,-0.0294,-0.0374,-0.0448,-0.0497,-0.0481,-0.0379,-0.0358,-0.0235,0.0262,0.0502,0.0555,-0.1986,-0.2146,-0.1874,-0.1676,-0.1671,-0.1703,-0.1612,-0.141,-0.1239,-0.1121,-0.126,-0.181,-0.1789,-0.1335,-0.1281,-0.1223,-0.1143,-0.1046,-0.0972,-0.0913,-0.0838,-0.0753,-0.0646,-0.0534,-0.0454,-0.0395,-0.0331,-0.0278,-0.024,-0.023,-0.024,-0.0246,-0.023,-0.0198,-0.0171,-0.0176,-0.0208,-0.0251,-0.0288,-0.0374,-0.0491,-0.0582,-0.0609,-0.0619,-0.0812,-0.118,-0.1372,0,0,-0.0806,-0.189,-0.22,-0.2178,-0.1324,-0.0769,-0.0561,-0.0262,0.0075,0.023,0,-0.0956,-0.1682,-0.1367,-0.1239,-0.1164,-0.1036,-0.0924,-0.087,-0.0817,-0.0646,-0.0481,-0.0443,-0.0464,-0.0491,-0.047,-0.0416,-0.039,-0.0427,-0.047,-0.0475,-0.0422,-0.031,-0.0182,-0.0123,-0.0155,-0.0235,-0.0368,-0.0545,-0.0753,-0.0998,-0.1276,-0.157,-0.1837,-0.2072,-0.1084,-0.1554,-0.1612,-0.0876,-0.0443,0,0,-0.031,-0.0812,-0.0539,0.0518,0.2098,0.1794,0.0507,0,0,0,0,0,0,0,0,-0.0016,-0.0101,-0.0235,-0.0406,-0.0667,-0.0924,-0.095,-0.079,-0.0651,-0.0625,-0.0715,-0.0806,-0.0689,-0.039,-0.0214,-0.0208,-0.0278,-0.039,-0.0539,-0.0731,-0.0902,-0.1014,-0.1078,-0.1143,-0.1244,-0.1612,-0.1762,-0.1751,-0.1554,-0.0908,-0.0192,-0.0363,-0.0374,-0.0069,0,0,0,-0.0251,0.0886,0.2114,0.1399,0.0427,0.0149,0.0219,0.0182,0.0112,0,0,0,0,0,0,0,-0.0299,-0.0598,-0.0667,-0.0646,-0.0577,-0.0464,-0.0304,-0.0272,-0.0368,-0.047,-0.0518,-0.0534,-0.0555,-0.0614,-0.0731,-0.0876,-0.1025,-0.1169,-0.1308,-0.1671,-0.1351,-0.0982,-0.0854,-0.1057,-0.1431,-0.1431,-0.047,0.1773,0.2782,0.2066,0.1201,-0.008,0.0432,0.0913,-0.0005,0.0005,0.0336,0.055,0.0507,0.0432,0,0,0,0,0,0,0,0,0,0,0,0,-0.0037,-0.0315,-0.0806,-0.1095,-0.11,-0.0796,-0.0566,-0.0518,-0.0518,-0.0566,-0.0651,-0.0796,-0.0977,-0.1143,0,-0.0123,-0.0144,0.0,0.0075,0.0112,0,0,0,0,0,-0.0315,-0.0443,0.032,0.0667,0.0149,-0.0027,0.0214,0.0395,0.0358,0,0,0,0,0,0,0,0,0,0,0,0,0,0,0,0,0.0603,0.0902,0,0,-0.0144,-0.0176,-0.0224,-0.0342,-0.0454,-0.0577,-0.0667,0,0,0,0.0075,0.0182,0.0208,0,0,0,0,0,-0.0497,-0.0272,0.0774,0.0822,0.0096,-0.0374,-0.0368,-0.0064,0,0,0,0,0,0,0,0,0,0,0,0,0,0,0,0,0,0,-0.0208,-0.0475,0,0,0,0,0,0,0,-0.0144,0,0,0,0,0,0,0,0,0,0,0,-0.0529,-0.0304,0.0721,0.0427,-0.0304,-0.032,-0.0235,0,0,0,0,0,0,0,0,0,0,0,0,0,0,0,0,0,0,0,0,0.0518,0.1052,0.0774,0.0481,0,0,0,0,0,0,0,0,0,0,0,0,0,0,0,0,-0.0929,-0.071,0.0683,0.0454,-0.0139,-0.0256,0,0,0,0,0,0,0,0,0,0,0,0,0,0,0,0,0,0,0,0,0,0,0.0053,0.0673,0.1714,0.1233,0.0182,0.0096,0,0,0,0,0,0,0,0,0,0,0,0,0,0,0.0176,0.1436,0.1089,0.0101,-0.0267,0,0,0,0,0,0,0,0,0,0,0,0,0,0,0,0,0,0,0,0,0,0,0,0,0,0,0.0101,0.0198,0,0,0,0,0,0,0,0,0,0,0,0,0,0,0.0182,0.1239,0.1591,0.04,-0.0294,0,0,0,0,0,0,0,0,0,0,0,0,0,0,0,0,0,0,0,0,0,0,0,0,0,0,0,0,0,0,0,0,0,0,0,0,0,0,0,0,0,0,-0.0374,0.0155,0.0913,0.023,-0.0278,0,0,0,0,0,0,0,0,0,0,0,0,0,0,0,0,0,0,0,0,0,0,0,0,0,0,0,0,0,0,0,0,0,0,0,0,0,0,0,0,0,0,-0.1233,-0.0715,0.1041,0.0459,-0.0037,0,0,0,0,0,0,0,0,0,0,0,0,0,0,0,0,0,0,0,0,0,0,0,0,0,0,0,0,0,0,0,0,0,0,0,0,0,0,0,0,0,0,0,0.0646,0.1201,0.0683,0.0256,0,0,0,0,0,0,0,0,0,0,0,0,0,0,0,0,0,0,0,0,0,0,0,0,0,0,0,0,0,0,0,0,0,0,0,0,0,0,0,0,0,0,0,0.0481,0.0422,-0.0326,-0.0529,0,0,0,0,0,0,0,0,0,0,0,0,0,0,0,0,0,0,0,0,0,0,0,0,0,0,0,0,0,0,0,0,0,0,0,0,0,0,0,0,0,0,0,0,-0.0069,-0.0133,0,0,0,0,0,0,0,0,0,0,0,0,0,0,0,0,0,0,0,0,0,0,0,0,0,0,0,0,0,0,0,0,0,0,0,0,0,0,0,0,0,0,0,0,0,0,0,0,0,0,0,0,0,0,0,0,0,0,0,0,0,0,0,0,0,0,0,0,0,0,0,0,0,0,0,0,0,0,0,0,0,0,0,0,0,0,0,0,0,0,0,0,0,0,0,0,0,0,0,0,0,0,0,0,0,0,0,0,0,0,0,0,0,0,0,0,0,0,0,0,0,0,0,0,0,0,0,0,0,0,0,0,0,0,0,0,0,0,0,0,0,0,0,0,0,0,0,0,0,0,0,0,0,0,0,0,0,0,0,0,0,0,0,0,0,0,0,0,0,0,0,0,0,0,0,0,0,0,0,0,0,0,0,0,0,0,0,0,0,0,0,0,0,0,0,0,0,0,0,0,0,0,0,0,0,0,0,0,0,0,0,0,0,0,0,0,0,0,0,0,0,0,0,0,0,0,0,0,0,0,0,0,0,0,0,0,0,0,0,0,0,0,0,0,0,0,0,0,0,0,0,0,0,0,0,0,0,0,0,0,0,0,0,0,0,0,0,0,0,0,0,0,0,0,0,0,0,0,0,0,0,0,0,0,0,0,0,0,0,0,0,0,0,0,0,0,0,0,0,0,0,0,0,0,0,0,0,0,0,0,0,0,0]}],[{"header":{"parameterUnit":"kt","parameterCategory":2,"dx":1,"dy":1,"la1":29.764190673828125,"la2":30.86408042907715,"lo1":-88.46762084960938,"lo2":-86.9344482421875,"nx":47,"ny":34,"refTime":"2022-10-13T00:00:00:Z","depth":"6","parameterNumber":3,"parameterNumberName":"V-component_of_CURRENTS"},"data":[-0.0267,-0.0598,-0.0368,0.0368,0.0988,0.1191,0.1121,0.0913,0.0972,0.1127,0.118,0.1276,0.1447,0.1666,0.1682,0.1575,0.142,0.1324,0.0897,0.0694,0.0934,0.103,0.0518,-0.0133,-0.0513,-0.0037,0.0865,0.1041,0.0112,-0.0459,-0.0299,-0.0032,-0.0059,-0.0005,-0.0059,-0.023,-0.0368,-0.0379,-0.031,-0.0112,0.0085,0.0251,0.0363,0.0443,0.0502,0.0555,0.0609,-0.023,-0.0384,-0.0336,0.0075,0.0582,0.0881,0.1041,0.1143,0.126,0.1276,0.1287,0.1367,0.1527,0.1612,0.1436,0.1303,0.126,0.1196,0.0966,0.0828,0.1025,0.1057,0.0539,0.0043,-0.0443,-0.0203,0.0358,0.0689,0.0614,0.0219,-0.0112,0.0011,0.0144,0.0187,0.0219,0.0192,0.0192,0.024,0.0224,0.0267,0.0363,0.0427,0.0507,0.055,0.0529,0.0555,0.0635,-0.016,-0.0192,-0.0149,0.0085,0.0486,0.0769,0.1014,0.1175,0.1233,0.1255,0.1281,0.1345,0.1404,0.1351,0.1169,0.1137,0.1164,0.1111,0.0988,0.0913,0.0966,0.0977,0.0721,0.0416,-0.0064,-0.0192,0.0155,0.0198,0.0123,0.0251,0.0278,0.0192,0.0117,0.0272,0.0283,0.0262,0.0315,0.0406,0.047,0.047,0.0502,0.047,0.0464,0.039,0.0294,0.0203,0.0283,-0.0091,-0.0059,-0.0032,0.0133,0.04,0.063,0.0854,0.1025,0.1105,0.1153,0.1153,0.1148,0.1132,0.1089,0.1014,0.1057,0.11,0.1052,0.095,0.0865,0.0828,0.0854,0.0838,0.0758,0.0534,0.0166,0.0112,0.0032,-0.0187,-0.024,0.0064,0.0384,0.0294,0.0149,0.0085,0.0155,0.0171,0.0256,0.031,0.0326,0.0326,0.0272,0.0219,0.0091,-0.0005,-0.0107,-0.0032,-0.0011,0.0053,0.0117,0.0208,0.0342,0.0507,0.0678,0.0854,0.0977,0.1004,0.095,0.0924,0.0956,0.0961,0.0956,0.0993,0.1009,0.0961,0.0876,0.0774,0.0689,0.0699,0.0785,0.0854,0.0876,0.0657,0.032,0.0112,-0.0005,-0.0224,-0.04,-0.0064,0.0342,0.0384,0.0112,-0.0155,-0.0299,-0.0085,-0.0005,0.0016,0.0053,0.0059,0.0037,-0.0053,-0.0149,-0.0224,-0.0182,0.0107,0.0176,0.0256,0.0336,0.0416,0.0523,0.0635,0.0758,0.0849,0.0886,0.087,0.0881,0.0918,0.0929,0.0924,0.0913,0.0892,0.0844,0.078,0.0683,0.0598,0.0577,0.0646,0.0758,0.0838,0.078,0.0502,0.0299,0.024,0.0101,-0.0208,-0.0422,-0.0107,0.0331,0.0368,0.0112,-0.0256,-0.0481,-0.0587,-0.0438,-0.0304,-0.0267,-0.0272,-0.031,-0.0374,-0.0443,-0.0443,0.0219,0.0272,0.0347,0.0422,0.0497,0.0587,0.0689,0.078,0.0844,0.0886,0.0908,0.0924,0.0934,0.0918,0.0881,0.0828,0.0785,0.0742,0.0694,0.063,0.0571,0.0539,0.0545,0.063,0.0705,0.0667,0.0486,0.0326,0.0294,0.0299,0.016,-0.0166,-0.0224,-0.0091,0.0133,0.04,0.0299,-0.0155,-0.0561,-0.0673,-0.0822,-0.0763,-0.0705,-0.0721,-0.0796,-0.0865,-0.0886,0.0251,0.0304,0.0384,0.0459,0.055,0.0662,0.0774,0.086,0.0902,0.0934,0.095,0.095,0.094,0.0908,0.0854,0.0785,0.0726,0.0662,0.0609,0.0561,0.0545,0.0561,0.0529,0.0571,0.0609,0.0577,0.0422,0.0278,0.0272,0.0326,0.031,0.0101,-0.0037,-0.0053,-0.0112,0.0037,0.0304,0.0224,0.0091,-0.0256,-0.0678,-0.0838,-0.0966,-0.0982,-0.1121,-0.1191,-0.1201,0.0219,0.0294,0.0395,0.0486,0.0582,0.071,0.0833,0.0924,0.0972,0.0977,0.0961,0.0934,0.0913,0.0876,0.0828,0.0763,0.0689,0.0593,0.0491,0.0422,0.0443,0.0513,0.0534,0.0539,0.0534,0.0491,0.032,0.0192,0.023,0.0304,0.0315,0.0219,0.0117,0.0053,-0.0027,-0.0123,0.0,0.0117,0.008,0.008,0.0144,-0.0224,-0.0694,-0.0854,-0.1127,-0.1255,-0.1297,0.016,0.0278,0.0422,0.0518,0.0598,0.0721,0.0865,0.0993,0.1052,0.1046,0.0988,0.0924,0.0865,0.0828,0.0774,0.0715,0.0641,0.0523,0.039,0.0304,0.032,0.0395,0.0464,0.0454,0.0411,0.0347,0.0208,0.0112,0.016,0.0251,0.0294,0.0256,0.0203,0.0155,0.008,-0.0048,-0.0133,-0.0043,-0.0101,0.0107,0.0278,0.0214,0.016,-0.0331,-0.0854,-0.1089,-0.1169,0.0144,0.0272,0.0448,0.0566,0.0603,0.0689,0.0881,0.1078,0.118,0.1164,0.1057,0.094,0.0865,0.0828,0.0689,0.0593,0.055,0.0459,0.0336,0.0246,0.0224,0.0267,0.0315,0.0299,0.0235,0.0166,0.0085,0.0037,0.008,0.0171,0.024,0.0267,0.0278,0.0262,0.0192,0.0053,-0.0085,-0.016,-0.0139,-0.0069,-0.0069,0.0299,0.0486,0.0117,0.0032,-0.0299,-0.0662,0.0155,0.0198,0.0331,0.0518,0.0539,0.0625,0.0966,0.1255,0.1383,0.1313,0.1228,0.1159,0.0934,0.0966,0.0561,0.0406,0.0411,0.0368,0.0278,0.0182,0.0123,0.0123,0.0123,0.0107,0.0048,-0.0011,-0.0053,-0.0048,0.0005,0.008,0.0166,0.0251,0.0326,0.0352,0.0283,0.0123,-0.0027,-0.0123,-0.0224,-0.0336,-0.0299,0.0005,0.0043,0.0246,0.0545,0.0155,-0.0096,0.0123,0.0133,0.0294,0.0577,0.0603,0.0603,0.0956,0.1479,0.1564,0.1458,0.1618,0.1842,0.0961,0.1084,0.0464,0.0187,0.0176,0.0198,0.016,0.0069,0.0016,-0.0011,-0.008,-0.0085,-0.0117,-0.0155,-0.0187,-0.0144,-0.0053,0.0016,0.0117,0.0214,0.031,0.0368,0.031,0.0155,-0.0016,-0.0123,-0.0203,-0.0294,-0.0363,-0.0363,-0.0331,-0.0059,0.0096,-0.0101,-0.0085,0,0,0.1313,0.1159,0.1164,0.0603,0.0876,0.1863,0.1596,0.1377,0.1719,0.2274,0,0.2088,0.0432,0.0059,0.0016,0.008,0.0075,-0.0016,-0.0048,-0.0075,-0.0502,-0.0384,-0.0315,-0.0326,-0.032,-0.023,-0.0112,-0.0005,0.0128,0.0198,0.0267,0.0299,0.0203,0.0064,-0.0037,-0.0117,-0.0133,-0.0149,-0.0219,-0.0304,-0.0374,-0.0363,-0.024,-0.0256,-0.0326,-0.0032,0.0043,0.1815,0.1095,0.1127,0,0,0.229,0.1757,0.1228,0.1575,0.2317,0.1249,0.3278,0,0,0,0,0,0,0,0,-0.0838,-0.0603,-0.0454,-0.0443,-0.0406,-0.0288,-0.0481,-0.0128,0.0112,0.0219,0.0224,0.0192,-0.0155,-0.0262,-0.0149,-0.0112,-0.0037,0.0005,-0.0032,-0.0123,-0.023,-0.031,-0.0326,-0.032,-0.0315,-0.0005,0.0091,0.1062,0.0507,0.0037,-0.0432,-0.0005,0.2152,0.1709,0,0,0,0.197,0.3123,-0.0294,-0.0678,-0.0224,-0.0037,-0.023,-0.0288,-0.0203,0,0,0,0,0,0,0,-0.0545,-0.0534,0.0069,0.0224,0.0203,0.0011,-0.0384,-0.0534,-0.0219,-0.0085,0.0032,0.0107,0.0075,0.0016,-0.0117,-0.023,-0.0294,-0.0294,-0.024,0.0053,-0.032,0.0411,0.0267,-0.0272,-0.0876,-0.0016,0.1687,0.149,0.0,0.0,0.0363,0.1522,0.2894,-0.0053,-0.1089,-0.0806,-0.0651,-0.0731,-0.0924,-0.0406,0,0,0,0,0,0,0,0,0,0,0,0,-0.0171,-0.039,-0.0422,-0.0198,-0.0272,0.0048,0.0005,0.0005,0.008,-0.0037,-0.0112,-0.0166,-0.0198,-0.0187,0,-0.0737,0.0053,-0.0112,-0.0171,-0.0619,0,0,0,0,0,0.0464,0.1863,0.2969,0.0619,-0.1345,-0.1885,-0.1794,-0.0982,-0.0812,0,0,0,0,0,0,0,0,0,0,0,0,0,0,0,0,-0.0577,-0.0481,0,0,-0.0075,0.0069,-0.0037,-0.0059,-0.0085,-0.0139,-0.0214,0,0,0,-0.0331,-0.0331,-0.0347,0,0,0,0,0,0.016,0.2082,0.2963,0.0171,-0.2258,-0.2616,-0.2339,-0.095,0,0,0,0,0,0,0,0,0,0,0,0,0,0,0,0,0,0,-0.0411,-0.0379,0,0,0,0,0,0,0,-0.0288,0,0,0,0,0,0,0,0,0,0,0,0.0315,0.2029,0.2995,-0.0646,-0.2904,-0.2477,-0.2253,0,0,0,0,0,0,0,0,0,0,0,0,0,0,0,0,0,0,0,0,-0.0758,-0.0673,-0.0368,0.0043,0,0,0,0,0,0,0,0,0,0,0,0,0,0,0,0,0.0502,0.2034,0.2782,-0.0918,-0.291,-0.2232,0,0,0,0,0,0,0,0,0,0,0,0,0,0,0,0,0,0,0,0,0,0,-0.1351,-0.0731,0.008,0.0,-0.016,-0.0101,0,0,0,0,0,0,0,0,0,0,0,0,0,0,0.1474,0.2477,-0.0651,-0.2632,-0.1981,0,0,0,0,0,0,0,0,0,0,0,0,0,0,0,0,0,0,0,0,0,0,0,0,0,0,-0.0315,-0.0208,0,0,0,0,0,0,0,0,0,0,0,0,0,0,0.0614,0.2141,-0.031,-0.2536,-0.213,0,0,0,0,0,0,0,0,0,0,0,0,0,0,0,0,0,0,0,0,0,0,0,0,0,0,0,0,0,0,0,0,0,0,0,0,0,0,0,0,0,0,0.0133,0.22,-0.0384,-0.2376,-0.2056,0,0,0,0,0,0,0,0,0,0,0,0,0,0,0,0,0,0,0,0,0,0,0,0,0,0,0,0,0,0,0,0,0,0,0,0,0,0,0,0,0,0,-0.0112,0.1922,-0.0854,-0.2077,-0.1607,0,0,0,0,0,0,0,0,0,0,0,0,0,0,0,0,0,0,0,0,0,0,0,0,0,0,0,0,0,0,0,0,0,0,0,0,0,0,0,0,0,0,0,0.0929,-0.1132,-0.1233,-0.0822,0,0,0,0,0,0,0,0,0,0,0,0,0,0,0,0,0,0,0,0,0,0,0,0,0,0,0,0,0,0,0,0,0,0,0,0,0,0,0,0,0,0,0,0.0475,-0.0646,-0.0609,-0.0315,0,0,0,0,0,0,0,0,0,0,0,0,0,0,0,0,0,0,0,0,0,0,0,0,0,0,0,0,0,0,0,0,0,0,0,0,0,0,0,0,0,0,0,0,-0.023,-0.0625,0,0,0,0,0,0,0,0,0,0,0,0,0,0,0,0,0,0,0,0,0,0,0,0,0,0,0,0,0,0,0,0,0,0,0,0,0,0,0,0,0,0,0,0,0,0,0,0,0,0,0,0,0,0,0,0,0,0,0,0,0,0,0,0,0,0,0,0,0,0,0,0,0,0,0,0,0,0,0,0,0,0,0,0,0,0,0,0,0,0,0,0,0,0,0,0,0,0,0,0,0,0,0,0,0,0,0,0,0,0,0,0,0,0,0,0,0,0,0,0,0,0,0,0,0,0,0,0,0,0,0,0,0,0,0,0,0,0,0,0,0,0,0,0,0,0,0,0,0,0,0,0,0,0,0,0,0,0,0,0,0,0,0,0,0,0,0,0,0,0,0,0,0,0,0,0,0,0,0,0,0,0,0,0,0,0,0,0,0,0,0,0,0,0,0,0,0,0,0,0,0,0,0,0,0,0,0,0,0,0,0,0,0,0,0,0,0,0,0,0,0,0,0,0,0,0,0,0,0,0,0,0,0,0,0,0,0,0,0,0,0,0,0,0,0,0,0,0,0,0,0,0,0,0,0,0,0,0,0,0,0,0,0,0,0,0,0,0,0,0,0,0,0,0,0,0,0,0,0,0,0,0,0,0,0,0,0,0,0,0,0,0,0,0,0,0,0,0,0,0,0,0,0,0,0,0,0,0,0,0,0,0,0]}]],[[{"header":{"parameterUnit":"kt","parameterCategory":2,"dx":1,"dy":1,"la1":29.764190673828125,"la2":30.86408042907715,"lo1":-88.46762084960938,"lo2":-86.9344482421875,"nx":47,"ny":34,"refTime":"2022-10-13T00:00:00:Z","depth":"8","parameterNumber":2,"parameterNumberName":"U-component_of_CURRENTS"},"data":[0.0187,0.0117,-0.0053,0.0112,0.0582,0.0993,0.1244,0.1185,0.078,0.0347,0.0043,-0.0256,-0.0529,-0.0731,-0.0758,-0.0566,-0.0326,-0.0176,-0.0133,-0.0208,-0.0416,-0.071,-0.086,-0.0908,-0.0982,-0.0977,-0.0747,-0.0224,0.0416,0.0384,-0.0251,-0.0432,-0.0251,-0.016,-0.0112,-0.0091,-0.0123,-0.0192,-0.0262,-0.0262,-0.0139,0.0107,0.0454,0.0908,0.1468,0.2002,0.2312,-0.024,-0.0336,-0.0379,-0.0406,-0.0278,-0.0037,0.0139,0.0133,0.0011,-0.0155,-0.0379,-0.0577,-0.0705,-0.0731,-0.0593,-0.039,-0.024,-0.0139,-0.0101,-0.0214,-0.0406,-0.0529,-0.063,-0.0844,-0.1143,-0.1324,-0.1367,-0.1276,-0.0763,-0.0048,0.0016,-0.039,-0.0475,-0.0363,-0.0315,-0.0235,-0.0085,0.0069,0.0208,0.0336,0.0502,0.0737,0.1041,0.134,0.1543,0.1634,0.1687,-0.0278,-0.0406,-0.0598,-0.0694,-0.0641,-0.0513,-0.0379,-0.0331,-0.0395,-0.0529,-0.063,-0.0662,-0.0641,-0.0513,-0.0347,-0.024,-0.0187,-0.0155,-0.0139,-0.0133,-0.0117,-0.0123,-0.0246,-0.0545,-0.1025,-0.1484,-0.1644,-0.1618,-0.1522,-0.1095,-0.0384,-0.0091,-0.0294,-0.0358,-0.0288,-0.0219,-0.0053,0.0182,0.0454,0.0673,0.0833,0.094,0.0988,0.0977,0.0966,0.1057,0.1233,-0.031,-0.04,-0.0523,-0.0662,-0.0721,-0.0683,-0.0646,-0.0657,-0.0699,-0.0742,-0.0726,-0.063,-0.0486,-0.0342,-0.0251,-0.0224,-0.0208,-0.0182,-0.0149,-0.0107,-0.0027,0.0069,0.0075,-0.0085,-0.0416,-0.0988,-0.1447,-0.15,-0.1442,-0.1399,-0.1153,-0.055,0.0005,0.0037,-0.016,-0.0107,0.0037,0.0235,0.0523,0.0726,0.0844,0.087,0.0838,0.0822,0.087,0.0998,0.1196,-0.0246,-0.0342,-0.0475,-0.0625,-0.0758,-0.0849,-0.0886,-0.087,-0.0806,-0.0699,-0.0587,-0.0497,-0.0432,-0.0395,-0.0374,-0.0358,-0.0304,-0.0235,-0.0171,-0.0112,-0.0048,0.0032,0.0107,0.0133,0.0075,-0.0117,-0.0411,-0.0598,-0.0721,-0.0918,-0.1068,-0.0988,-0.0566,0.0011,0.0326,0.0315,0.0187,0.0214,0.0395,0.0609,0.0822,0.0918,0.0934,0.0934,0.0956,0.1009,0.1137,-0.0203,-0.0326,-0.0438,-0.0539,-0.0635,-0.0699,-0.0731,-0.0721,-0.0673,-0.0619,-0.0593,-0.0609,-0.0625,-0.0614,-0.0582,-0.0518,-0.0432,-0.0347,-0.0267,-0.0214,-0.0192,-0.016,-0.0091,0.0011,0.0112,0.0166,0.0117,0.0016,-0.0064,-0.016,-0.0374,-0.0657,-0.0731,-0.0513,-0.0123,0.0299,0.0593,0.0625,0.0481,0.0497,0.071,0.0886,0.0956,0.095,0.0924,0.0908,0.0945,-0.0347,-0.0406,-0.0459,-0.0513,-0.0571,-0.0635,-0.0705,-0.0763,-0.0801,-0.0828,-0.0844,-0.0854,-0.0844,-0.0801,-0.0737,-0.0657,-0.0577,-0.0497,-0.0432,-0.0411,-0.04,-0.0379,-0.0304,-0.0182,-0.0043,0.008,0.0139,0.0128,0.008,0.0,-0.0091,-0.0256,-0.0454,-0.0593,-0.0518,-0.0203,0.0128,0.0459,0.0844,0.1036,0.0966,0.0956,0.1046,0.1078,0.1046,0.1014,0.1004,-0.0828,-0.0822,-0.0828,-0.0833,-0.086,-0.0908,-0.0956,-0.0982,-0.0998,-0.1014,-0.102,-0.1004,-0.0966,-0.0908,-0.0844,-0.078,-0.0715,-0.0641,-0.0555,-0.0459,-0.0379,-0.0331,-0.0326,-0.0304,-0.024,-0.0149,-0.0064,-0.0011,0.0005,0.0,-0.0016,-0.0075,-0.0208,-0.0368,-0.0513,-0.0481,-0.0208,0.0005,0.0406,0.0865,0.1121,0.1361,0.1377,0.1329,0.1356,0.1372,0.1361,-0.1191,-0.1153,-0.1132,-0.1116,-0.11,-0.1084,-0.1078,-0.1073,-0.1084,-0.11,-0.1105,-0.1084,-0.1041,-0.0982,-0.0929,-0.0881,-0.0833,-0.0763,-0.0657,-0.0518,-0.0411,-0.0379,-0.039,-0.0379,-0.0315,-0.0219,-0.0133,-0.008,-0.0059,-0.0059,-0.0059,-0.0085,-0.0166,-0.0283,-0.0411,-0.0529,-0.0529,-0.0262,-0.0053,0.0059,0.0577,0.1057,0.1217,0.1303,0.1383,0.1479,0.1484,-0.1276,-0.1207,-0.1159,-0.1143,-0.1127,-0.11,-0.1073,-0.1068,-0.1095,-0.1132,-0.1164,-0.1169,-0.1132,-0.1073,-0.102,-0.0966,-0.0902,-0.0838,-0.078,-0.0731,-0.0694,-0.0641,-0.0566,-0.0459,-0.0336,-0.0214,-0.0128,-0.0096,-0.0091,-0.008,-0.0075,-0.0091,-0.0133,-0.0214,-0.0331,-0.0475,-0.0614,-0.071,-0.0753,-0.0448,-0.0091,0.0005,0.0534,0.1004,0.1095,0.1233,0.1335,-0.1452,-0.1393,-0.1276,-0.118,-0.1121,-0.1046,-0.0982,-0.0982,-0.1041,-0.1116,-0.1159,-0.1153,-0.1132,-0.1143,-0.1137,-0.1068,-0.0966,-0.0897,-0.0844,-0.079,-0.0726,-0.0662,-0.0587,-0.0481,-0.0352,-0.0224,-0.0144,-0.0117,-0.0112,-0.0085,-0.0053,-0.0043,-0.008,-0.0149,-0.024,-0.0352,-0.047,-0.0614,-0.0737,-0.0801,-0.0849,-0.0571,-0.0101,0.0011,0.047,0.1137,0.134,-0.1906,-0.1954,-0.1778,-0.1442,-0.1159,-0.0961,-0.0902,-0.0982,-0.1105,-0.1196,-0.1297,-0.15,-0.1548,-0.1415,-0.1297,-0.1164,-0.103,-0.0934,-0.0881,-0.0833,-0.078,-0.071,-0.0619,-0.0502,-0.0379,-0.0267,-0.0192,-0.0149,-0.0128,-0.0112,-0.0091,-0.008,-0.0091,-0.0123,-0.0171,-0.0235,-0.031,-0.0384,-0.0454,-0.0507,-0.0491,-0.0395,-0.0384,-0.0288,0.0182,0.0422,0.0475,-0.1452,-0.1484,-0.1538,-0.1671,-0.1644,-0.166,-0.157,-0.1356,-0.1191,-0.11,-0.1212,-0.149,-0.141,-0.1137,-0.126,-0.1191,-0.1111,-0.1025,-0.0956,-0.0897,-0.0828,-0.0747,-0.0646,-0.0529,-0.0454,-0.0395,-0.0336,-0.0283,-0.0251,-0.024,-0.0246,-0.0251,-0.0235,-0.0203,-0.0182,-0.0187,-0.0224,-0.0256,-0.0299,-0.0384,-0.0502,-0.0593,-0.0625,-0.0646,-0.0833,-0.1207,-0.142,0,0,-0.0609,-0.1345,-0.1377,-0.1757,-0.1105,-0.0518,-0.0513,-0.0251,0.0053,0.0198,0,-0.0886,-0.1554,-0.1276,-0.1175,-0.1105,-0.0972,-0.087,-0.0822,-0.0758,-0.0593,-0.0422,-0.0374,-0.0422,-0.0475,-0.047,-0.0422,-0.04,-0.0432,-0.0475,-0.0486,-0.0432,-0.032,-0.0192,-0.0133,-0.0166,-0.0246,-0.0379,-0.0555,-0.0763,-0.1009,-0.1276,-0.1559,-0.1826,-0.2066,-0.0956,-0.1404,-0.1367,-0.094,-0.086,0,0,-0.0304,-0.0796,-0.0529,0.0481,0.1917,0.1586,0.0368,0,0,0,0,0,0,0,0,-0.0005,-0.0021,-0.0085,-0.0256,-0.0534,-0.0817,-0.086,-0.0769,-0.0657,-0.063,-0.0715,-0.0806,-0.0699,-0.0406,-0.0224,-0.0214,-0.0283,-0.0395,-0.055,-0.0742,-0.0913,-0.102,-0.1078,-0.1132,-0.1233,-0.1436,-0.1554,-0.1388,-0.0913,0.0128,0.0641,-0.0214,-0.0486,-0.0187,0,0,0,-0.0304,0.0545,0.1511,0.1201,0.0918,0.0486,0.0214,0.0149,0.0075,0,0,0,0,0,0,0,0.0027,-0.0166,-0.0507,-0.0561,-0.0342,0.0005,-0.0171,-0.039,-0.0379,-0.047,-0.0518,-0.0534,-0.0555,-0.0619,-0.0742,-0.0881,-0.1025,-0.1164,-0.1292,-0.1511,-0.1228,-0.086,-0.0545,-0.0464,-0.0689,-0.0737,-0.0176,0.1036,0.1767,0.1644,0.1041,-0.0192,0.023,0.1212,0.086,0.0454,0.0192,0.0053,0.0117,0.0304,0,0,0,0,0,0,0,0,0,0,0,0,-0.0011,-0.0149,-0.0577,-0.079,-0.0545,-0.0742,-0.0561,-0.0518,-0.0518,-0.0571,-0.0657,-0.0801,-0.0977,-0.1132,0,-0.0117,-0.0139,-0.0005,-0.0011,-0.0048,0,0,0,0,0,-0.0427,-0.0758,0.0246,0.0998,0.0694,0.0256,-0.0171,-0.0331,-0.0358,0,0,0,0,0,0,0,0,0,0,0,0,0,0,0,0,-0.0214,-0.0614,0,0,-0.0144,-0.0171,-0.0208,-0.0331,-0.0438,-0.0561,-0.0651,0,0,0,0.0075,0.0176,0.0203,0,0,0,0,0,-0.063,-0.0678,0.0582,0.1143,0.0801,0.0112,-0.0427,-0.0219,0,0,0,0,0,0,0,0,0,0,0,0,0,0,0,0,0,0,-0.0753,-0.0961,0,0,0,0,0,0,0,-0.0128,0,0,0,0,0,0,0,0,0,0,0,-0.055,-0.0454,0.0897,0.1329,0.0667,-0.031,-0.0918,0,0,0,0,0,0,0,0,0,0,0,0,0,0,0,0,0,0,0,0,-0.0005,0.0091,0.0208,0.0224,0,0,0,0,0,0,0,0,0,0,0,0,0,0,0,0,-0.0673,-0.0251,0.1084,0.11,0.0486,0.0096,0,0,0,0,0,0,0,0,0,0,0,0,0,0,0,0,0,0,0,0,0,0,0.0534,0.0689,0.0529,0.0422,0.0085,0.0096,0,0,0,0,0,0,0,0,0,0,0,0,0,0,-0.0545,0.0619,0.094,0.0374,0.0016,0,0,0,0,0,0,0,0,0,0,0,0,0,0,0,0,0,0,0,0,0,0,0,0,0,0,0.0101,0.0203,0,0,0,0,0,0,0,0,0,0,0,0,0,0,-0.0267,0.0016,0.0651,0.047,0.0192,0,0,0,0,0,0,0,0,0,0,0,0,0,0,0,0,0,0,0,0,0,0,0,0,0,0,0,0,0,0,0,0,0,0,0,0,0,0,0,0,0,0,-0.0336,-0.0427,0.0283,0.0475,0.0203,0,0,0,0,0,0,0,0,0,0,0,0,0,0,0,0,0,0,0,0,0,0,0,0,0,0,0,0,0,0,0,0,0,0,0,0,0,0,0,0,0,0,-0.0486,-0.0059,0.0769,0.0395,0.0101,0,0,0,0,0,0,0,0,0,0,0,0,0,0,0,0,0,0,0,0,0,0,0,0,0,0,0,0,0,0,0,0,0,0,0,0,0,0,0,0,0,0,0,0.047,0.0966,0.047,-0.0048,0,0,0,0,0,0,0,0,0,0,0,0,0,0,0,0,0,0,0,0,0,0,0,0,0,0,0,0,0,0,0,0,0,0,0,0,0,0,0,0,0,0,0,0.0251,-0.0139,-0.0523,-0.0256,0,0,0,0,0,0,0,0,0,0,0,0,0,0,0,0,0,0,0,0,0,0,0,0,0,0,0,0,0,0,0,0,0,0,0,0,0,0,0,0,0,0,0,0,-0.023,-0.0464,0,0,0,0,0,0,0,0,0,0,0,0,0,0,0,0,0,0,0,0,0,0,0,0,0,0,0,0,0,0,0,0,0,0,0,0,0,0,0,0,0,0,0,0,0,0,0,0,0,0,0,0,0,0,0,0,0,0,0,0,0,0,0,0,0,0,0,0,0,0,0,0,0,0,0,0,0,0,0,0,0,0,0,0,0,0,0,0,0,0,0,0,0,0,0,0,0,0,0,0,0,0,0,0,0,0,0,0,0,0,0,0,0,0,0,0,0,0,0,0,0,0,0,0,0,0,0,0,0,0,0,0,0,0,0,0,0,0,0,0,0,0,0,0,0,0,0,0,0,0,0,0,0,0,0,0,0,0,0,0,0,0,0,0,0,0,0,0,0,0,0,0,0,0,0,0,0,0,0,0,0,0,0,0,0,0,0,0,0,0,0,0,0,0,0,0,0,0,0,0,0,0,0,0,0,0,0,0,0,0,0,0,0,0,0,0,0,0,0,0,0,0,0,0,0,0,0,0,0,0,0,0,0,0,0,0,0,0,0,0,0,0,0,0,0,0,0,0,0,0,0,0,0,0,0,0,0,0,0,0,0,0,0,0,0,0,0,0,0,0,0,0,0,0,0,0,0,0,0,0,0,0,0,0,0,0,0,0,0,0,0,0,0,0,0,0,0,0,0,0,0,0,0,0,0,0,0,0,0,0,0,0,0]}],[{"header":{"parameterUnit":"kt","parameterCategory":2,"dx":1,"dy":1,"la1":29.764190673828125,"la2":30.86408042907715,"lo1":-88.46762084960938,"lo2":-86.9344482421875,"nx":47,"ny":34,"refTime":"2022-10-13T00:00:00:Z","depth":"8","parameterNumber":3,"parameterNumberName":"V-component_of_CURRENTS"},"data":[-0.0288,-0.0641,-0.0422,0.0342,0.0972,0.1175,0.11,0.0897,0.0961,0.1116,0.1169,0.1271,0.1442,0.166,0.1676,0.157,0.141,0.1313,0.0886,0.0683,0.0918,0.1025,0.0513,-0.0139,-0.0518,-0.0053,0.0833,0.0982,0.0053,-0.0523,-0.0358,-0.0112,-0.0171,-0.0149,-0.0187,-0.0336,-0.0438,-0.0443,-0.0363,-0.0166,0.0037,0.0203,0.0315,0.04,0.0459,0.0513,0.0571,-0.024,-0.04,-0.0368,0.0048,0.0566,0.087,0.103,0.1132,0.1255,0.1271,0.1281,0.1356,0.1522,0.1607,0.1431,0.1292,0.1249,0.1185,0.0961,0.0822,0.102,0.1046,0.0534,0.0037,-0.0443,-0.0203,0.0347,0.0673,0.0587,0.0176,-0.0149,-0.0037,0.0091,0.0112,0.0144,0.0117,0.0128,0.0171,0.0171,0.0214,0.0304,0.0374,0.0454,0.0502,0.0486,0.0518,0.0603,-0.016,-0.0198,-0.0155,0.0075,0.0475,0.0758,0.1004,0.1164,0.1228,0.1249,0.1271,0.1335,0.1399,0.134,0.1159,0.1127,0.1153,0.11,0.0977,0.0908,0.0961,0.0972,0.071,0.0411,-0.0064,-0.0187,0.016,0.0198,0.0112,0.023,0.0246,0.0155,0.0075,0.0224,0.0235,0.0214,0.0262,0.0342,0.0411,0.0416,0.0448,0.0416,0.0416,0.0352,0.0256,0.0176,0.0256,-0.0091,-0.0059,-0.0032,0.0128,0.0395,0.0625,0.0849,0.102,0.11,0.1148,0.1143,0.1137,0.1121,0.1078,0.1004,0.1046,0.1084,0.1041,0.094,0.0854,0.0817,0.0844,0.0828,0.0747,0.0529,0.0171,0.0117,0.0037,-0.0182,-0.0246,0.0048,0.0352,0.0256,0.0107,0.0048,0.0117,0.0133,0.0208,0.0262,0.0283,0.0283,0.0235,0.0182,0.0059,-0.0037,-0.0133,-0.0059,-0.0016,0.0053,0.0112,0.0203,0.0336,0.0502,0.0673,0.0849,0.0966,0.0993,0.094,0.0913,0.0945,0.095,0.0945,0.0982,0.0998,0.095,0.0865,0.0763,0.0683,0.0689,0.0774,0.0844,0.0865,0.0651,0.032,0.0112,0.0,-0.0224,-0.04,-0.0075,0.0315,0.0342,0.0075,-0.0192,-0.0331,-0.0117,-0.0043,-0.0016,0.0021,0.0027,0.0011,-0.0085,-0.0176,-0.0256,-0.0208,0.0101,0.0171,0.0251,0.0331,0.0411,0.0518,0.063,0.0747,0.0844,0.0876,0.0865,0.087,0.0908,0.0918,0.0913,0.0902,0.0881,0.0833,0.0769,0.0678,0.0593,0.0571,0.0641,0.0747,0.0822,0.0769,0.0491,0.0288,0.023,0.0096,-0.0214,-0.0427,-0.0123,0.0299,0.0331,0.0075,-0.0294,-0.0518,-0.0625,-0.047,-0.0336,-0.0294,-0.0299,-0.0342,-0.04,-0.047,-0.0475,0.0214,0.0267,0.0342,0.0411,0.0486,0.0577,0.0683,0.0774,0.0838,0.0881,0.0902,0.0918,0.0929,0.0913,0.0876,0.0822,0.0774,0.0731,0.0683,0.0625,0.0561,0.0529,0.0534,0.0619,0.0689,0.0651,0.047,0.031,0.0272,0.0283,0.0149,-0.0176,-0.0235,-0.0107,0.0101,0.0363,0.0262,-0.0192,-0.0598,-0.071,-0.0854,-0.0801,-0.0737,-0.0753,-0.0828,-0.0897,-0.0918,0.0246,0.0299,0.0379,0.0454,0.0545,0.0657,0.0769,0.0854,0.0897,0.0929,0.0945,0.0945,0.0934,0.0897,0.0844,0.078,0.0715,0.0651,0.0598,0.0545,0.0518,0.0534,0.0507,0.055,0.0587,0.0555,0.04,0.0256,0.0251,0.0304,0.0288,0.0085,-0.0053,-0.0064,-0.0133,0.0011,0.0267,0.0187,0.0053,-0.0299,-0.071,-0.0876,-0.1004,-0.102,-0.1159,-0.1228,-0.1233,0.0219,0.0288,0.039,0.0481,0.0577,0.0705,0.0828,0.0918,0.0961,0.0972,0.095,0.0929,0.0902,0.0865,0.0817,0.0753,0.0678,0.0577,0.047,0.0395,0.0411,0.0481,0.0507,0.0518,0.0507,0.0464,0.0294,0.0171,0.0203,0.0278,0.0294,0.0198,0.0101,0.0037,-0.0043,-0.0144,-0.0027,0.008,0.0043,0.0037,0.0096,-0.0267,-0.0742,-0.0902,-0.1164,-0.1292,-0.1335,0.0166,0.0278,0.0422,0.0513,0.0587,0.071,0.086,0.0982,0.1041,0.1036,0.0977,0.0908,0.0854,0.0812,0.0763,0.0699,0.0625,0.0502,0.0363,0.0278,0.0294,0.0368,0.0438,0.0427,0.0384,0.032,0.0182,0.0085,0.0133,0.0224,0.0267,0.0235,0.0182,0.0139,0.0064,-0.0064,-0.0155,-0.0075,-0.0139,0.0059,0.0214,0.0155,0.0085,-0.04,-0.0908,-0.1137,-0.1212,0.0149,0.0278,0.0448,0.0561,0.0598,0.0678,0.087,0.1068,0.1169,0.1148,0.1041,0.0918,0.0844,0.0806,0.0667,0.0566,0.0523,0.0432,0.031,0.0219,0.0198,0.0246,0.0288,0.0272,0.0214,0.0144,0.0064,0.0016,0.0053,0.0144,0.0214,0.024,0.0251,0.0246,0.0176,0.0037,-0.0101,-0.0182,-0.016,-0.0107,-0.0133,0.0224,0.0347,-0.0016,-0.0101,-0.0411,-0.0747,0.0117,0.0203,0.04,0.0518,0.0534,0.0619,0.0956,0.1239,0.1361,0.1292,0.1207,0.1121,0.0892,0.0918,0.0534,0.0374,0.0374,0.0336,0.0251,0.0155,0.0101,0.0101,0.0101,0.0085,0.0027,-0.0027,-0.0064,-0.0064,-0.0011,0.0059,0.0144,0.0224,0.0299,0.0331,0.0267,0.0107,-0.0048,-0.0144,-0.0246,-0.0363,-0.0331,-0.0064,-0.0085,0.0064,0.0278,-0.0101,-0.031,0.0043,0.0117,0.047,0.0582,0.0598,0.0593,0.0956,0.1511,0.1538,0.1442,0.1575,0.1479,0.0555,0.0854,0.0432,0.0144,0.0133,0.0166,0.0128,0.0037,-0.0011,-0.0037,-0.0107,-0.0107,-0.0133,-0.0166,-0.0192,-0.0144,-0.0064,0.0005,0.0107,0.0192,0.0288,0.0347,0.0288,0.0133,-0.0032,-0.0144,-0.0219,-0.031,-0.0384,-0.0395,-0.0379,-0.0187,-0.0112,-0.0288,-0.0251,0,0,0.1111,0.094,0.0892,0.055,0.0886,0.181,0.1559,0.1351,0.1634,0.1911,0,0.1863,0.0384,0.0016,-0.0027,0.0053,0.0037,-0.0053,-0.0075,-0.0107,-0.0534,-0.0422,-0.0358,-0.0342,-0.0336,-0.024,-0.0112,-0.0005,0.0128,0.0192,0.0256,0.0278,0.0176,0.0043,-0.0064,-0.0139,-0.0155,-0.0166,-0.0235,-0.032,-0.0395,-0.04,-0.0294,-0.0304,-0.0352,-0.0037,0.0037,0.1377,0.0646,0.1495,0,0,0.1874,0.1698,0.1212,0.1522,0.2072,0.1159,0.2814,0,0,0,0,0,0,0,0,-0.0849,-0.0635,-0.0513,-0.0459,-0.0422,-0.0304,-0.0545,-0.0208,0.0117,0.0224,0.023,0.0198,-0.0155,-0.0283,-0.0171,-0.0133,-0.0053,-0.0011,-0.0043,-0.0133,-0.0235,-0.032,-0.0336,-0.0336,-0.0331,-0.0021,0.0064,0.0822,-0.0107,0.0555,-0.04,-0.0171,0.1671,0.1495,0,0,0,0.1847,0.2344,0.0021,-0.008,-0.0203,-0.0304,-0.0272,-0.0347,-0.0246,0,0,0,0,0,0,0,-0.094,-0.0747,0.0075,0.0251,0.0347,0.0117,-0.0358,-0.0545,-0.023,-0.0096,0.0021,0.0096,0.0059,0.0011,-0.0123,-0.0235,-0.0299,-0.0299,-0.0251,0.0032,-0.0326,0.0283,-0.0379,-0.0902,-0.1014,-0.0336,0.1244,0.1143,0.0,0.0,0.0374,0.1383,0.1676,-0.0101,-0.0326,-0.0497,-0.063,-0.0667,-0.0865,-0.0497,0,0,0,0,0,0,0,0,0,0,0,0,-0.0187,-0.039,-0.04,0.0192,-0.0331,0.0037,-0.0005,-0.0011,0.0059,-0.0059,-0.0117,-0.0171,-0.0208,-0.0192,0,-0.0705,-0.0005,-0.039,-0.0699,-0.0796,0,0,0,0,0,0.0545,0.1105,0.1244,-0.0443,-0.0577,-0.0598,-0.0646,-0.0769,-0.0763,0,0,0,0,0,0,0,0,0,0,0,0,0,0,0,0,0.0144,-0.039,0,0,-0.0091,0.0037,-0.0064,-0.0075,-0.0096,-0.0144,-0.024,0,0,0,-0.0342,-0.0358,-0.0368,0,0,0,0,0,0.0288,0.0924,0.0956,-0.0651,-0.0721,-0.0721,-0.0726,-0.0747,0,0,0,0,0,0,0,0,0,0,0,0,0,0,0,0,0,0,-0.0187,-0.0187,0,0,0,0,0,0,0,-0.0331,0,0,0,0,0,0,0,0,0,0,0,0.0288,0.0897,0.0886,-0.071,-0.0801,-0.0838,-0.0796,0,0,0,0,0,0,0,0,0,0,0,0,0,0,0,0,0,0,0,0,-0.0368,0.0,0.0064,0.0112,0,0,0,0,0,0,0,0,0,0,0,0,0,0,0,0,0.0577,0.0993,0.0587,-0.0817,-0.0833,-0.0753,0,0,0,0,0,0,0,0,0,0,0,0,0,0,0,0,0,0,0,0,0,0,0.0005,0.0133,0.0219,0.0,-0.0182,-0.0117,0,0,0,0,0,0,0,0,0,0,0,0,0,0,0.1062,0.0577,-0.079,-0.0844,-0.0726,0,0,0,0,0,0,0,0,0,0,0,0,0,0,0,0,0,0,0,0,0,0,0,0,0,0,-0.0363,-0.0235,0,0,0,0,0,0,0,0,0,0,0,0,0,0,0.0801,0.0924,-0.0518,-0.071,-0.0657,0,0,0,0,0,0,0,0,0,0,0,0,0,0,0,0,0,0,0,0,0,0,0,0,0,0,0,0,0,0,0,0,0,0,0,0,0,0,0,0,0,0,0.0673,0.0459,-0.0384,-0.0464,-0.0326,0,0,0,0,0,0,0,0,0,0,0,0,0,0,0,0,0,0,0,0,0,0,0,0,0,0,0,0,0,0,0,0,0,0,0,0,0,0,0,0,0,0,0.0667,0.071,-0.016,-0.0278,-0.0021,0,0,0,0,0,0,0,0,0,0,0,0,0,0,0,0,0,0,0,0,0,0,0,0,0,0,0,0,0,0,0,0,0,0,0,0,0,0,0,0,0,0,0,0.1127,0.0438,0.016,0.024,0,0,0,0,0,0,0,0,0,0,0,0,0,0,0,0,0,0,0,0,0,0,0,0,0,0,0,0,0,0,0,0,0,0,0,0,0,0,0,0,0,0,0,0.0657,0.0251,0.04,0.04,0,0,0,0,0,0,0,0,0,0,0,0,0,0,0,0,0,0,0,0,0,0,0,0,0,0,0,0,0,0,0,0,0,0,0,0,0,0,0,0,0,0,0,0,-0.0267,0.0278,0,0,0,0,0,0,0,0,0,0,0,0,0,0,0,0,0,0,0,0,0,0,0,0,0,0,0,0,0,0,0,0,0,0,0,0,0,0,0,0,0,0,0,0,0,0,0,0,0,0,0,0,0,0,0,0,0,0,0,0,0,0,0,0,0,0,0,0,0,0,0,0,0,0,0,0,0,0,0,0,0,0,0,0,0,0,0,0,0,0,0,0,0,0,0,0,0,0,0,0,0,0,0,0,0,0,0,0,0,0,0,0,0,0,0,0,0,0,0,0,0,0,0,0,0,0,0,0,0,0,0,0,0,0,0,0,0,0,0,0,0,0,0,0,0,0,0,0,0,0,0,0,0,0,0,0,0,0,0,0,0,0,0,0,0,0,0,0,0,0,0,0,0,0,0,0,0,0,0,0,0,0,0,0,0,0,0,0,0,0,0,0,0,0,0,0,0,0,0,0,0,0,0,0,0,0,0,0,0,0,0,0,0,0,0,0,0,0,0,0,0,0,0,0,0,0,0,0,0,0,0,0,0,0,0,0,0,0,0,0,0,0,0,0,0,0,0,0,0,0,0,0,0,0,0,0,0,0,0,0,0,0,0,0,0,0,0,0,0,0,0,0,0,0,0,0,0,0,0,0,0,0,0,0,0,0,0,0,0,0,0,0,0,0,0,0,0,0,0,0,0,0,0,0,0,0,0,0,0,0,0,0,0]}]],[[{"header":{"parameterUnit":"kt","parameterCategory":2,"dx":1,"dy":1,"la1":29.764190673828125,"la2":30.86408042907715,"lo1":-88.46762084960938,"lo2":-86.9344482421875,"nx":47,"ny":34,"refTime":"2022-10-13T00:00:00:Z","depth":"10","parameterNumber":2,"parameterNumberName":"U-component_of_CURRENTS"},"data":[0.0171,0.0075,-0.0107,0.008,0.0571,0.0982,0.1228,0.1175,0.0774,0.0347,0.0043,-0.0256,-0.0529,-0.0726,-0.0758,-0.0561,-0.032,-0.0176,-0.0139,-0.0219,-0.0422,-0.0715,-0.0865,-0.0913,-0.0993,-0.0988,-0.0753,-0.023,0.04,0.0374,-0.0256,-0.0438,-0.0262,-0.0187,-0.0128,-0.0096,-0.0128,-0.0198,-0.0267,-0.0272,-0.0149,0.0096,0.0443,0.0897,0.1452,0.1981,0.2301,-0.0246,-0.0347,-0.04,-0.0427,-0.0294,-0.0048,0.0128,0.0128,0.0005,-0.0155,-0.0379,-0.0577,-0.0699,-0.0726,-0.0593,-0.0384,-0.024,-0.0139,-0.0107,-0.0219,-0.0411,-0.0529,-0.063,-0.0849,-0.1159,-0.1335,-0.1372,-0.1276,-0.0763,-0.0053,0.0005,-0.0395,-0.0481,-0.0374,-0.032,-0.024,-0.0091,0.0064,0.0198,0.0326,0.0486,0.0721,0.1025,0.1324,0.1527,0.1623,0.1682,-0.0288,-0.0411,-0.0603,-0.0705,-0.0646,-0.0518,-0.0384,-0.0331,-0.0395,-0.0529,-0.0625,-0.0662,-0.0641,-0.0513,-0.0342,-0.024,-0.0187,-0.0155,-0.0144,-0.0139,-0.0123,-0.0123,-0.024,-0.055,-0.1041,-0.1495,-0.165,-0.1618,-0.1527,-0.1105,-0.039,-0.0101,-0.0299,-0.0358,-0.0294,-0.0224,-0.0059,0.0176,0.0443,0.0662,0.0817,0.0929,0.0977,0.0966,0.0961,0.1052,0.1233,-0.0315,-0.0406,-0.0529,-0.0662,-0.0726,-0.0683,-0.0651,-0.0662,-0.0705,-0.0742,-0.0726,-0.063,-0.0481,-0.0336,-0.0251,-0.0219,-0.0208,-0.0182,-0.0155,-0.0112,-0.0032,0.0069,0.0075,-0.0085,-0.0422,-0.0998,-0.1452,-0.1506,-0.1447,-0.141,-0.1164,-0.0555,0.0,0.0032,-0.0166,-0.0112,0.0027,0.023,0.0513,0.0715,0.0833,0.086,0.0833,0.0817,0.0865,0.0993,0.1191,-0.0251,-0.0347,-0.0481,-0.063,-0.0758,-0.0854,-0.0886,-0.087,-0.0806,-0.0699,-0.0587,-0.0491,-0.0432,-0.039,-0.0374,-0.0352,-0.0304,-0.0235,-0.0171,-0.0112,-0.0053,0.0027,0.0107,0.0133,0.0075,-0.0123,-0.0416,-0.0603,-0.0731,-0.0929,-0.1084,-0.0998,-0.0571,0.0,0.0315,0.0304,0.0182,0.0208,0.039,0.0598,0.0812,0.0908,0.0929,0.0929,0.095,0.1004,0.1132,-0.0208,-0.0331,-0.0438,-0.0545,-0.0635,-0.0699,-0.0731,-0.0721,-0.0673,-0.0619,-0.0593,-0.0603,-0.0619,-0.0614,-0.0577,-0.0518,-0.0432,-0.0347,-0.0267,-0.0219,-0.0198,-0.0166,-0.0091,0.0011,0.0117,0.0166,0.0117,0.0016,-0.0069,-0.0171,-0.039,-0.0678,-0.0747,-0.0518,-0.0128,0.0294,0.0582,0.0614,0.047,0.0491,0.0705,0.0881,0.095,0.0945,0.0924,0.0902,0.094,-0.0347,-0.0411,-0.0464,-0.0518,-0.0571,-0.0641,-0.0705,-0.0763,-0.0801,-0.0822,-0.0844,-0.0849,-0.0838,-0.0796,-0.0731,-0.0657,-0.0571,-0.0497,-0.0438,-0.0411,-0.0406,-0.0379,-0.0304,-0.0182,-0.0043,0.008,0.0139,0.0123,0.0069,-0.0011,-0.0101,-0.0272,-0.0475,-0.0603,-0.0529,-0.0208,0.0123,0.0448,0.0833,0.1025,0.0956,0.095,0.1041,0.1068,0.1036,0.1009,0.0998,-0.0833,-0.0828,-0.0828,-0.0838,-0.086,-0.0902,-0.095,-0.0982,-0.0998,-0.1014,-0.1014,-0.0998,-0.0961,-0.0902,-0.0844,-0.078,-0.0715,-0.0641,-0.0555,-0.0464,-0.0384,-0.0336,-0.0326,-0.0304,-0.024,-0.0149,-0.0069,-0.0016,-0.0005,-0.0011,-0.0027,-0.0091,-0.023,-0.0384,-0.0523,-0.0491,-0.0214,0.0,0.04,0.0854,0.1111,0.1351,0.1367,0.1319,0.1345,0.1361,0.1351,-0.1196,-0.1159,-0.1132,-0.1116,-0.11,-0.1084,-0.1073,-0.1068,-0.1078,-0.1095,-0.11,-0.1078,-0.1036,-0.0977,-0.0924,-0.0876,-0.0833,-0.0769,-0.0657,-0.0523,-0.0422,-0.0384,-0.039,-0.0379,-0.0315,-0.0224,-0.0139,-0.0085,-0.0064,-0.0064,-0.0064,-0.0096,-0.0182,-0.0299,-0.0427,-0.0539,-0.0534,-0.0272,-0.0059,0.0053,0.0566,0.1046,0.1207,0.1287,0.1372,0.1468,0.1479,-0.1276,-0.1207,-0.1164,-0.1143,-0.1127,-0.1095,-0.1068,-0.1062,-0.1084,-0.1127,-0.1159,-0.1159,-0.1121,-0.1068,-0.1014,-0.0961,-0.0897,-0.0838,-0.0785,-0.0737,-0.0699,-0.0641,-0.0566,-0.0459,-0.0336,-0.0214,-0.0133,-0.0101,-0.0091,-0.0085,-0.008,-0.0096,-0.0144,-0.023,-0.0347,-0.0486,-0.0625,-0.0715,-0.0758,-0.0464,-0.0107,-0.0011,0.0502,0.0966,0.1073,0.1217,0.1324,-0.1447,-0.1393,-0.1276,-0.118,-0.1116,-0.1041,-0.0977,-0.0972,-0.103,-0.1105,-0.1148,-0.1148,-0.1127,-0.1137,-0.1132,-0.1062,-0.0966,-0.0897,-0.0844,-0.079,-0.0726,-0.0662,-0.0582,-0.0481,-0.0352,-0.023,-0.0149,-0.0123,-0.0112,-0.0085,-0.0053,-0.0048,-0.0085,-0.016,-0.0256,-0.0363,-0.0481,-0.0619,-0.0742,-0.0806,-0.086,-0.0614,-0.0166,-0.0043,0.0395,0.103,0.1244,-0.1618,-0.1543,-0.157,-0.1436,-0.1159,-0.0956,-0.0897,-0.0977,-0.1095,-0.118,-0.1271,-0.1313,-0.1249,-0.1271,-0.1281,-0.1153,-0.102,-0.0929,-0.087,-0.0828,-0.0769,-0.0705,-0.0614,-0.0497,-0.0379,-0.0272,-0.0198,-0.0155,-0.0133,-0.0117,-0.0091,-0.0085,-0.0096,-0.0133,-0.0187,-0.0251,-0.032,-0.039,-0.0459,-0.0513,-0.0502,-0.0416,-0.0422,-0.0368,0.0048,0.0283,0.0342,-0.0892,-0.0838,-0.1185,-0.1644,-0.1591,-0.1532,-0.1436,-0.1255,-0.1143,-0.1062,-0.1111,-0.1271,-0.1233,-0.1046,-0.1196,-0.1143,-0.1068,-0.0988,-0.0913,-0.086,-0.0806,-0.0737,-0.0635,-0.0523,-0.0443,-0.039,-0.0342,-0.0288,-0.0256,-0.0246,-0.0251,-0.0256,-0.0235,-0.0208,-0.0192,-0.0198,-0.0235,-0.0267,-0.0304,-0.039,-0.0513,-0.0598,-0.0641,-0.0678,-0.0865,-0.1249,-0.149,0,0,-0.0539,-0.118,-0.1143,-0.0817,-0.0464,0.0064,-0.0395,-0.023,0.0043,0.0171,0,-0.0801,-0.1393,-0.1137,-0.1068,-0.1004,-0.0881,-0.0796,-0.0758,-0.0705,-0.0555,-0.039,-0.0342,-0.0379,-0.0448,-0.047,-0.0427,-0.0406,-0.0438,-0.0481,-0.0491,-0.0438,-0.0326,-0.0203,-0.0144,-0.0171,-0.0251,-0.0384,-0.0566,-0.0774,-0.1014,-0.1271,-0.1543,-0.1815,-0.2061,-0.0892,-0.1271,-0.1175,-0.0715,-0.0609,0,0,-0.0278,-0.0737,-0.0491,0.0443,0.1714,0.1377,0.0278,0,0,0,0,0,0,0,0,0.0,-0.0016,-0.0069,-0.0224,-0.0432,-0.0555,-0.0475,-0.063,-0.0646,-0.0614,-0.063,-0.0651,-0.0625,-0.0427,-0.0235,-0.0219,-0.0288,-0.04,-0.0555,-0.0747,-0.0918,-0.102,-0.1073,-0.1127,-0.1228,-0.1308,-0.1388,-0.1137,-0.0566,0.0246,0.0571,-0.0187,-0.0464,-0.0187,0,0,0,-0.0299,0.0464,0.1393,0.1137,0.0876,0.0464,0.0198,0.0128,0.0075,0,0,0,0,0,0,0,0.0032,0.0133,-0.0133,-0.0326,0.0032,0.0214,-0.0053,-0.039,-0.0395,-0.047,-0.0518,-0.0539,-0.0561,-0.0625,-0.0747,-0.0886,-0.1025,-0.1159,-0.1281,-0.1372,-0.1116,-0.0726,-0.0272,-0.0101,-0.0326,-0.0481,-0.0117,0.0897,0.1506,0.1399,0.0812,-0.0272,0.0214,0.1137,0.0812,0.0427,0.0182,0.0043,0.0107,0.0288,0,0,0,0,0,0,0,0,0,0,0,0,0.0,-0.0235,-0.0513,-0.0502,-0.032,-0.0406,-0.0545,-0.0518,-0.0518,-0.0577,-0.0662,-0.0801,-0.0972,-0.1127,0,-0.0117,-0.0139,-0.0005,-0.0005,-0.0048,0,0,0,0,0,-0.0368,-0.0683,0.0144,0.0812,0.0598,0.0235,-0.0139,-0.0262,-0.0272,0,0,0,0,0,0,0,0,0,0,0,0,0,0,0,0,-0.0523,-0.0619,0,0,-0.0144,-0.0166,-0.0203,-0.032,-0.0432,-0.0545,-0.0641,0,0,0,0.0075,0.0176,0.0198,0,0,0,0,0,-0.0555,-0.0758,0.0107,0.0694,0.0619,0.0101,-0.0288,-0.0155,0,0,0,0,0,0,0,0,0,0,0,0,0,0,0,0,0,0,-0.0785,-0.0854,0,0,0,0,0,0,0,-0.0123,0,0,0,0,0,0,0,0,0,0,0,-0.0507,-0.0737,0.0117,0.0731,0.0502,-0.0149,-0.0534,0,0,0,0,0,0,0,0,0,0,0,0,0,0,0,0,0,0,0,0,-0.0096,-0.0016,0.0192,0.0224,0,0,0,0,0,0,0,0,0,0,0,0,0,0,0,0,-0.0587,-0.0539,0.0352,0.0641,0.0358,0.0043,0,0,0,0,0,0,0,0,0,0,0,0,0,0,0,0,0,0,0,0,0,0,-0.0117,-0.0128,0.0208,0.0299,0.0123,0.0091,0,0,0,0,0,0,0,0,0,0,0,0,0,0,-0.0593,0.0304,0.0667,0.0315,0.0005,0,0,0,0,0,0,0,0,0,0,0,0,0,0,0,0,0,0,0,0,0,0,0,0,0,0,0.0101,0.0198,0,0,0,0,0,0,0,0,0,0,0,0,0,0,-0.023,-0.0011,0.0529,0.0374,0.0133,0,0,0,0,0,0,0,0,0,0,0,0,0,0,0,0,0,0,0,0,0,0,0,0,0,0,0,0,0,0,0,0,0,0,0,0,0,0,0,0,0,0,-0.031,-0.0347,0.0251,0.0342,0.0107,0,0,0,0,0,0,0,0,0,0,0,0,0,0,0,0,0,0,0,0,0,0,0,0,0,0,0,0,0,0,0,0,0,0,0,0,0,0,0,0,0,0,-0.0443,-0.0246,0.047,0.0278,0.0005,0,0,0,0,0,0,0,0,0,0,0,0,0,0,0,0,0,0,0,0,0,0,0,0,0,0,0,0,0,0,0,0,0,0,0,0,0,0,0,0,0,0,0,0.0198,0.0448,0.0123,-0.0251,0,0,0,0,0,0,0,0,0,0,0,0,0,0,0,0,0,0,0,0,0,0,0,0,0,0,0,0,0,0,0,0,0,0,0,0,0,0,0,0,0,0,0,0.0128,-0.0139,-0.0368,-0.0198,0,0,0,0,0,0,0,0,0,0,0,0,0,0,0,0,0,0,0,0,0,0,0,0,0,0,0,0,0,0,0,0,0,0,0,0,0,0,0,0,0,0,0,0,-0.0224,-0.0448,0,0,0,0,0,0,0,0,0,0,0,0,0,0,0,0,0,0,0,0,0,0,0,0,0,0,0,0,0,0,0,0,0,0,0,0,0,0,0,0,0,0,0,0,0,0,0,0,0,0,0,0,0,0,0,0,0,0,0,0,0,0,0,0,0,0,0,0,0,0,0,0,0,0,0,0,0,0,0,0,0,0,0,0,0,0,0,0,0,0,0,0,0,0,0,0,0,0,0,0,0,0,0,0,0,0,0,0,0,0,0,0,0,0,0,0,0,0,0,0,0,0,0,0,0,0,0,0,0,0,0,0,0,0,0,0,0,0,0,0,0,0,0,0,0,0,0,0,0,0,0,0,0,0,0,0,0,0,0,0,0,0,0,0,0,0,0,0,0,0,0,0,0,0,0,0,0,0,0,0,0,0,0,0,0,0,0,0,0,0,0,0,0,0,0,0,0,0,0,0,0,0,0,0,0,0,0,0,0,0,0,0,0,0,0,0,0,0,0,0,0,0,0,0,0,0,0,0,0,0,0,0,0,0,0,0,0,0,0,0,0,0,0,0,0,0,0,0,0,0,0,0,0,0,0,0,0,0,0,0,0,0,0,0,0,0,0,0,0,0,0,0,0,0,0,0,0,0,0,0,0,0,0,0,0,0,0,0,0,0,0,0,0,0,0,0,0,0,0,0,0,0,0,0,0,0,0,0,0,0,0,0,0]}],[{"header":{"parameterUnit":"kt","parameterCategory":2,"dx":1,"dy":1,"la1":29.764190673828125,"la2":30.86408042907715,"lo1":-88.46762084960938,"lo2":-86.9344482421875,"nx":47,"ny":34,"refTime":"2022-10-13T00:00:00:Z","depth":"10","parameterNumber":3,"parameterNumberName":"V-component_of_CURRENTS"},"data":[-0.031,-0.0683,-0.047,0.0315,0.0956,0.1164,0.1078,0.0886,0.095,0.1111,0.1169,0.1265,0.1436,0.166,0.1676,0.1564,0.1404,0.1308,0.0881,0.0673,0.0913,0.102,0.0507,-0.0139,-0.0518,-0.0059,0.0806,0.0918,-0.0021,-0.0603,-0.0416,-0.0208,-0.0304,-0.0342,-0.0358,-0.0459,-0.0518,-0.0507,-0.0411,-0.0208,-0.0011,0.016,0.0278,0.0368,0.0427,0.0475,0.0539,-0.0246,-0.0411,-0.04,0.0021,0.055,0.086,0.102,0.1127,0.1249,0.1265,0.1276,0.1356,0.1522,0.1602,0.142,0.1287,0.1244,0.118,0.095,0.0817,0.1014,0.1041,0.0534,0.0037,-0.0443,-0.0203,0.0342,0.0657,0.0561,0.0133,-0.0187,-0.008,0.0037,0.0032,0.0059,0.0043,0.0059,0.0096,0.0117,0.016,0.0256,0.0326,0.0411,0.0464,0.0454,0.0486,0.0582,-0.016,-0.0198,-0.016,0.0064,0.0464,0.0753,0.0998,0.1159,0.1223,0.1244,0.1265,0.1329,0.1393,0.1335,0.1153,0.1116,0.1143,0.1089,0.0966,0.0902,0.0956,0.0966,0.0705,0.0406,-0.0059,-0.0182,0.0166,0.0198,0.0107,0.0219,0.0219,0.0117,0.0043,0.0182,0.0192,0.0166,0.0208,0.0278,0.0352,0.0363,0.04,0.0379,0.0374,0.032,0.023,0.0155,0.024,-0.0091,-0.0059,-0.0032,0.0128,0.039,0.0625,0.0844,0.1014,0.1095,0.1143,0.1137,0.1132,0.1116,0.1068,0.0993,0.1036,0.1078,0.103,0.0934,0.0849,0.0812,0.0838,0.0817,0.0737,0.0523,0.0176,0.0128,0.0043,-0.0176,-0.024,0.0037,0.032,0.0224,0.0069,0.0021,0.0091,0.0096,0.0171,0.0219,0.0246,0.0246,0.0203,0.0155,0.0032,-0.0059,-0.0155,-0.008,-0.0016,0.0048,0.0112,0.0203,0.0331,0.0497,0.0667,0.0844,0.0961,0.0988,0.0934,0.0902,0.0934,0.0945,0.0934,0.0977,0.0988,0.0945,0.086,0.0758,0.0673,0.0683,0.0763,0.0833,0.0854,0.0646,0.032,0.0117,0.0,-0.0214,-0.0395,-0.0085,0.0288,0.0304,0.0043,-0.0224,-0.0358,-0.0149,-0.0069,-0.0043,-0.0005,0.0005,-0.0011,-0.0107,-0.0198,-0.0278,-0.023,0.0096,0.0166,0.0246,0.0326,0.0406,0.0513,0.0625,0.0742,0.0838,0.087,0.086,0.0865,0.0902,0.0913,0.0908,0.0897,0.0876,0.0828,0.0763,0.0673,0.0587,0.0566,0.0635,0.0742,0.0817,0.0758,0.0481,0.0278,0.0224,0.0096,-0.0208,-0.0427,-0.0133,0.0278,0.0299,0.0037,-0.032,-0.0545,-0.0651,-0.0491,-0.0363,-0.0315,-0.032,-0.0363,-0.0422,-0.0497,-0.0497,0.0208,0.0262,0.0336,0.0406,0.0481,0.0571,0.0673,0.0769,0.0833,0.0876,0.0897,0.0913,0.0924,0.0908,0.087,0.0817,0.0769,0.0726,0.0678,0.0614,0.0555,0.0523,0.0529,0.0614,0.0683,0.0641,0.0459,0.0299,0.0262,0.0272,0.0139,-0.0182,-0.0235,-0.0112,0.008,0.0331,0.023,-0.0224,-0.0625,-0.0737,-0.0881,-0.0828,-0.0758,-0.0774,-0.0854,-0.0924,-0.094,0.024,0.0294,0.0374,0.0448,0.0539,0.0651,0.0763,0.0849,0.0897,0.0924,0.094,0.094,0.0924,0.0892,0.0838,0.0769,0.071,0.0646,0.0587,0.0534,0.0502,0.0507,0.0491,0.0539,0.0577,0.0539,0.039,0.024,0.023,0.0288,0.0272,0.0075,-0.0059,-0.0075,-0.0144,-0.0011,0.024,0.0155,0.0016,-0.0336,-0.0742,-0.0908,-0.1036,-0.1052,-0.1185,-0.1255,-0.126,0.0219,0.0288,0.0384,0.0475,0.0571,0.0699,0.0822,0.0913,0.0956,0.0966,0.0945,0.0918,0.0892,0.086,0.0812,0.0742,0.0667,0.0566,0.0459,0.0379,0.0379,0.0448,0.0486,0.0497,0.0491,0.0443,0.0278,0.0149,0.0182,0.0256,0.0272,0.0187,0.0091,0.0032,-0.0053,-0.0155,-0.0048,0.0053,0.0005,0.0,0.0059,-0.0304,-0.0785,-0.0945,-0.1196,-0.1324,-0.1367,0.0171,0.0283,0.0416,0.0507,0.0582,0.0699,0.0849,0.0972,0.1036,0.1025,0.0966,0.0902,0.0844,0.0801,0.0747,0.0683,0.0609,0.0481,0.0342,0.0256,0.0267,0.0347,0.0416,0.0406,0.0363,0.0299,0.016,0.0064,0.0107,0.0203,0.0246,0.0219,0.0171,0.0128,0.0053,-0.0075,-0.0171,-0.0096,-0.0166,0.0011,0.0149,0.0101,0.0,-0.0481,-0.0966,-0.1175,-0.1249,0.016,0.0283,0.0448,0.0555,0.0587,0.0673,0.0865,0.1052,0.1153,0.1132,0.1025,0.0902,0.0828,0.0785,0.0646,0.0545,0.0502,0.0406,0.0288,0.0203,0.0182,0.0224,0.0267,0.0251,0.0192,0.0123,0.0048,0.0,0.0032,0.0123,0.0192,0.0219,0.0235,0.023,0.0166,0.0032,-0.0112,-0.0198,-0.0182,-0.0149,-0.0214,0.0117,0.0139,-0.0198,-0.0288,-0.0555,-0.0865,0.0101,0.0192,0.0507,0.0518,0.0534,0.0619,0.0945,0.1217,0.134,0.1265,0.1185,0.0998,0.0657,0.0737,0.0513,0.0342,0.0347,0.031,0.023,0.0139,0.008,0.0085,0.0085,0.0069,0.0016,-0.0037,-0.0075,-0.0069,-0.0027,0.0043,0.0128,0.0203,0.0283,0.0315,0.0251,0.0096,-0.0059,-0.0155,-0.0256,-0.0379,-0.0358,-0.0149,-0.0251,-0.0182,-0.0075,-0.0432,-0.0587,0.0016,0.0096,0.0566,0.0577,0.0582,0.0534,0.095,0.1575,0.1506,0.141,0.149,0.1255,0.0432,0.0742,0.0384,0.0107,0.0101,0.0139,0.0101,0.0016,-0.0032,-0.0059,-0.0123,-0.0123,-0.0139,-0.0171,-0.0192,-0.0144,-0.0064,0.0,0.0096,0.0182,0.0272,0.0331,0.0272,0.0117,-0.0048,-0.0155,-0.023,-0.0326,-0.0395,-0.0422,-0.0422,-0.0347,-0.0352,-0.0518,-0.0454,0,0,0.0982,0.0828,0.078,0.024,0.071,0.1276,0.141,0.1287,0.1516,0.1703,0,0.166,0.0336,-0.0016,-0.0053,0.0027,0.0016,-0.0069,-0.0091,-0.0128,-0.0529,-0.0422,-0.0358,-0.0336,-0.0331,-0.024,-0.0107,0.0,0.0128,0.0192,0.0251,0.0267,0.0166,0.0021,-0.008,-0.0155,-0.0166,-0.0182,-0.0246,-0.0331,-0.0406,-0.0432,-0.0342,-0.0342,-0.0374,-0.0032,0.0032,0.1175,0.0694,0.103,0,0,0.1607,0.157,0.1164,0.1431,0.1863,0.1004,0.2456,0,0,0,0,0,0,0,0,-0.0822,-0.0619,-0.0507,-0.0448,-0.0411,-0.0304,-0.0555,-0.031,0.0128,0.0246,0.0315,0.032,-0.0064,-0.0272,-0.0192,-0.0144,-0.0064,-0.0021,-0.0048,-0.0139,-0.024,-0.032,-0.0347,-0.0347,-0.0336,-0.0021,0.0053,0.0678,0.0037,0.0411,-0.0235,-0.0059,0.149,0.1393,0,0,0,0.1559,0.205,0.0027,-0.0069,-0.0187,-0.0283,-0.0256,-0.0331,-0.0246,0,0,0,0,0,0,0,-0.0897,-0.0731,0.0085,0.0342,0.0545,0.0203,0.0117,-0.039,-0.0235,-0.0101,0.0011,0.0091,0.0053,0.0005,-0.0123,-0.0235,-0.0304,-0.0304,-0.0262,0.0021,-0.0315,0.0214,-0.039,-0.0603,-0.0758,-0.0117,0.1137,0.1073,0.0,0.0,0.031,0.1025,0.1452,-0.0085,-0.0283,-0.0443,-0.0571,-0.0614,-0.0796,-0.0486,0,0,0,0,0,0,0,0,0,0,0,0,-0.0171,0.0149,-0.0064,-0.0107,-0.0251,0.0027,-0.0016,-0.0016,0.0043,-0.0069,-0.0123,-0.0176,-0.0208,-0.0198,0,-0.0667,-0.0027,-0.0395,-0.0625,-0.071,0,0,0,0,0,0.047,0.0753,0.0961,-0.0326,-0.0443,-0.0454,-0.0491,-0.0625,-0.0689,0,0,0,0,0,0,0,0,0,0,0,0,0,0,0,0,-0.0027,-0.0256,0,0,-0.0107,0.0011,-0.0085,-0.0085,-0.0107,-0.0149,-0.0251,0,0,0,-0.0331,-0.0352,-0.0363,0,0,0,0,0,0.0267,0.0454,0.0443,-0.0358,-0.0427,-0.0342,-0.0374,-0.0529,0,0,0,0,0,0,0,0,0,0,0,0,0,0,0,0,0,0,-0.008,-0.0171,0,0,0,0,0,0,0,-0.0352,0,0,0,0,0,0,0,0,0,0,0,0.0278,0.0219,0.0182,-0.0299,-0.04,-0.0294,-0.0342,0,0,0,0,0,0,0,0,0,0,0,0,0,0,0,0,0,0,0,0,-0.0336,0.0262,0.0203,0.0107,0,0,0,0,0,0,0,0,0,0,0,0,0,0,0,0,0.055,0.0416,0.0021,-0.0411,-0.0502,-0.032,0,0,0,0,0,0,0,0,0,0,0,0,0,0,0,0,0,0,0,0,0,0,0.0523,0.0411,0.0219,0.0,-0.0176,-0.0117,0,0,0,0,0,0,0,0,0,0,0,0,0,0,0.0769,0.0251,-0.0502,-0.0619,-0.0384,0,0,0,0,0,0,0,0,0,0,0,0,0,0,0,0,0,0,0,0,0,0,0,0,0,0,-0.0352,-0.024,0,0,0,0,0,0,0,0,0,0,0,0,0,0,0.0726,0.0646,-0.0315,-0.0507,-0.0288,0,0,0,0,0,0,0,0,0,0,0,0,0,0,0,0,0,0,0,0,0,0,0,0,0,0,0,0,0,0,0,0,0,0,0,0,0,0,0,0,0,0,0.0651,0.0491,-0.0096,-0.0283,-0.0069,0,0,0,0,0,0,0,0,0,0,0,0,0,0,0,0,0,0,0,0,0,0,0,0,0,0,0,0,0,0,0,0,0,0,0,0,0,0,0,0,0,0,0.0651,0.0438,0.0091,-0.0139,0.0091,0,0,0,0,0,0,0,0,0,0,0,0,0,0,0,0,0,0,0,0,0,0,0,0,0,0,0,0,0,0,0,0,0,0,0,0,0,0,0,0,0,0,0,0.0577,0.0427,0.0075,0.0267,0,0,0,0,0,0,0,0,0,0,0,0,0,0,0,0,0,0,0,0,0,0,0,0,0,0,0,0,0,0,0,0,0,0,0,0,0,0,0,0,0,0,0,0.0534,0.0182,0.0224,0.0374,0,0,0,0,0,0,0,0,0,0,0,0,0,0,0,0,0,0,0,0,0,0,0,0,0,0,0,0,0,0,0,0,0,0,0,0,0,0,0,0,0,0,0,0,-0.0262,0.024,0,0,0,0,0,0,0,0,0,0,0,0,0,0,0,0,0,0,0,0,0,0,0,0,0,0,0,0,0,0,0,0,0,0,0,0,0,0,0,0,0,0,0,0,0,0,0,0,0,0,0,0,0,0,0,0,0,0,0,0,0,0,0,0,0,0,0,0,0,0,0,0,0,0,0,0,0,0,0,0,0,0,0,0,0,0,0,0,0,0,0,0,0,0,0,0,0,0,0,0,0,0,0,0,0,0,0,0,0,0,0,0,0,0,0,0,0,0,0,0,0,0,0,0,0,0,0,0,0,0,0,0,0,0,0,0,0,0,0,0,0,0,0,0,0,0,0,0,0,0,0,0,0,0,0,0,0,0,0,0,0,0,0,0,0,0,0,0,0,0,0,0,0,0,0,0,0,0,0,0,0,0,0,0,0,0,0,0,0,0,0,0,0,0,0,0,0,0,0,0,0,0,0,0,0,0,0,0,0,0,0,0,0,0,0,0,0,0,0,0,0,0,0,0,0,0,0,0,0,0,0,0,0,0,0,0,0,0,0,0,0,0,0,0,0,0,0,0,0,0,0,0,0,0,0,0,0,0,0,0,0,0,0,0,0,0,0,0,0,0,0,0,0,0,0,0,0,0,0,0,0,0,0,0,0,0,0,0,0,0,0,0,0,0,0,0,0,0,0,0,0,0,0,0,0,0,0,0,0,0,0,0,0]}]],[[{"header":{"parameterUnit":"kt","parameterCategory":2,"dx":1,"dy":1,"la1":29.764190673828125,"la2":30.86408042907715,"lo1":-88.46762084960938,"lo2":-86.9344482421875,"nx":47,"ny":34,"refTime":"2022-10-13T00:00:00:Z","depth":"12","parameterNumber":2,"parameterNumberName":"U-component_of_CURRENTS"},"data":[0.0144,0.0027,-0.016,0.0048,0.0555,0.0972,0.1212,0.1159,0.0763,0.0347,0.0043,-0.0256,-0.0529,-0.0726,-0.0753,-0.0555,-0.032,-0.0176,-0.0144,-0.0224,-0.0427,-0.0721,-0.0865,-0.0918,-0.1009,-0.0998,-0.0758,-0.0235,0.0368,0.0331,-0.0272,-0.0448,-0.0299,-0.024,-0.0171,-0.0112,-0.0133,-0.0203,-0.0278,-0.0283,-0.016,0.0085,0.0432,0.0881,0.1436,0.1965,0.2285,-0.0251,-0.0358,-0.0422,-0.0454,-0.031,-0.0064,0.0117,0.0123,0.0005,-0.0155,-0.0379,-0.0577,-0.0699,-0.0726,-0.0587,-0.0384,-0.024,-0.0144,-0.0112,-0.023,-0.0416,-0.0529,-0.063,-0.0854,-0.1169,-0.1345,-0.1377,-0.1281,-0.0769,-0.0064,0.0,-0.04,-0.0486,-0.0384,-0.0331,-0.0246,-0.0101,0.0053,0.0187,0.031,0.047,0.0705,0.1014,0.1313,0.1516,0.1618,0.1676,-0.0288,-0.0416,-0.0609,-0.071,-0.0651,-0.0518,-0.0384,-0.0331,-0.0395,-0.0529,-0.0625,-0.0662,-0.0641,-0.0513,-0.0342,-0.0235,-0.0187,-0.0155,-0.0144,-0.0144,-0.0128,-0.0123,-0.024,-0.0555,-0.1052,-0.1506,-0.1655,-0.1618,-0.1527,-0.1105,-0.0395,-0.0107,-0.0304,-0.0363,-0.0299,-0.0224,-0.0064,0.0166,0.0432,0.0646,0.0806,0.0918,0.0966,0.0956,0.0956,0.1052,0.1228,-0.032,-0.0411,-0.0529,-0.0667,-0.0726,-0.0689,-0.0651,-0.0662,-0.0705,-0.0742,-0.0726,-0.063,-0.0481,-0.0336,-0.0246,-0.0219,-0.0203,-0.0182,-0.0155,-0.0117,-0.0037,0.0064,0.0075,-0.0085,-0.0427,-0.1004,-0.1458,-0.1506,-0.1452,-0.1415,-0.1175,-0.0561,-0.0005,0.0027,-0.0171,-0.0117,0.0027,0.0224,0.0507,0.071,0.0828,0.0854,0.0828,0.0812,0.0865,0.0993,0.1191,-0.0256,-0.0352,-0.0481,-0.063,-0.0763,-0.0854,-0.0886,-0.087,-0.0806,-0.0699,-0.0587,-0.0491,-0.0432,-0.039,-0.0374,-0.0352,-0.0304,-0.0235,-0.0171,-0.0117,-0.0059,0.0027,0.0107,0.0139,0.0075,-0.0123,-0.0416,-0.0603,-0.0737,-0.0945,-0.11,-0.1009,-0.0577,-0.0005,0.0304,0.0299,0.0176,0.0203,0.0384,0.0593,0.0806,0.0902,0.0924,0.0929,0.095,0.0998,0.1132,-0.0214,-0.0336,-0.0443,-0.0545,-0.0641,-0.0705,-0.0731,-0.0721,-0.0673,-0.0619,-0.0593,-0.0603,-0.0619,-0.0609,-0.0577,-0.0513,-0.0432,-0.0342,-0.0267,-0.0219,-0.0198,-0.0171,-0.0091,0.0016,0.0117,0.0171,0.0117,0.0011,-0.0075,-0.0182,-0.0406,-0.0694,-0.0758,-0.0523,-0.0128,0.0283,0.0566,0.0603,0.0464,0.0486,0.0699,0.0876,0.0945,0.0945,0.0918,0.0902,0.094,-0.0352,-0.0411,-0.0464,-0.0518,-0.0577,-0.0641,-0.0705,-0.0763,-0.0801,-0.0822,-0.0838,-0.0849,-0.0833,-0.079,-0.0731,-0.0651,-0.0571,-0.0497,-0.0432,-0.0411,-0.0406,-0.0384,-0.031,-0.0182,-0.0043,0.008,0.0133,0.0117,0.0064,-0.0016,-0.0117,-0.0288,-0.0491,-0.0614,-0.0534,-0.0214,0.0123,0.0443,0.0817,0.1014,0.095,0.0945,0.1036,0.1062,0.103,0.1004,0.0998,-0.0833,-0.0833,-0.0828,-0.0838,-0.086,-0.0902,-0.095,-0.0977,-0.0993,-0.1009,-0.1009,-0.0993,-0.0956,-0.0902,-0.0838,-0.0774,-0.071,-0.0641,-0.0555,-0.0464,-0.039,-0.0342,-0.0331,-0.031,-0.024,-0.0149,-0.0069,-0.0021,-0.0005,-0.0016,-0.0037,-0.0101,-0.0246,-0.04,-0.0534,-0.0497,-0.0219,-0.0005,0.0395,0.0849,0.11,0.134,0.1356,0.1303,0.1329,0.1351,0.1345,-0.1196,-0.1159,-0.1132,-0.1116,-0.1095,-0.1078,-0.1068,-0.1062,-0.1073,-0.1084,-0.1089,-0.1073,-0.103,-0.0972,-0.0918,-0.087,-0.0828,-0.0763,-0.0662,-0.0529,-0.0427,-0.0384,-0.039,-0.0379,-0.0315,-0.0224,-0.0144,-0.0091,-0.0069,-0.0069,-0.0075,-0.0112,-0.0198,-0.0315,-0.0438,-0.055,-0.0539,-0.0278,-0.0069,0.0043,0.0555,0.1036,0.1191,0.1276,0.1356,0.1458,0.1468,-0.1276,-0.1207,-0.1159,-0.1137,-0.1116,-0.1089,-0.1057,-0.1052,-0.1073,-0.1116,-0.1148,-0.1148,-0.1111,-0.1057,-0.1009,-0.0956,-0.0897,-0.0838,-0.0785,-0.0742,-0.0699,-0.0641,-0.0561,-0.0459,-0.0336,-0.0219,-0.0139,-0.0107,-0.0096,-0.0085,-0.0085,-0.0107,-0.016,-0.0246,-0.0358,-0.0497,-0.063,-0.0715,-0.0769,-0.0518,-0.0171,-0.0043,0.0443,0.0908,0.1046,0.1207,0.1313,-0.1436,-0.1383,-0.1276,-0.1175,-0.1111,-0.103,-0.0966,-0.0961,-0.1014,-0.1089,-0.1137,-0.1137,-0.1116,-0.1127,-0.1121,-0.1052,-0.0961,-0.0892,-0.0844,-0.0785,-0.0721,-0.0657,-0.0582,-0.0481,-0.0352,-0.0235,-0.0155,-0.0128,-0.0117,-0.0091,-0.0059,-0.0053,-0.0096,-0.0171,-0.0267,-0.0374,-0.0486,-0.0625,-0.0742,-0.0812,-0.0876,-0.0683,-0.0278,-0.0149,0.0251,0.086,0.1078,-0.1196,-0.1105,-0.1276,-0.1361,-0.1148,-0.095,-0.0892,-0.0966,-0.1073,-0.1153,-0.1223,-0.1217,-0.1137,-0.1191,-0.1239,-0.1121,-0.0988,-0.0897,-0.0849,-0.0806,-0.0758,-0.0694,-0.0603,-0.0491,-0.0374,-0.0272,-0.0198,-0.016,-0.0139,-0.0117,-0.0096,-0.0085,-0.0101,-0.0139,-0.0192,-0.0262,-0.0331,-0.04,-0.0464,-0.0513,-0.0513,-0.0443,-0.0481,-0.0497,-0.016,0.0064,0.0112,-0.0619,-0.0566,-0.1111,-0.1538,-0.142,-0.1175,-0.0897,-0.0897,-0.1014,-0.0956,-0.1009,0,-0.1148,0,-0.1127,-0.1062,-0.0998,-0.0934,-0.0881,-0.0833,-0.0774,-0.071,-0.0614,-0.0507,-0.0432,-0.0379,-0.0342,-0.0294,-0.0262,-0.0251,-0.0256,-0.0256,-0.024,-0.0214,-0.0198,-0.0208,-0.024,-0.0272,-0.031,-0.04,-0.0518,-0.0609,-0.0651,-0.0721,-0.0913,-0.1297,-0.1564,0,0,0,0,0,-0.0294,0.0432,0,0,0,0,0,0,0,0,0,0,0,0,0,0,0,0,0,0,0,-0.0427,-0.0459,-0.0432,-0.0411,-0.0443,-0.0486,-0.0491,-0.0438,-0.0331,-0.0208,-0.0149,-0.0176,-0.0262,-0.0395,-0.0577,-0.0785,-0.102,-0.1265,-0.1527,-0.1799,-0.2056,0,0,0,0,0,0,0,0,0,0,0,0,0,0,0,0,0,0,0,0,0,0,0,0,0,0,0,0,0,-0.0326,-0.047,-0.0529,-0.0475,-0.0459,-0.0502,-0.0422,-0.0251,-0.0224,-0.0294,-0.0406,-0.0561,-0.0753,-0.0918,-0.1025,-0.1068,-0.1116,-0.1217,0,0,0,0,0,0,0,0,0,0,0,0,0,0,0,0,0,0,0,0,0,0,0,0,0,0,0,0,0,0,0,0,0,0,0,0,-0.0475,-0.047,-0.0518,-0.0539,-0.0561,-0.0625,-0.0753,-0.0892,-0.1025,-0.1148,-0.1265,0,0,0,0,0,0,0,0,0,0,0,0,0,0,0,0,0,0,0,0,0,0,0,0,0,0,0,0,0,0,0,0,0,0,0,0,0,0,-0.0347,-0.0518,-0.0513,-0.0518,-0.0577,-0.0667,-0.0801,-0.0966,-0.1116,0,0,0,0,0,0,0,0,0,0,0,0,0,0,0,0,0,0,0,0,0,0,0,0,0,0,0,0,0,0,0,0,0,0,0,0,0,0,0,0,0,-0.016,-0.0192,-0.0315,-0.0422,-0.0534,-0.063,0,0,0,0,0,0,0,0,0,0,0,0,0,0,0,0,0,0,0,0,0,0,0,0,0,0,0,0,0,0,0,0,0,0,0,0,0,0,0,0,0,0,0,0,0,0,-0.0117,0,0,0,0,0,0,0,0,0,0,0,0,0,0,0,0,0,0,0,0,0,0,0,0,0,0,0,0,0,0,0,0,0,0,0,0,0,0,0,0,0,0,0,0,0,0,0,0,0,0,0,0,0,0,0,0,0,0,0,0,0,0,0,0,0,0,0,0,0,0,0,0,0,0,0,0,0,0,0,0,0,0,0,0,0,0,0,0,0,0,0,0,0,0,0,0,0,0,0,0,0,0,0,0,0,0,0,0,0,0,0,0,0,0,0,0,0,0,0,0,0,0,0,0,0,0,0,0,0,0,0,0,0,0,0,0,0,0,0,0,0,0,0,0,0,0,0,0,0,0,0,0,0,0,0,0,0,0,0,0,0,0,0,0,0,0,0,0,0,0,0,0,0,0,0,0,0,0,0,0,0,0,0,0,0,0,0,0,0,0,0,0,0,0,0,0,0,0,0,0,0,0,0,0,0,0,0,0,0,0,0,0,0,0,0,0,0,0,0,0,0,0,0,0,0,0,0,0,0,0,0,0,0,0,0,0,0,0,0,0,0,0,0,0,0,0,0,0,0,0,0,0,0,0,0,0,0,0,0,0,0,0,0,0,0,0,0,0,0,0,0,0,0,0,0,0,0,0,0,0,0,0,0,0,0,0,0,0,0,0,0,0,0,0,0,0,0,0,0,0,0,0,0,0,0,0,0,0,0,0,0,0,0,0,0,0,0,0,0,0,0,0,0,0,0,0,0,0,0,0,0,0,0,0,0,0,0,0,0,0,0,0,0,0,0,0,0,0,0,0,0,0,0,0,0,0,0,0,0,0,0,0,0,0,0,0,0,0,0,0,0,0,0,0,0,0,0,0,0,0,0,0,0,0,0,0,0,0,0,0,0,0,0,0,0,0,0,0,0,0,0,0,0,0,0,0,0,0,0,0,0,0,0,0,0,0,0,0,0,0,0,0,0,0,0,0,0,0,0,0,0,0,0,0,0,0,0,0,0,0,0,0,0,0,0,0,0,0,0,0,0,0,0,0,0,0,0,0,0,0,0,0,0,0,0,0,0,0,0,0,0,0,0,0,0,0,0,0,0,0,0,0,0,0,0,0,0,0,0,0,0,0,0,0,0,0,0,0,0,0,0,0,0,0,0,0,0,0,0,0,0,0,0,0,0,0,0,0,0,0,0,0,0,0,0,0,0,0,0,0,0,0,0,0,0,0,0,0,0,0,0,0,0,0,0,0,0,0,0,0,0,0,0,0,0,0,0,0,0,0,0,0,0,0,0,0,0,0,0,0,0,0,0,0,0,0,0,0,0,0,0,0,0,0,0,0,0,0,0,0,0,0,0,0,0,0,0,0,0,0,0,0,0,0,0,0,0,0,0,0,0,0,0,0,0,0,0,0,0,0,0,0,0,0,0,0,0,0,0,0,0,0,0,0,0,0,0,0,0,0,0,0,0,0,0,0,0,0,0,0,0,0,0,0,0,0,0,0,0,0,0,0,0,0,0,0,0,0,0,0,0,0,0,0,0,0,0,0,0,0,0,0,0,0,0,0,0,0,0,0,0,0,0,0,0,0,0,0,0,0,0,0,0,0,0]}],[{"header":{"parameterUnit":"kt","parameterCategory":2,"dx":1,"dy":1,"la1":29.764190673828125,"la2":30.86408042907715,"lo1":-88.46762084960938,"lo2":-86.9344482421875,"nx":47,"ny":34,"refTime":"2022-10-13T00:00:00:Z","depth":"12","parameterNumber":3,"parameterNumberName":"V-component_of_CURRENTS"},"data":[-0.0331,-0.0731,-0.0523,0.0294,0.0945,0.1148,0.1062,0.087,0.0945,0.1105,0.1164,0.126,0.1436,0.1655,0.1671,0.1564,0.1404,0.1303,0.0876,0.0667,0.0908,0.1014,0.0507,-0.0139,-0.0518,-0.0064,0.0785,0.0822,-0.0139,-0.0721,-0.0486,-0.0347,-0.0497,-0.0593,-0.0603,-0.0635,-0.0619,-0.0582,-0.0464,-0.0256,-0.0053,0.0117,0.024,0.0342,0.0395,0.0448,0.0513,-0.0246,-0.0422,-0.0427,0.0,0.0539,0.0849,0.1004,0.1121,0.1244,0.126,0.1271,0.1351,0.1516,0.1602,0.142,0.1276,0.1233,0.1175,0.095,0.0812,0.1009,0.1041,0.0534,0.0043,-0.0438,-0.0198,0.0342,0.0646,0.0534,0.008,-0.0235,-0.0128,-0.0032,-0.008,-0.0064,-0.0064,-0.0043,-0.0011,0.0053,0.0101,0.0203,0.0278,0.0368,0.0427,0.0422,0.0464,0.0561,-0.016,-0.0198,-0.0166,0.0059,0.0459,0.0747,0.0993,0.1153,0.1223,0.1239,0.1265,0.1329,0.1388,0.1329,0.1148,0.1111,0.1137,0.1084,0.0961,0.0897,0.095,0.0961,0.0699,0.0406,-0.0053,-0.0171,0.0171,0.0203,0.0107,0.0203,0.0187,0.0075,0.0,0.0139,0.0149,0.0123,0.0144,0.0198,0.0262,0.0299,0.0347,0.0336,0.0342,0.0288,0.0208,0.0133,0.0224,-0.0091,-0.0059,-0.0032,0.0123,0.039,0.0619,0.0838,0.1009,0.1089,0.1137,0.1132,0.1127,0.1105,0.1062,0.0988,0.103,0.1068,0.1025,0.0929,0.0844,0.0806,0.0833,0.0812,0.0731,0.0523,0.0182,0.0139,0.0053,-0.0166,-0.024,0.0032,0.0288,0.0187,0.0021,-0.0011,0.0059,0.0064,0.0133,0.0182,0.0203,0.0208,0.0176,0.0128,0.0016,-0.0075,-0.0171,-0.0096,-0.0021,0.0048,0.0112,0.0198,0.0331,0.0497,0.0667,0.0838,0.0956,0.0982,0.0929,0.0897,0.0929,0.094,0.0929,0.0972,0.0982,0.0934,0.0854,0.0753,0.0673,0.0678,0.0758,0.0822,0.0849,0.0646,0.0326,0.0123,0.0011,-0.0208,-0.0384,-0.0091,0.0267,0.0262,0.0016,-0.0251,-0.0384,-0.0171,-0.0096,-0.0069,-0.0027,-0.0016,-0.0032,-0.0123,-0.0214,-0.0294,-0.0246,0.0091,0.0166,0.024,0.032,0.0406,0.0507,0.0619,0.0742,0.0833,0.0865,0.0854,0.086,0.0897,0.0908,0.0902,0.0892,0.087,0.0822,0.0758,0.0667,0.0587,0.0566,0.063,0.0737,0.0812,0.0753,0.0475,0.0278,0.0219,0.0096,-0.0203,-0.0422,-0.0139,0.0251,0.0262,0.0005,-0.0342,-0.0571,-0.0673,-0.0513,-0.0379,-0.0336,-0.0336,-0.0379,-0.0443,-0.0513,-0.0518,0.0203,0.0256,0.0331,0.04,0.0475,0.0566,0.0673,0.0763,0.0828,0.087,0.0892,0.0913,0.0918,0.0902,0.0865,0.0812,0.0763,0.0721,0.0673,0.0614,0.055,0.0513,0.0523,0.0609,0.0678,0.0635,0.0454,0.0288,0.0251,0.0262,0.0133,-0.0182,-0.0235,-0.0123,0.0059,0.0299,0.0198,-0.0251,-0.0651,-0.0763,-0.0902,-0.0849,-0.078,-0.0796,-0.087,-0.094,-0.0961,0.0235,0.0288,0.0368,0.0443,0.0534,0.0646,0.0758,0.0844,0.0892,0.0918,0.0934,0.0934,0.0918,0.0886,0.0833,0.0763,0.0705,0.0635,0.0582,0.0523,0.0481,0.0486,0.0475,0.0529,0.0566,0.0529,0.0374,0.023,0.0219,0.0278,0.0262,0.0069,-0.0059,-0.0075,-0.0155,-0.0032,0.0214,0.0123,-0.0016,-0.0368,-0.0769,-0.094,-0.1062,-0.1084,-0.1207,-0.1276,-0.1281,0.0224,0.0288,0.0384,0.047,0.0566,0.0694,0.0817,0.0908,0.095,0.0961,0.094,0.0913,0.0881,0.0849,0.0801,0.0737,0.0657,0.0555,0.0443,0.0358,0.0352,0.0416,0.0464,0.0481,0.0475,0.0422,0.0262,0.0133,0.016,0.024,0.0262,0.0176,0.0085,0.0027,-0.0059,-0.0166,-0.0064,0.0021,-0.0027,-0.0053,0.0016,-0.0342,-0.0828,-0.0988,-0.1228,-0.1351,-0.1393,0.0176,0.0288,0.0416,0.0502,0.0577,0.0694,0.0844,0.0966,0.1025,0.1014,0.0961,0.0892,0.0833,0.079,0.0737,0.0667,0.0593,0.0464,0.032,0.0235,0.0246,0.0326,0.04,0.039,0.0342,0.0278,0.0144,0.0048,0.0091,0.0187,0.023,0.0203,0.016,0.0123,0.0048,-0.008,-0.0182,-0.0117,-0.0187,-0.0069,-0.0032,0.0,-0.0139,-0.0593,-0.1041,-0.1212,-0.1292,0.0171,0.0299,0.0454,0.0555,0.0582,0.0662,0.0854,0.1041,0.1137,0.1111,0.1009,0.0881,0.0806,0.0769,0.063,0.0523,0.0475,0.0379,0.0267,0.0182,0.016,0.0203,0.0251,0.0235,0.0176,0.0107,0.0027,-0.0016,0.0016,0.0107,0.0176,0.0203,0.0224,0.0224,0.016,0.0027,-0.0123,-0.0208,-0.0192,-0.0192,-0.031,-0.0048,-0.0171,-0.0486,-0.0566,-0.078,-0.1025,0.0112,0.0224,0.0534,0.0513,0.0529,0.0614,0.094,0.1196,0.1308,0.1233,0.1143,0.0918,0.0598,0.0667,0.0475,0.0304,0.031,0.0278,0.0203,0.0117,0.0064,0.0064,0.0064,0.0053,0.0,-0.0048,-0.008,-0.008,-0.0032,0.0032,0.0112,0.0192,0.0267,0.0304,0.0246,0.0091,-0.0064,-0.016,-0.0262,-0.039,-0.0374,-0.0256,-0.0454,-0.0491,-0.0507,-0.0865,-0.0934,0.0027,0.0149,0.055,0.0555,0.0545,0.0395,0.0796,0.1367,0.1415,0.1319,0.1383,0,0.04,0,0.0347,0.008,0.0075,0.0117,0.0085,0.0005,-0.0043,-0.0069,-0.0128,-0.0128,-0.0144,-0.0166,-0.0187,-0.0139,-0.0064,0.0,0.0091,0.0171,0.0262,0.0315,0.0262,0.0107,-0.0053,-0.016,-0.0235,-0.0331,-0.0406,-0.0443,-0.0464,-0.0529,-0.0614,-0.0763,-0.0673,0,0,0,0,0,0.0144,0.0278,0,0,0,0,0,0,0,0,0,0,0,0,0,0,0,0,0,0,0,-0.032,-0.023,-0.0101,0.0011,0.0139,0.0198,0.0251,0.0262,0.0155,0.0011,-0.0096,-0.0166,-0.0176,-0.0187,-0.0251,-0.0342,-0.0416,-0.0459,-0.039,-0.0374,-0.039,0,0,0,0,0,0,0,0,0,0,0,0,0,0,0,0,0,0,0,0,0,0,0,0,0,0,0,0,0,-0.0283,0.0144,0.0294,0.0406,0.039,0.0069,-0.0272,-0.0208,-0.0155,-0.0075,-0.0027,-0.0048,-0.0139,-0.0235,-0.032,-0.0352,-0.0358,-0.0342,0,0,0,0,0,0,0,0,0,0,0,0,0,0,0,0,0,0,0,0,0,0,0,0,0,0,0,0,0,0,0,0,0,0,0,0,-0.0294,-0.0112,0.0005,0.0091,0.0053,0.0005,-0.0117,-0.023,-0.0299,-0.031,-0.0267,0,0,0,0,0,0,0,0,0,0,0,0,0,0,0,0,0,0,0,0,0,0,0,0,0,0,0,0,0,0,0,0,0,0,0,0,0,0,0.0021,-0.0016,-0.0027,0.0032,-0.0075,-0.0123,-0.0176,-0.0208,-0.0198,0,0,0,0,0,0,0,0,0,0,0,0,0,0,0,0,0,0,0,0,0,0,0,0,0,0,0,0,0,0,0,0,0,0,0,0,0,0,0,0,0,-0.0011,-0.0101,-0.0096,-0.0107,-0.0144,-0.0262,0,0,0,0,0,0,0,0,0,0,0,0,0,0,0,0,0,0,0,0,0,0,0,0,0,0,0,0,0,0,0,0,0,0,0,0,0,0,0,0,0,0,0,0,0,0,-0.0368,0,0,0,0,0,0,0,0,0,0,0,0,0,0,0,0,0,0,0,0,0,0,0,0,0,0,0,0,0,0,0,0,0,0,0,0,0,0,0,0,0,0,0,0,0,0,0,0,0,0,0,0,0,0,0,0,0,0,0,0,0,0,0,0,0,0,0,0,0,0,0,0,0,0,0,0,0,0,0,0,0,0,0,0,0,0,0,0,0,0,0,0,0,0,0,0,0,0,0,0,0,0,0,0,0,0,0,0,0,0,0,0,0,0,0,0,0,0,0,0,0,0,0,0,0,0,0,0,0,0,0,0,0,0,0,0,0,0,0,0,0,0,0,0,0,0,0,0,0,0,0,0,0,0,0,0,0,0,0,0,0,0,0,0,0,0,0,0,0,0,0,0,0,0,0,0,0,0,0,0,0,0,0,0,0,0,0,0,0,0,0,0,0,0,0,0,0,0,0,0,0,0,0,0,0,0,0,0,0,0,0,0,0,0,0,0,0,0,0,0,0,0,0,0,0,0,0,0,0,0,0,0,0,0,0,0,0,0,0,0,0,0,0,0,0,0,0,0,0,0,0,0,0,0,0,0,0,0,0,0,0,0,0,0,0,0,0,0,0,0,0,0,0,0,0,0,0,0,0,0,0,0,0,0,0,0,0,0,0,0,0,0,0,0,0,0,0,0,0,0,0,0,0,0,0,0,0,0,0,0,0,0,0,0,0,0,0,0,0,0,0,0,0,0,0,0,0,0,0,0,0,0,0,0,0,0,0,0,0,0,0,0,0,0,0,0,0,0,0,0,0,0,0,0,0,0,0,0,0,0,0,0,0,0,0,0,0,0,0,0,0,0,0,0,0,0,0,0,0,0,0,0,0,0,0,0,0,0,0,0,0,0,0,0,0,0,0,0,0,0,0,0,0,0,0,0,0,0,0,0,0,0,0,0,0,0,0,0,0,0,0,0,0,0,0,0,0,0,0,0,0,0,0,0,0,0,0,0,0,0,0,0,0,0,0,0,0,0,0,0,0,0,0,0,0,0,0,0,0,0,0,0,0,0,0,0,0,0,0,0,0,0,0,0,0,0,0,0,0,0,0,0,0,0,0,0,0,0,0,0,0,0,0,0,0,0,0,0,0,0,0,0,0,0,0,0,0,0,0,0,0,0,0,0,0,0,0,0,0,0,0,0,0,0,0,0,0,0,0,0,0,0,0,0,0,0,0,0,0,0,0,0,0,0,0,0,0,0,0,0,0,0,0,0,0,0,0,0,0,0,0,0,0,0,0,0,0,0,0,0,0,0,0,0,0,0,0,0,0,0,0,0,0,0,0,0,0,0,0,0,0,0,0,0,0,0,0,0,0,0,0,0,0,0,0,0,0,0,0,0,0,0,0,0,0,0,0,0,0,0,0,0,0,0,0,0,0,0,0,0,0,0,0,0,0,0,0,0,0,0,0,0,0,0,0,0,0,0,0,0,0,0,0,0,0,0,0,0,0,0,0,0,0,0,0,0,0,0,0,0,0,0,0,0,0,0,0,0,0,0,0,0,0,0,0,0,0,0,0,0,0,0,0,0,0,0,0,0,0,0,0,0,0,0,0]}]],[[{"header":{"parameterUnit":"kt","parameterCategory":2,"dx":1,"dy":1,"la1":29.764190673828125,"la2":30.86408042907715,"lo1":-88.46762084960938,"lo2":-86.9344482421875,"nx":47,"ny":34,"refTime":"2022-10-13T00:00:00:Z","depth":"15","parameterNumber":2,"parameterNumberName":"U-component_of_CURRENTS"},"data":[0.0048,-0.0187,-0.0342,-0.0016,0.0534,0.095,0.118,0.1132,0.0758,0.0342,0.0043,-0.0256,-0.0529,-0.0721,-0.0742,-0.055,-0.0315,-0.0176,-0.0149,-0.0235,-0.0438,-0.0721,-0.0865,-0.0929,-0.1025,-0.1014,-0.0774,-0.0283,0.0139,0.0107,-0.0358,-0.0539,-0.0507,-0.0491,-0.0448,-0.0278,-0.0203,-0.0256,-0.0299,-0.0299,-0.0187,0.0059,0.0406,0.086,0.141,0.1938,0.2264,-0.0256,-0.0379,-0.047,-0.0502,-0.0347,-0.0091,0.0101,0.0117,0.0005,-0.0155,-0.0374,-0.0577,-0.0699,-0.0721,-0.0582,-0.0379,-0.0235,-0.0144,-0.0117,-0.024,-0.0422,-0.0529,-0.0625,-0.0865,-0.1191,-0.1361,-0.1383,-0.1281,-0.078,-0.0139,-0.008,-0.0432,-0.0539,-0.0459,-0.04,-0.0304,-0.016,-0.0016,0.0112,0.0251,0.0432,0.0678,0.0988,0.1292,0.15,0.1607,0.1671,-0.0299,-0.0422,-0.0614,-0.0715,-0.0662,-0.0523,-0.039,-0.0331,-0.0395,-0.0523,-0.0625,-0.0657,-0.0635,-0.0507,-0.0336,-0.0235,-0.0187,-0.0155,-0.0149,-0.0155,-0.0133,-0.0123,-0.024,-0.0561,-0.1068,-0.1522,-0.1655,-0.1618,-0.1532,-0.1116,-0.0432,-0.016,-0.0331,-0.0384,-0.0315,-0.024,-0.0085,0.0128,0.0379,0.0603,0.0774,0.0897,0.0956,0.0945,0.0945,0.1046,0.1228,-0.0331,-0.0411,-0.0534,-0.0673,-0.0731,-0.0689,-0.0651,-0.0662,-0.0699,-0.0742,-0.0726,-0.0625,-0.0481,-0.0336,-0.0246,-0.0219,-0.0203,-0.0176,-0.0155,-0.0123,-0.0043,0.0064,0.0075,-0.008,-0.0432,-0.1014,-0.1463,-0.1506,-0.1458,-0.1431,-0.1191,-0.0587,-0.0064,-0.0011,-0.0182,-0.0123,0.0016,0.0214,0.0486,0.0689,0.0812,0.0844,0.0822,0.0812,0.086,0.0993,0.1185,-0.0262,-0.0358,-0.0486,-0.0635,-0.0763,-0.0854,-0.0892,-0.087,-0.0801,-0.0699,-0.0582,-0.0491,-0.0427,-0.0384,-0.0368,-0.0352,-0.0299,-0.0235,-0.0171,-0.0123,-0.0064,0.0021,0.0107,0.0139,0.0075,-0.0123,-0.0416,-0.0609,-0.0747,-0.0961,-0.1116,-0.1025,-0.0587,-0.0059,0.0246,0.0288,0.0171,0.0198,0.0379,0.0587,0.0796,0.0897,0.0918,0.0924,0.0945,0.0998,0.1127,-0.0219,-0.0342,-0.0448,-0.055,-0.0641,-0.0705,-0.0731,-0.0721,-0.0673,-0.0619,-0.0587,-0.0598,-0.0614,-0.0603,-0.0571,-0.0513,-0.0427,-0.0342,-0.0267,-0.0224,-0.0203,-0.0171,-0.0096,0.0016,0.0123,0.0171,0.0117,0.0005,-0.0085,-0.0192,-0.0427,-0.0715,-0.0774,-0.0534,-0.0149,0.023,0.0534,0.0587,0.0459,0.0475,0.0694,0.087,0.094,0.094,0.0913,0.0897,0.0934,-0.0358,-0.0416,-0.047,-0.0523,-0.0577,-0.0641,-0.0705,-0.0758,-0.0796,-0.0817,-0.0833,-0.0838,-0.0828,-0.0785,-0.0726,-0.0646,-0.0566,-0.0491,-0.0432,-0.0411,-0.0411,-0.0384,-0.031,-0.0182,-0.0043,0.008,0.0133,0.0112,0.0059,-0.0032,-0.0139,-0.0315,-0.0507,-0.063,-0.0545,-0.0219,0.0107,0.04,0.0774,0.0988,0.094,0.094,0.1025,0.1052,0.102,0.0993,0.0993,-0.0838,-0.0833,-0.0833,-0.0838,-0.086,-0.0902,-0.0945,-0.0972,-0.0982,-0.0998,-0.0998,-0.0982,-0.094,-0.0892,-0.0828,-0.0769,-0.0705,-0.0635,-0.0555,-0.047,-0.0395,-0.0347,-0.0331,-0.031,-0.024,-0.0155,-0.0075,-0.0027,-0.0016,-0.0027,-0.0053,-0.0123,-0.0272,-0.0427,-0.0545,-0.0502,-0.0224,-0.0011,0.0368,0.0817,0.1068,0.1308,0.1313,0.1271,0.1308,0.1335,0.1335,-0.1196,-0.1153,-0.1127,-0.1105,-0.1089,-0.1068,-0.1057,-0.1052,-0.1057,-0.1068,-0.1073,-0.1052,-0.1009,-0.0956,-0.0902,-0.086,-0.0822,-0.0763,-0.0662,-0.0539,-0.0438,-0.0395,-0.039,-0.0374,-0.0315,-0.0224,-0.0149,-0.0096,-0.0075,-0.0075,-0.0085,-0.0128,-0.0219,-0.0336,-0.0454,-0.0561,-0.055,-0.0288,-0.0085,0.0027,0.0502,0.0966,0.1116,0.1207,0.1324,0.1431,0.1458,-0.1271,-0.1201,-0.1148,-0.1127,-0.11,-0.1068,-0.1036,-0.103,-0.1052,-0.1089,-0.1116,-0.1116,-0.1084,-0.103,-0.0982,-0.0929,-0.087,-0.0828,-0.0785,-0.0742,-0.0694,-0.063,-0.0555,-0.0454,-0.0336,-0.0219,-0.0144,-0.0112,-0.0101,-0.0091,-0.0091,-0.0117,-0.0176,-0.0267,-0.0379,-0.0507,-0.0641,-0.0721,-0.078,-0.0577,-0.0267,-0.0166,0.0139,0.0555,0.0865,0.1143,0.1287,-0.1356,-0.1303,-0.1223,-0.1148,-0.1084,-0.1004,-0.0934,-0.0929,-0.0977,-0.1036,-0.1068,-0.1073,-0.1057,-0.1068,-0.1062,-0.0998,-0.0918,-0.0865,-0.0817,-0.0763,-0.0694,-0.0635,-0.0561,-0.047,-0.0352,-0.0235,-0.016,-0.0128,-0.0123,-0.0091,-0.0059,-0.0059,-0.0101,-0.0187,-0.0288,-0.039,-0.0497,-0.063,-0.0747,-0.0817,-0.0908,-0.0854,-0.0577,-0.0491,-0.0331,0.0203,0.0587,0,0,-0.1153,-0.1276,-0.1105,-0.0929,-0.0865,-0.0918,-0.0993,-0.1057,-0.1127,0,0,0,0,0,0,0,0,0,0,0,0,0,-0.0368,-0.0267,-0.0198,-0.016,-0.0144,-0.0123,-0.0096,-0.0091,-0.0101,-0.0144,-0.0208,-0.0283,-0.0347,-0.0406,-0.047,-0.0518,-0.0523,-0.0507,-0.0625,-0.0801,-0.0689,-0.0523,-0.0513,0,0,0,0,0,0,-0.0566,-0.0678,0,0,0,0,0,0,0,0,0,0,0,0,0,0,0,0,0,0,-0.0336,-0.0299,-0.0272,-0.0256,-0.0262,-0.0262,-0.024,-0.0219,-0.0208,-0.0224,-0.0256,-0.0283,-0.032,-0.0411,-0.0534,-0.0619,-0.0689,-0.0822,-0.1052,-0.141,-0.1725,0,0,0,0,0,0,0,0,0,0,0,0,0,0,0,0,0,0,0,0,0,0,0,0,0,0,0,0,-0.0438,-0.0416,-0.0448,-0.0491,-0.0497,-0.0443,-0.0336,-0.0219,-0.016,-0.0187,-0.0267,-0.0406,-0.0587,-0.0796,-0.1025,-0.1255,-0.149,-0.1773,-0.2045,0,0,0,0,0,0,0,0,0,0,0,0,0,0,0,0,0,0,0,0,0,0,0,0,0,0,0,0,0,0,0,0,0,0,0,-0.0304,-0.0251,-0.0224,-0.0294,-0.0411,-0.0566,-0.0758,-0.0924,-0.1025,-0.1062,-0.11,-0.1201,0,0,0,0,0,0,0,0,0,0,0,0,0,0,0,0,0,0,0,0,0,0,0,0,0,0,0,0,0,0,0,0,0,0,0,0,0,0,-0.0507,-0.0534,-0.0561,-0.063,-0.0758,-0.0897,-0.102,-0.1132,-0.1239,0,0,0,0,0,0,0,0,0,0,0,0,0,0,0,0,0,0,0,0,0,0,0,0,0,0,0,0,0,0,0,0,0,0,0,0,0,0,0,0,0,-0.0507,-0.0577,-0.0673,-0.0801,-0.0956,-0.1095,0,0,0,0,0,0,0,0,0,0,0,0,0,0,0,0,0,0,0,0,0,0,0,0,0,0,0,0,0,0,0,0,0,0,0,0,0,0,0,0,0,0,-0.0187,-0.0304,-0.0411,-0.0523,-0.0614,0,0,0,0,0,0,0,0,0,0,0,0,0,0,0,0,0,0,0,0,0,0,0,0,0,0,0,0,0,0,0,0,0,0,0,0,0,0,0,0,0,0,0,0,0,0,-0.0112,0,0,0,0,0,0,0,0,0,0,0,0,0,0,0,0,0,0,0,0,0,0,0,0,0,0,0,0,0,0,0,0,0,0,0,0,0,0,0,0,0,0,0,0,0,0,0,0,0,0,0,0,0,0,0,0,0,0,0,0,0,0,0,0,0,0,0,0,0,0,0,0,0,0,0,0,0,0,0,0,0,0,0,0,0,0,0,0,0,0,0,0,0,0,0,0,0,0,0,0,0,0,0,0,0,0,0,0,0,0,0,0,0,0,0,0,0,0,0,0,0,0,0,0,0,0,0,0,0,0,0,0,0,0,0,0,0,0,0,0,0,0,0,0,0,0,0,0,0,0,0,0,0,0,0,0,0,0,0,0,0,0,0,0,0,0,0,0,0,0,0,0,0,0,0,0,0,0,0,0,0,0,0,0,0,0,0,0,0,0,0,0,0,0,0,0,0,0,0,0,0,0,0,0,0,0,0,0,0,0,0,0,0,0,0,0,0,0,0,0,0,0,0,0,0,0,0,0,0,0,0,0,0,0,0,0,0,0,0,0,0,0,0,0,0,0,0,0,0,0,0,0,0,0,0,0,0,0,0,0,0,0,0,0,0,0,0,0,0,0,0,0,0,0,0,0,0,0,0,0,0,0,0,0,0,0,0,0,0,0,0,0,0,0,0,0,0,0,0,0,0,0,0,0,0,0,0,0,0,0,0,0,0,0,0,0,0,0,0,0,0,0,0,0,0,0,0,0,0,0,0,0,0,0,0,0,0,0,0,0,0,0,0,0,0,0,0,0,0,0,0,0,0,0,0,0,0,0,0,0,0,0,0,0,0,0,0,0,0,0,0,0,0,0,0,0,0,0,0,0,0,0,0,0,0,0,0,0,0,0,0,0,0,0,0,0,0,0,0,0,0,0,0,0,0,0,0,0,0,0,0,0,0,0,0,0,0,0,0,0,0,0,0,0,0,0,0,0,0,0,0,0,0,0,0,0,0,0,0,0,0,0,0,0,0,0,0,0,0,0,0,0,0,0,0,0,0,0,0,0,0,0,0,0,0,0,0,0,0,0,0,0,0,0,0,0,0,0,0,0,0,0,0,0,0,0,0,0,0,0,0,0,0,0,0,0,0,0,0,0,0,0,0,0,0,0,0,0,0,0,0,0,0,0,0,0,0,0,0,0,0,0,0,0,0,0,0,0,0,0,0,0,0,0,0,0,0,0,0,0,0,0,0,0,0,0,0,0,0,0,0,0,0,0,0,0,0,0,0,0,0,0,0,0,0,0,0,0,0,0,0,0,0,0,0,0,0,0,0,0,0,0,0,0,0,0,0,0,0,0,0,0,0,0,0,0,0,0,0,0,0,0,0,0,0,0,0,0,0,0,0,0,0,0,0,0,0,0,0,0,0,0,0,0,0,0,0,0,0,0,0,0,0,0,0,0,0,0,0,0,0,0,0,0,0,0,0,0,0,0,0,0,0,0,0,0,0,0,0,0,0,0,0,0,0,0,0,0,0,0,0,0,0,0,0,0,0,0,0,0,0,0,0,0,0,0,0,0,0,0,0,0,0,0,0,0,0,0,0,0,0,0,0,0,0]}],[{"header":{"parameterUnit":"kt","parameterCategory":2,"dx":1,"dy":1,"la1":29.764190673828125,"la2":30.86408042907715,"lo1":-88.46762084960938,"lo2":-86.9344482421875,"nx":47,"ny":34,"refTime":"2022-10-13T00:00:00:Z","depth":"15","parameterNumber":3,"parameterNumberName":"V-component_of_CURRENTS"},"data":[-0.0416,-0.0881,-0.0678,0.0251,0.0918,0.1127,0.1036,0.0854,0.0934,0.11,0.1159,0.1255,0.1431,0.1655,0.1671,0.1559,0.1393,0.1297,0.087,0.0657,0.0897,0.1009,0.0507,-0.0133,-0.0518,-0.0069,0.0737,0.0529,-0.0395,-0.1009,-0.0763,-0.0705,-0.0913,-0.1078,-0.1121,-0.1084,-0.0988,-0.0838,-0.0593,-0.0342,-0.0133,0.0043,0.0182,0.0299,0.0352,0.04,0.0475,-0.0256,-0.0448,-0.0486,-0.0037,0.0518,0.0828,0.0988,0.1111,0.1239,0.1255,0.1265,0.1345,0.1516,0.1596,0.141,0.1271,0.1228,0.1164,0.094,0.0806,0.1009,0.1036,0.0534,0.0043,-0.0432,-0.0192,0.0336,0.063,0.0443,-0.0107,-0.0411,-0.0315,-0.0288,-0.039,-0.0422,-0.0443,-0.0438,-0.0395,-0.0246,-0.0064,0.0085,0.0198,0.0304,0.0379,0.0384,0.0427,0.0539,-0.0155,-0.0203,-0.0171,0.0043,0.0443,0.0737,0.0988,0.1148,0.1217,0.1233,0.126,0.1324,0.1383,0.1319,0.1137,0.11,0.1127,0.1073,0.0956,0.0892,0.095,0.0956,0.0694,0.0406,-0.0048,-0.0155,0.0182,0.0208,0.0107,0.0176,0.0075,-0.0085,-0.0139,-0.0016,-0.0005,-0.0048,-0.0059,-0.0075,-0.0032,0.0123,0.0224,0.0272,0.0288,0.0251,0.0182,0.0112,0.0203,-0.0085,-0.0059,-0.0032,0.0123,0.039,0.0619,0.0838,0.0998,0.1084,0.1132,0.1127,0.1116,0.11,0.1052,0.0977,0.102,0.1057,0.1014,0.0918,0.0833,0.0801,0.0828,0.0801,0.0721,0.0529,0.0198,0.0155,0.0069,-0.0149,-0.023,0.0016,0.0182,0.0053,-0.0117,-0.0069,0.0011,0.0,0.008,0.0107,0.0144,0.0155,0.0139,0.0091,-0.0011,-0.0096,-0.0187,-0.0112,-0.0021,0.0048,0.0112,0.0198,0.0331,0.0497,0.0662,0.0833,0.095,0.0977,0.0918,0.0886,0.0918,0.0929,0.0918,0.0961,0.0972,0.0929,0.0844,0.0742,0.0667,0.0673,0.0747,0.0817,0.0838,0.0646,0.0331,0.0133,0.0021,-0.0192,-0.0363,-0.0096,0.0171,0.0128,-0.0085,-0.0304,-0.0416,-0.0214,-0.0133,-0.0101,-0.0059,-0.0043,-0.0053,-0.0144,-0.0235,-0.0315,-0.0267,0.0091,0.016,0.024,0.032,0.04,0.0502,0.0614,0.0737,0.0828,0.086,0.0844,0.0854,0.0892,0.0902,0.0892,0.0886,0.0865,0.0817,0.0753,0.0662,0.0582,0.0566,0.063,0.0731,0.0801,0.0742,0.047,0.0272,0.0219,0.0101,-0.0187,-0.04,-0.0144,0.0182,0.0091,-0.0096,-0.039,-0.0614,-0.0705,-0.0545,-0.0411,-0.0363,-0.0358,-0.0406,-0.0464,-0.0534,-0.0539,0.0192,0.0246,0.032,0.0395,0.047,0.0561,0.0662,0.0758,0.0822,0.0865,0.0886,0.0908,0.0913,0.0897,0.0854,0.0806,0.0758,0.0715,0.0667,0.0603,0.0545,0.0507,0.0523,0.0603,0.0667,0.0625,0.0443,0.0278,0.024,0.0256,0.0128,-0.0171,-0.023,-0.0128,0.0021,0.0219,0.0075,-0.0326,-0.0699,-0.0806,-0.094,-0.0892,-0.0806,-0.0822,-0.0897,-0.0966,-0.0988,0.0235,0.0283,0.0358,0.0438,0.0529,0.0641,0.0753,0.0838,0.0886,0.0913,0.0929,0.0924,0.0908,0.0876,0.0822,0.0753,0.0694,0.063,0.0571,0.0507,0.0459,0.0443,0.0454,0.0513,0.055,0.0513,0.0358,0.0214,0.0198,0.0262,0.0251,0.0064,-0.0059,-0.008,-0.016,-0.0053,0.0176,0.0043,-0.0117,-0.0464,-0.0817,-0.0993,-0.1137,-0.1137,-0.1244,-0.1308,-0.1313,0.023,0.0288,0.0379,0.0464,0.0561,0.0683,0.0812,0.0897,0.094,0.0945,0.0924,0.0897,0.0865,0.0833,0.0785,0.0721,0.0646,0.0534,0.0422,0.0336,0.0304,0.0352,0.0432,0.0459,0.0448,0.0395,0.0235,0.0112,0.0133,0.0224,0.0246,0.0166,0.0075,0.0021,-0.0064,-0.0176,-0.0085,-0.0016,-0.0107,-0.0166,-0.0187,-0.0481,-0.0972,-0.1137,-0.1292,-0.1393,-0.1431,0.0192,0.0294,0.0416,0.0497,0.0561,0.0678,0.0828,0.0945,0.1004,0.0993,0.0934,0.087,0.0812,0.0769,0.071,0.0635,0.055,0.0427,0.0288,0.0203,0.0203,0.0288,0.0368,0.0363,0.0315,0.024,0.0117,0.0021,0.0059,0.016,0.0208,0.0187,0.0155,0.0117,0.0048,-0.0085,-0.0192,-0.0144,-0.0219,-0.0198,-0.032,-0.032,-0.0555,-0.0972,-0.1313,-0.1345,-0.1377,0.0198,0.032,0.0448,0.0539,0.0566,0.0646,0.0833,0.1009,0.1089,0.1052,0.0945,0.0812,0.0742,0.0699,0.0577,0.0464,0.0422,0.0336,0.023,0.0149,0.0128,0.0171,0.0214,0.0198,0.0144,0.008,0.0005,-0.0037,-0.0005,0.0085,0.0149,0.0182,0.0208,0.0214,0.0155,0.0021,-0.0128,-0.0224,-0.0214,-0.0272,-0.0454,-0.0438,-0.0796,-0.1095,-0.1111,-0.1217,-0.1345,0,0,0.0513,0.0497,0.0507,0.0598,0.0908,0.1111,0.118,0.1127,0.1057,0,0,0,0,0,0,0,0,0,0,0,0,0,-0.0011,-0.0059,-0.0091,-0.0091,-0.0048,0.0016,0.0091,0.0171,0.0246,0.0288,0.0235,0.008,-0.0069,-0.0166,-0.0272,-0.04,-0.04,-0.0491,-0.0806,-0.102,-0.1212,-0.1591,-0.149,0,0,0,0,0,0,0.0603,0.1148,0,0,0,0,0,0,0,0,0,0,0,0,0,0,0,0,0,0,-0.0182,-0.0128,-0.0059,0.0,0.0085,0.016,0.0246,0.0299,0.0246,0.0096,-0.0064,-0.0171,-0.0246,-0.0342,-0.0416,-0.047,-0.0555,-0.0828,-0.1036,-0.1111,-0.0956,0,0,0,0,0,0,0,0,0,0,0,0,0,0,0,0,0,0,0,0,0,0,0,0,0,0,0,0,-0.0085,0.0027,0.0149,0.0203,0.0246,0.0251,0.0139,-0.0005,-0.0117,-0.0176,-0.0187,-0.0198,-0.0256,-0.0347,-0.0427,-0.0491,-0.0481,-0.0422,-0.04,0,0,0,0,0,0,0,0,0,0,0,0,0,0,0,0,0,0,0,0,0,0,0,0,0,0,0,0,0,0,0,0,0,0,0,-0.0139,-0.0224,-0.0166,-0.0085,-0.0032,-0.0053,-0.0133,-0.023,-0.032,-0.0358,-0.0363,-0.0342,0,0,0,0,0,0,0,0,0,0,0,0,0,0,0,0,0,0,0,0,0,0,0,0,0,0,0,0,0,0,0,0,0,0,0,0,0,0,0.0,0.0091,0.0053,0.0011,-0.0112,-0.0224,-0.0294,-0.031,-0.0267,0,0,0,0,0,0,0,0,0,0,0,0,0,0,0,0,0,0,0,0,0,0,0,0,0,0,0,0,0,0,0,0,0,0,0,0,0,0,0,0,0,0.0021,-0.0075,-0.0123,-0.0166,-0.0198,-0.0192,0,0,0,0,0,0,0,0,0,0,0,0,0,0,0,0,0,0,0,0,0,0,0,0,0,0,0,0,0,0,0,0,0,0,0,0,0,0,0,0,0,0,-0.0112,-0.0101,-0.0107,-0.0133,-0.0262,0,0,0,0,0,0,0,0,0,0,0,0,0,0,0,0,0,0,0,0,0,0,0,0,0,0,0,0,0,0,0,0,0,0,0,0,0,0,0,0,0,0,0,0,0,0,-0.0384,0,0,0,0,0,0,0,0,0,0,0,0,0,0,0,0,0,0,0,0,0,0,0,0,0,0,0,0,0,0,0,0,0,0,0,0,0,0,0,0,0,0,0,0,0,0,0,0,0,0,0,0,0,0,0,0,0,0,0,0,0,0,0,0,0,0,0,0,0,0,0,0,0,0,0,0,0,0,0,0,0,0,0,0,0,0,0,0,0,0,0,0,0,0,0,0,0,0,0,0,0,0,0,0,0,0,0,0,0,0,0,0,0,0,0,0,0,0,0,0,0,0,0,0,0,0,0,0,0,0,0,0,0,0,0,0,0,0,0,0,0,0,0,0,0,0,0,0,0,0,0,0,0,0,0,0,0,0,0,0,0,0,0,0,0,0,0,0,0,0,0,0,0,0,0,0,0,0,0,0,0,0,0,0,0,0,0,0,0,0,0,0,0,0,0,0,0,0,0,0,0,0,0,0,0,0,0,0,0,0,0,0,0,0,0,0,0,0,0,0,0,0,0,0,0,0,0,0,0,0,0,0,0,0,0,0,0,0,0,0,0,0,0,0,0,0,0,0,0,0,0,0,0,0,0,0,0,0,0,0,0,0,0,0,0,0,0,0,0,0,0,0,0,0,0,0,0,0,0,0,0,0,0,0,0,0,0,0,0,0,0,0,0,0,0,0,0,0,0,0,0,0,0,0,0,0,0,0,0,0,0,0,0,0,0,0,0,0,0,0,0,0,0,0,0,0,0,0,0,0,0,0,0,0,0,0,0,0,0,0,0,0,0,0,0,0,0,0,0,0,0,0,0,0,0,0,0,0,0,0,0,0,0,0,0,0,0,0,0,0,0,0,0,0,0,0,0,0,0,0,0,0,0,0,0,0,0,0,0,0,0,0,0,0,0,0,0,0,0,0,0,0,0,0,0,0,0,0,0,0,0,0,0,0,0,0,0,0,0,0,0,0,0,0,0,0,0,0,0,0,0,0,0,0,0,0,0,0,0,0,0,0,0,0,0,0,0,0,0,0,0,0,0,0,0,0,0,0,0,0,0,0,0,0,0,0,0,0,0,0,0,0,0,0,0,0,0,0,0,0,0,0,0,0,0,0,0,0,0,0,0,0,0,0,0,0,0,0,0,0,0,0,0,0,0,0,0,0,0,0,0,0,0,0,0,0,0,0,0,0,0,0,0,0,0,0,0,0,0,0,0,0,0,0,0,0,0,0,0,0,0,0,0,0,0,0,0,0,0,0,0,0,0,0,0,0,0,0,0,0,0,0,0,0,0,0,0,0,0,0,0,0,0,0,0,0,0,0,0,0,0,0,0,0,0,0,0,0,0,0,0,0,0,0,0,0,0,0,0,0,0,0,0,0,0,0,0,0,0,0,0,0,0,0,0,0,0,0,0,0,0,0,0,0,0,0,0,0,0,0,0,0,0,0,0,0,0,0,0,0,0,0,0,0,0,0,0,0,0,0,0,0,0,0,0,0,0,0,0,0,0,0,0,0,0,0,0,0,0,0,0,0,0,0,0,0,0,0,0,0,0,0,0,0,0,0,0,0,0,0,0,0,0,0,0,0,0,0,0,0,0,0,0,0,0]}]],[[{"header":{"parameterUnit":"kt","parameterCategory":2,"dx":1,"dy":1,"la1":29.764190673828125,"la2":30.86408042907715,"lo1":-88.46762084960938,"lo2":-86.9344482421875,"nx":47,"ny":34,"refTime":"2022-10-13T00:00:00:Z","depth":"20","parameterNumber":2,"parameterNumberName":"U-component_of_CURRENTS"},"data":[-0.0331,-0.0817,-0.1036,-0.0742,-0.0005,0.0545,0.0806,0.0924,0.0721,0.0336,0.0048,-0.0256,-0.0523,-0.071,-0.0726,-0.0529,-0.0304,-0.0176,-0.016,-0.0256,-0.0459,-0.0731,-0.0865,-0.094,-0.1052,-0.1046,-0.0881,-0.094,-0.1436,-0.189,-0.173,-0.1612,-0.1815,-0.1895,-0.1698,-0.1527,-0.1431,-0.1361,-0.1233,-0.1004,-0.0481,-0.0171,0.0224,0.0673,0.1223,0.181,0.2205,-0.0267,-0.0641,-0.1095,-0.1292,-0.0945,-0.0422,-0.0032,0.0091,0.0,-0.0155,-0.0374,-0.0571,-0.0689,-0.071,-0.0566,-0.0368,-0.023,-0.0144,-0.0128,-0.0256,-0.0438,-0.0523,-0.0625,-0.0881,-0.1217,-0.1383,-0.1388,-0.1308,-0.1105,-0.1292,-0.1516,-0.1436,-0.1415,-0.1426,-0.1351,-0.1217,-0.1121,-0.1105,-0.1009,-0.0705,-0.0166,0.04,0.0838,0.1191,0.1452,0.158,0.1655,-0.0304,-0.0432,-0.0641,-0.0763,-0.0699,-0.0545,-0.0395,-0.0336,-0.039,-0.0518,-0.0619,-0.0651,-0.063,-0.0497,-0.0326,-0.023,-0.0182,-0.0155,-0.0155,-0.0166,-0.0144,-0.0123,-0.023,-0.0566,-0.1095,-0.1543,-0.166,-0.1618,-0.1554,-0.1303,-0.1393,-0.1393,-0.118,-0.102,-0.0854,-0.0662,-0.0566,-0.0513,-0.04,-0.0048,0.0416,0.0769,0.0902,0.0918,0.0934,0.1041,0.1228,-0.0342,-0.0422,-0.0539,-0.0678,-0.0737,-0.0694,-0.0651,-0.0662,-0.0699,-0.0737,-0.0721,-0.0619,-0.0475,-0.0326,-0.024,-0.0214,-0.0198,-0.0176,-0.016,-0.0133,-0.0053,0.0059,0.008,-0.008,-0.0443,-0.1036,-0.1463,-0.1506,-0.1463,-0.1452,-0.1313,-0.1372,-0.1479,-0.1036,-0.0587,-0.0336,-0.0176,-0.0048,0.0155,0.0416,0.0699,0.0812,0.0812,0.0806,0.086,0.0988,0.118,-0.0278,-0.0368,-0.0491,-0.0635,-0.0763,-0.0854,-0.0886,-0.0865,-0.0796,-0.0694,-0.0582,-0.0486,-0.0422,-0.0379,-0.0363,-0.0342,-0.0294,-0.023,-0.0171,-0.0133,-0.0075,0.0011,0.0107,0.0144,0.008,-0.0123,-0.0416,-0.0614,-0.0763,-0.0982,-0.1148,-0.1137,-0.1025,-0.1383,-0.1185,-0.0448,0.0027,0.0107,0.031,0.0518,0.0737,0.0876,0.0913,0.0924,0.0945,0.0993,0.1121,-0.023,-0.0347,-0.0454,-0.0555,-0.0641,-0.0699,-0.0726,-0.0715,-0.0667,-0.0614,-0.0582,-0.0593,-0.0603,-0.0587,-0.0561,-0.0502,-0.0422,-0.0336,-0.0267,-0.023,-0.0214,-0.0182,-0.0096,0.0021,0.0128,0.0176,0.0117,0.0,-0.0096,-0.0219,-0.0486,-0.0785,-0.0849,-0.0753,-0.0956,-0.1153,-0.0689,0.0027,0.0395,0.0438,0.0641,0.0828,0.0924,0.0929,0.0908,0.0892,0.0929,-0.0363,-0.0427,-0.0475,-0.0523,-0.0577,-0.0641,-0.0699,-0.0753,-0.0785,-0.0806,-0.0817,-0.0817,-0.0801,-0.0758,-0.0705,-0.063,-0.0555,-0.0481,-0.0427,-0.0411,-0.0411,-0.039,-0.0315,-0.0182,-0.0037,0.0085,0.0128,0.0101,0.0043,-0.0059,-0.0219,-0.0395,-0.0539,-0.0657,-0.0641,-0.0593,-0.0635,-0.0689,-0.0219,0.0336,0.0694,0.0796,0.0865,0.0977,0.0993,0.0982,0.0982,-0.0838,-0.0833,-0.0828,-0.0833,-0.0849,-0.0886,-0.0929,-0.0945,-0.0956,-0.0961,-0.095,-0.0924,-0.0886,-0.0844,-0.0785,-0.0731,-0.0678,-0.0619,-0.0545,-0.047,-0.0406,-0.0358,-0.0336,-0.0304,-0.024,-0.0155,-0.0085,-0.0037,-0.0027,-0.0043,-0.0096,-0.0198,-0.0336,-0.0464,-0.0577,-0.0593,-0.0475,-0.0342,-0.0358,-0.0198,0.0096,0.0395,0.0587,0.0699,0.1041,0.126,0.1303,-0.1159,-0.1121,-0.1084,-0.1062,-0.1041,-0.1014,-0.0998,-0.0982,-0.0988,-0.0998,-0.1004,-0.0993,0,0,0,0,0,-0.0737,-0.0651,-0.0539,-0.0448,-0.04,-0.0384,-0.0363,-0.0299,-0.0224,-0.0155,-0.0107,-0.0085,-0.0085,-0.0101,-0.016,-0.0256,-0.0374,-0.0481,-0.0582,-0.0614,-0.0683,-0.0406,-0.0379,-0.0395,-0.0416,-0.024,0.0166,0.0635,0.1127,0.1361,0,0,0,0,-0.1046,-0.1009,-0.0977,0,0,0,0,0,0,0,0,0,0,0,0,0,0,0,0,0,-0.0331,-0.0224,-0.0155,-0.0123,-0.0107,-0.0096,-0.0096,-0.0133,-0.0208,-0.0304,-0.0411,-0.0529,-0.0651,-0.071,-0.1025,-0.1452,-0.1255,-0.1212,-0.1522,-0.1479,-0.0822,0.0043,0.0731,0,0,0,0,0,0,0,0,0,0,0,0,0,0,0,0,0,0,0,0,0,0,0,0,0,0,-0.016,-0.0139,-0.0123,-0.0091,-0.0059,-0.0064,-0.0123,-0.0214,-0.032,-0.0416,-0.0513,-0.063,-0.0753,-0.0892,-0.134,-0.2029,-0.2104,-0.1874,-0.1975,-0.1927,-0.1607,0,0,0,0,0,0,0,0,0,0,0,0,0,0,0,0,0,0,0,0,0,0,0,0,0,0,0,0,-0.0149,-0.0128,-0.0101,-0.0091,-0.0107,-0.016,-0.0235,-0.0315,-0.0374,-0.0416,-0.047,-0.0523,-0.0603,-0.086,-0.1324,-0.2061,-0.2355,-0.2104,-0.1911,0,0,0,0,0,0,0,0,0,0,0,0,0,0,0,0,0,0,0,0,0,0,0,0,0,0,0,0,0,-0.0267,-0.0267,-0.0267,-0.024,-0.0219,-0.0224,-0.0251,-0.0283,-0.0299,-0.0331,-0.0427,-0.055,-0.0646,-0.078,-0.1062,-0.1538,-0.2093,-0.236,0,0,0,0,0,0,0,0,0,0,0,0,0,0,0,0,0,0,0,0,0,0,0,0,0,0,0,0,0,0,0,0,0,0,0,0,0,-0.0203,-0.0283,-0.0422,-0.0609,-0.0812,-0.1025,-0.1228,-0.1351,-0.1511,-0.1783,0,0,0,0,0,0,0,0,0,0,0,0,0,0,0,0,0,0,0,0,0,0,0,0,0,0,0,0,0,0,0,0,0,0,0,0,0,0,-0.0294,-0.0416,-0.0571,-0.0763,-0.0924,-0.1014,-0.1046,-0.1078,-0.118,0,0,0,0,0,0,0,0,0,0,0,0,0,0,0,0,0,0,0,0,0,0,0,0,0,0,0,0,0,0,0,0,0,0,0,0,0,0,0,0,0,-0.0625,-0.0753,-0.0881,-0.0993,-0.1073,-0.1159,0,0,0,0,0,0,0,0,0,0,0,0,0,0,0,0,0,0,0,0,0,0,0,0,0,0,0,0,0,0,0,0,0,0,0,0,0,0,0,0,0,0,0,0,-0.0785,-0.0902,-0.1009,0,0,0,0,0,0,0,0,0,0,0,0,0,0,0,0,0,0,0,0,0,0,0,0,0,0,0,0,0,0,0,0,0,0,0,0,0,0,0,0,0,0,0,0,0,-0.0497,-0.0587,0,0,0,0,0,0,0,0,0,0,0,0,0,0,0,0,0,0,0,0,0,0,0,0,0,0,0,0,0,0,0,0,0,0,0,0,0,0,0,0,0,0,0,0,0,0,0,0,0,0,0,0,0,0,0,0,0,0,0,0,0,0,0,0,0,0,0,0,0,0,0,0,0,0,0,0,0,0,0,0,0,0,0,0,0,0,0,0,0,0,0,0,0,0,0,0,0,0,0,0,0,0,0,0,0,0,0,0,0,0,0,0,0,0,0,0,0,0,0,0,0,0,0,0,0,0,0,0,0,0,0,0,0,0,0,0,0,0,0,0,0,0,0,0,0,0,0,0,0,0,0,0,0,0,0,0,0,0,0,0,0,0,0,0,0,0,0,0,0,0,0,0,0,0,0,0,0,0,0,0,0,0,0,0,0,0,0,0,0,0,0,0,0,0,0,0,0,0,0,0,0,0,0,0,0,0,0,0,0,0,0,0,0,0,0,0,0,0,0,0,0,0,0,0,0,0,0,0,0,0,0,0,0,0,0,0,0,0,0,0,0,0,0,0,0,0,0,0,0,0,0,0,0,0,0,0,0,0,0,0,0,0,0,0,0,0,0,0,0,0,0,0,0,0,0,0,0,0,0,0,0,0,0,0,0,0,0,0,0,0,0,0,0,0,0,0,0,0,0,0,0,0,0,0,0,0,0,0,0,0,0,0,0,0,0,0,0,0,0,0,0,0,0,0,0,0,0,0,0,0,0,0,0,0,0,0,0,0,0,0,0,0,0,0,0,0,0,0,0,0,0,0,0,0,0,0,0,0,0,0,0,0,0,0,0,0,0,0,0,0,0,0,0,0,0,0,0,0,0,0,0,0,0,0,0,0,0,0,0,0,0,0,0,0,0,0,0,0,0,0,0,0,0,0,0,0,0,0,0,0,0,0,0,0,0,0,0,0,0,0,0,0,0,0,0,0,0,0,0,0,0,0,0,0,0,0,0,0,0,0,0,0,0,0,0,0,0,0,0,0,0,0,0,0,0,0,0,0,0,0,0,0,0,0,0,0,0,0,0,0,0,0,0,0,0,0,0,0,0,0,0,0,0,0,0,0,0,0,0,0,0,0,0,0,0,0,0,0,0,0,0,0,0,0,0,0,0,0,0,0,0,0,0,0,0,0,0,0,0,0,0,0,0,0,0,0,0,0,0,0,0,0,0,0,0,0,0,0,0,0,0,0,0,0,0,0,0,0,0,0,0,0,0,0,0,0,0,0,0,0,0,0,0,0,0,0,0,0,0,0,0,0,0,0,0,0,0,0,0,0,0,0,0,0,0,0,0,0,0,0,0,0,0,0,0,0,0,0,0,0,0,0,0,0,0,0,0,0,0,0,0,0,0,0,0,0,0,0,0,0,0,0,0,0,0,0,0,0,0,0,0,0,0,0,0,0,0,0,0,0,0,0,0,0,0,0,0,0,0,0,0,0,0,0,0,0,0,0,0,0,0,0,0,0,0,0,0,0,0,0,0,0,0,0,0,0,0,0,0,0,0,0,0,0,0,0,0,0,0,0,0,0,0,0,0,0,0,0,0,0,0,0,0,0,0,0,0,0,0,0,0,0,0,0,0,0,0,0,0,0,0,0,0,0,0,0,0,0,0,0,0,0,0,0,0,0,0,0,0,0,0,0,0,0,0,0,0,0,0,0,0,0]}],[{"header":{"parameterUnit":"kt","parameterCategory":2,"dx":1,"dy":1,"la1":29.764190673828125,"la2":30.86408042907715,"lo1":-88.46762084960938,"lo2":-86.9344482421875,"nx":47,"ny":34,"refTime":"2022-10-13T00:00:00:Z","depth":"20","parameterNumber":3,"parameterNumberName":"V-component_of_CURRENTS"},"data":[-0.0731,-0.0966,-0.0769,0.0053,0.0737,0.0977,0.086,0.0785,0.0913,0.1084,0.1148,0.1244,0.1426,0.1655,0.1666,0.1548,0.1383,0.1292,0.086,0.0646,0.0886,0.1009,0.0507,-0.0128,-0.0507,-0.0075,0.0443,0.0176,-0.0331,-0.0913,-0.1073,-0.102,-0.1132,-0.1265,-0.1361,-0.1388,-0.1335,-0.1249,-0.1052,-0.0726,-0.0593,-0.0368,-0.0064,0.0149,0.0224,0.0262,0.039,-0.0288,-0.0577,-0.0561,-0.0208,0.0363,0.0721,0.0881,0.1084,0.1233,0.1244,0.1255,0.1335,0.1516,0.1591,0.1399,0.1255,0.1212,0.1153,0.0934,0.0806,0.1004,0.1036,0.0534,0.0053,-0.0411,-0.0182,0.0331,0.0534,0.0016,-0.0352,-0.0913,-0.0998,-0.0902,-0.086,-0.0908,-0.0908,-0.0849,-0.0774,-0.0603,-0.0395,-0.0411,-0.0149,0.0053,0.0176,0.0272,0.0347,0.0497,-0.0149,-0.0203,-0.0198,-0.0016,0.0379,0.071,0.0966,0.1132,0.1207,0.1228,0.1249,0.1313,0.1372,0.1303,0.1121,0.1078,0.1105,0.1057,0.0945,0.0892,0.095,0.095,0.0689,0.0406,-0.0021,-0.0117,0.0203,0.0219,0.0096,-0.0166,-0.0278,-0.0747,-0.102,-0.0763,-0.0587,-0.0603,-0.0619,-0.0593,-0.0427,-0.0272,-0.0214,-0.0021,0.0123,0.0155,0.0128,0.008,0.0176,-0.008,-0.0053,-0.0027,0.0123,0.0384,0.0614,0.0833,0.0988,0.1073,0.1127,0.1116,0.11,0.1084,0.103,0.0961,0.0998,0.1041,0.0998,0.0902,0.0822,0.0796,0.0817,0.079,0.071,0.0534,0.0235,0.0192,0.0101,-0.0123,-0.0208,-0.0208,-0.0336,-0.0721,-0.0956,-0.0753,-0.0534,-0.0454,-0.04,-0.0358,-0.0224,-0.0085,0.0048,0.0032,-0.0048,-0.0133,-0.0219,-0.0139,-0.0016,0.0048,0.0112,0.0198,0.0326,0.0491,0.0657,0.0828,0.094,0.0966,0.0902,0.087,0.0902,0.0913,0.0902,0.0945,0.0956,0.0913,0.0833,0.0737,0.0657,0.0667,0.0737,0.0801,0.0828,0.0651,0.0347,0.016,0.0048,-0.016,-0.031,-0.0198,-0.0384,-0.0587,-0.0897,-0.0988,-0.0678,-0.0486,-0.0294,-0.0246,-0.0171,-0.0101,-0.0091,-0.0182,-0.0267,-0.0347,-0.0299,0.008,0.0155,0.0235,0.0315,0.0395,0.0497,0.0609,0.0726,0.0812,0.0844,0.0833,0.0844,0.0881,0.0892,0.0881,0.087,0.0849,0.0806,0.0742,0.0657,0.0582,0.0566,0.063,0.0726,0.079,0.0737,0.0464,0.0267,0.0219,0.0112,-0.0128,-0.0294,-0.0171,-0.0411,-0.0566,-0.0737,-0.1025,-0.1084,-0.0897,-0.0662,-0.0539,-0.0481,-0.0422,-0.0454,-0.0497,-0.0566,-0.0577,0.0182,0.0235,0.031,0.0384,0.0459,0.055,0.0651,0.0747,0.0812,0.0854,0.0876,0.0892,0.0897,0.0876,0.0838,0.0785,0.0747,0.0699,0.0651,0.0593,0.0534,0.0486,0.0513,0.0598,0.0657,0.0614,0.0427,0.0262,0.0224,0.024,0.0149,-0.008,-0.0198,-0.0128,-0.0331,-0.0555,-0.0635,-0.0918,-0.1137,-0.1297,-0.1255,-0.1185,-0.1052,-0.0961,-0.0961,-0.1009,-0.103,0.023,0.0272,0.0347,0.0422,0.0513,0.0625,0.0737,0.0822,0.0865,0.0892,0.0892,0.0886,0.0865,0.0833,0.0785,0.0721,0.0667,0.0603,0.0539,0.0475,0.0379,0.0278,0.0406,0.0486,0.0523,0.0481,0.0336,0.0187,0.0171,0.024,0.0224,0.0075,-0.0037,-0.0075,-0.0176,-0.0235,-0.0448,-0.0683,-0.078,-0.0988,-0.1292,-0.1532,-0.1703,-0.1602,-0.1484,-0.1404,-0.1383,0.0235,0.0283,0.0363,0.0443,0.0534,0.0651,0.0769,0.0854,0.0892,0.0897,0.0876,0.0849,0,0,0,0,0,0.0502,0.0384,0.0288,0.0208,0.0192,0.0358,0.04,0.0395,0.0315,0.0198,0.0075,0.0085,0.0187,0.0214,0.0149,0.0069,0.0021,-0.0069,-0.0198,-0.0251,-0.0518,-0.0812,-0.0988,-0.0918,-0.1073,-0.15,-0.1773,-0.1847,-0.1735,-0.1655,0,0,0,0,0.0529,0.0641,0.078,0,0,0,0,0,0,0,0,0,0,0,0,0,0,0,0,0,0.0267,0.0123,0.0059,-0.0021,0.0005,0.0117,0.0171,0.016,0.0139,0.0117,0.0043,-0.0091,-0.0219,-0.0363,-0.0635,-0.0913,-0.1196,-0.1228,-0.1255,-0.1586,-0.1746,-0.1815,-0.181,0,0,0,0,0,0,0,0,0,0,0,0,0,0,0,0,0,0,0,0,0,0,0,0,0,0,-0.0027,-0.008,-0.0048,0.0043,0.0107,0.0149,0.0182,0.0203,0.0155,0.0021,-0.0133,-0.0246,-0.0331,-0.0833,-0.1014,-0.1303,-0.1682,-0.1869,-0.1538,-0.1575,-0.1452,0,0,0,0,0,0,0,0,0,0,0,0,0,0,0,0,0,0,0,0,0,0,0,0,0,0,0,0,-0.0064,-0.0011,0.0059,0.0133,0.0208,0.0262,0.0219,0.008,-0.0075,-0.0171,-0.0278,-0.0416,-0.0571,-0.1084,-0.1452,-0.1714,-0.1783,-0.2114,-0.1853,0,0,0,0,0,0,0,0,0,0,0,0,0,0,0,0,0,0,0,0,0,0,0,0,0,0,0,0,0,0.0,0.008,0.0144,0.0219,0.0272,0.0224,0.008,-0.0075,-0.0171,-0.0251,-0.0347,-0.0432,-0.0545,-0.0806,-0.1159,-0.1303,-0.1148,-0.0886,0,0,0,0,0,0,0,0,0,0,0,0,0,0,0,0,0,0,0,0,0,0,0,0,0,0,0,0,0,0,0,0,0,0,0,0,0,-0.0192,-0.0198,-0.0203,-0.0262,-0.0347,-0.0432,-0.0513,-0.0619,-0.0699,-0.0657,0,0,0,0,0,0,0,0,0,0,0,0,0,0,0,0,0,0,0,0,0,0,0,0,0,0,0,0,0,0,0,0,0,0,0,0,0,0,-0.0091,-0.0032,-0.0043,-0.0112,-0.0208,-0.0304,-0.0352,-0.0368,-0.0336,0,0,0,0,0,0,0,0,0,0,0,0,0,0,0,0,0,0,0,0,0,0,0,0,0,0,0,0,0,0,0,0,0,0,0,0,0,0,0,0,0,0.0027,-0.0085,-0.0187,-0.0267,-0.0294,-0.0267,0,0,0,0,0,0,0,0,0,0,0,0,0,0,0,0,0,0,0,0,0,0,0,0,0,0,0,0,0,0,0,0,0,0,0,0,0,0,0,0,0,0,0,0,-0.0144,-0.0171,-0.0171,0,0,0,0,0,0,0,0,0,0,0,0,0,0,0,0,0,0,0,0,0,0,0,0,0,0,0,0,0,0,0,0,0,0,0,0,0,0,0,0,0,0,0,0,0,-0.0107,-0.0251,0,0,0,0,0,0,0,0,0,0,0,0,0,0,0,0,0,0,0,0,0,0,0,0,0,0,0,0,0,0,0,0,0,0,0,0,0,0,0,0,0,0,0,0,0,0,0,0,0,0,0,0,0,0,0,0,0,0,0,0,0,0,0,0,0,0,0,0,0,0,0,0,0,0,0,0,0,0,0,0,0,0,0,0,0,0,0,0,0,0,0,0,0,0,0,0,0,0,0,0,0,0,0,0,0,0,0,0,0,0,0,0,0,0,0,0,0,0,0,0,0,0,0,0,0,0,0,0,0,0,0,0,0,0,0,0,0,0,0,0,0,0,0,0,0,0,0,0,0,0,0,0,0,0,0,0,0,0,0,0,0,0,0,0,0,0,0,0,0,0,0,0,0,0,0,0,0,0,0,0,0,0,0,0,0,0,0,0,0,0,0,0,0,0,0,0,0,0,0,0,0,0,0,0,0,0,0,0,0,0,0,0,0,0,0,0,0,0,0,0,0,0,0,0,0,0,0,0,0,0,0,0,0,0,0,0,0,0,0,0,0,0,0,0,0,0,0,0,0,0,0,0,0,0,0,0,0,0,0,0,0,0,0,0,0,0,0,0,0,0,0,0,0,0,0,0,0,0,0,0,0,0,0,0,0,0,0,0,0,0,0,0,0,0,0,0,0,0,0,0,0,0,0,0,0,0,0,0,0,0,0,0,0,0,0,0,0,0,0,0,0,0,0,0,0,0,0,0,0,0,0,0,0,0,0,0,0,0,0,0,0,0,0,0,0,0,0,0,0,0,0,0,0,0,0,0,0,0,0,0,0,0,0,0,0,0,0,0,0,0,0,0,0,0,0,0,0,0,0,0,0,0,0,0,0,0,0,0,0,0,0,0,0,0,0,0,0,0,0,0,0,0,0,0,0,0,0,0,0,0,0,0,0,0,0,0,0,0,0,0,0,0,0,0,0,0,0,0,0,0,0,0,0,0,0,0,0,0,0,0,0,0,0,0,0,0,0,0,0,0,0,0,0,0,0,0,0,0,0,0,0,0,0,0,0,0,0,0,0,0,0,0,0,0,0,0,0,0,0,0,0,0,0,0,0,0,0,0,0,0,0,0,0,0,0,0,0,0,0,0,0,0,0,0,0,0,0,0,0,0,0,0,0,0,0,0,0,0,0,0,0,0,0,0,0,0,0,0,0,0,0,0,0,0,0,0,0,0,0,0,0,0,0,0,0,0,0,0,0,0,0,0,0,0,0,0,0,0,0,0,0,0,0,0,0,0,0,0,0,0,0,0,0,0,0,0,0,0,0,0,0,0,0,0,0,0,0,0,0,0,0,0,0,0,0,0,0,0,0,0,0,0,0,0,0,0,0,0,0,0,0,0,0,0,0,0,0,0,0,0,0,0,0,0,0,0,0,0,0,0,0,0,0,0,0,0,0,0,0,0,0,0,0,0,0,0,0,0,0,0,0,0,0,0,0,0,0,0,0,0,0,0,0,0,0,0,0,0,0,0,0,0,0,0,0,0,0,0,0,0,0,0,0,0,0,0,0,0,0,0,0,0,0,0,0,0,0,0,0,0,0,0,0,0,0,0,0,0,0,0,0,0,0,0,0,0,0,0,0,0,0,0,0,0,0,0,0,0,0,0,0,0,0,0,0,0,0,0,0,0,0,0,0,0,0,0,0,0,0,0,0,0]}]],[[{"header":{"parameterUnit":"kt","parameterCategory":2,"dx":1,"dy":1,"la1":29.764190673828125,"la2":30.86408042907715,"lo1":-88.46762084960938,"lo2":-86.9344482421875,"nx":47,"ny":34,"refTime":"2022-10-13T00:00:00:Z","depth":"25","parameterNumber":2,"parameterNumberName":"U-component_of_CURRENTS"},"data":[-0.0219,-0.0646,-0.0662,-0.0609,-0.0545,-0.0411,-0.0486,-0.0582,-0.0283,-0.0091,-0.0336,-0.0459,-0.0555,-0.0694,-0.0694,-0.0497,-0.0283,-0.0176,-0.0251,-0.0379,-0.0539,-0.0753,-0.086,-0.0956,-0.1121,-0.1244,-0.1356,-0.1991,-0.2686,-0.2734,-0.3006,-0.3171,-0.3129,-0.2969,-0.2888,-0.2771,-0.2659,-0.2536,-0.2328,-0.2141,-0.1965,-0.1757,-0.1329,-0.0662,0.0123,0.0972,0.1719,-0.0256,-0.0742,-0.1271,-0.1367,-0.1324,-0.1233,-0.1073,-0.0689,-0.0416,-0.0454,-0.0497,-0.0571,-0.0678,-0.0694,-0.0545,-0.0347,-0.0224,-0.0144,-0.0144,-0.0283,-0.0454,-0.0518,-0.0614,-0.0897,-0.1255,-0.1404,-0.1393,-0.142,-0.1949,-0.2616,-0.2734,-0.2974,-0.3027,-0.2947,-0.2766,-0.2643,-0.2616,-0.2557,-0.2488,-0.2226,-0.1778,-0.118,-0.0406,0.0326,0.0998,0.1436,0.1623,-0.032,-0.0459,-0.0785,-0.102,-0.1078,-0.0956,-0.0737,-0.0683,-0.0683,-0.0609,-0.0603,-0.0641,-0.0614,-0.0475,-0.031,-0.0219,-0.0176,-0.0155,-0.0166,-0.0187,-0.016,-0.0117,-0.0224,-0.0577,-0.1132,-0.157,-0.1655,-0.1607,-0.1612,-0.1783,-0.2269,-0.2627,-0.2792,-0.2712,-0.2547,-0.2355,-0.2301,-0.2285,-0.2178,-0.1692,-0.0918,-0.0112,0.0518,0.078,0.0881,0.103,0.1228,-0.0352,-0.0427,-0.0545,-0.0683,-0.0731,-0.0731,-0.0747,-0.0715,-0.0699,-0.0726,-0.071,-0.0614,-0.0464,-0.0315,-0.0224,-0.0203,-0.0187,-0.0166,-0.016,-0.0144,-0.0064,0.0053,0.008,-0.0069,-0.0459,-0.1041,-0.1415,-0.1436,-0.142,-0.1474,-0.1543,-0.1895,-0.2413,-0.2638,-0.2563,-0.2061,-0.1607,-0.1538,-0.1297,-0.0929,-0.0235,0.0454,0.0731,0.079,0.0854,0.0977,0.1169,-0.0294,-0.0379,-0.0497,-0.0635,-0.0758,-0.0849,-0.0876,-0.0854,-0.078,-0.0683,-0.0571,-0.0481,-0.0411,-0.0358,-0.0342,-0.0326,-0.0278,-0.0214,-0.0171,-0.0139,-0.0091,0.0005,0.0107,0.0155,0.0085,-0.0096,-0.0315,-0.0475,-0.071,-0.0982,-0.1121,-0.1137,-0.1404,-0.204,-0.2605,-0.2734,-0.2178,-0.1175,-0.0614,-0.0347,0.0005,0.0507,0.0838,0.0908,0.0934,0.0982,0.1105,-0.024,-0.0358,-0.0459,-0.0555,-0.0641,-0.0694,-0.0721,-0.0705,-0.0657,-0.0598,-0.0571,-0.0571,-0.0571,-0.0555,-0.0534,-0.0481,-0.04,-0.032,-0.0262,-0.023,-0.0219,-0.0187,-0.0101,0.0027,0.0139,0.0192,0.0128,-0.0005,-0.0123,-0.023,-0.0454,-0.0721,-0.0892,-0.1228,-0.1815,-0.2461,-0.2686,-0.2317,-0.1532,-0.079,-0.0235,0.0101,0.0481,0.0763,0.0881,0.0876,0.0913,-0.0368,-0.0432,-0.0481,-0.0523,-0.0571,-0.063,-0.0683,-0.0726,-0.0753,-0.0769,-0.0785,-0.0785,0,0,0,0,0,-0.0464,-0.0416,-0.04,-0.0406,-0.039,-0.031,-0.0182,-0.0032,0.0085,0.0128,0.0091,0.0016,-0.0128,-0.0267,-0.039,-0.0577,-0.0715,-0.0934,-0.1837,-0.2125,-0.2424,-0.2392,-0.204,-0.1484,-0.087,-0.0534,-0.0091,0.0502,0.0892,0.094,-0.0828,-0.0822,-0.0812,-0.0812,-0.0828,-0.086,-0.0892,0,0,0,0,0,0,0,0,0,0,0,0,0,0,0,0,-0.0299,-0.0235,-0.0155,-0.0091,-0.0053,-0.0043,-0.0075,-0.0246,-0.0438,-0.0491,-0.0523,-0.0598,-0.0796,-0.1719,-0.1938,-0.2221,-0.2253,-0.228,-0.2061,-0.166,-0.1143,-0.0555,0.0224,0.071,0,0,0,0,0,0,0,0,0,0,0,0,0,0,0,0,0,0,0,0,0,0,0,0,0,0,-0.0155,-0.0123,-0.0101,-0.0096,-0.0128,-0.0214,-0.0331,-0.0438,-0.0523,-0.0582,-0.0785,-0.1666,-0.2072,-0.1949,-0.2322,-0.2691,-0.2563,-0.2056,-0.1388,-0.0598,0.0101,0,0,0,0,0,0,0,0,0,0,0,0,0,0,0,0,0,0,0,0,0,0,0,0,0,0,0,0,0,-0.0096,-0.0101,-0.0155,-0.024,-0.0352,-0.0454,-0.0555,-0.063,-0.078,-0.1228,-0.1879,-0.2381,-0.2509,-0.3006,-0.3123,-0.275,-0.2024,-0.1356,0,0,0,0,0,0,0,0,0,0,0,0,0,0,0,0,0,0,0,0,0,0,0,0,0,0,0,0,0,0,0,0,0,-0.024,-0.0347,-0.0443,-0.0529,-0.0598,-0.0646,-0.0838,-0.1095,-0.149,-0.2098,-0.2638,-0.299,-0.2947,-0.2947,0,0,0,0,0,0,0,0,0,0,0,0,0,0,0,0,0,0,0,0,0,0,0,0,0,0,0,0,0,0,0,0,0,0,0,0,0,-0.0427,-0.047,-0.0518,-0.0609,-0.0774,-0.0801,-0.1062,-0.2077,-0.2995,-0.2979,0,0,0,0,0,0,0,0,0,0,0,0,0,0,0,0,0,0,0,0,0,0,0,0,0,0,0,0,0,0,0,0,0,0,0,0,0,0,-0.0342,-0.0438,-0.0561,-0.0651,-0.0774,-0.0934,-0.0961,-0.1105,-0.1842,0,0,0,0,0,0,0,0,0,0,0,0,0,0,0,0,0,0,0,0,0,0,0,0,0,0,0,0,0,0,0,0,0,0,0,0,0,0,0,-0.0432,-0.0619,-0.0806,-0.1009,-0.1169,-0.1201,-0.1185,-0.1297,0,0,0,0,0,0,0,0,0,0,0,0,0,0,0,0,0,0,0,0,0,0,0,0,0,0,0,0,0,0,0,0,0,0,0,0,0,0,0,0,0,0,0,0,-0.1009,-0.1036,-0.1137,0,0,0,0,0,0,0,0,0,0,0,0,0,0,0,0,0,0,0,0,0,0,0,0,0,0,0,0,0,0,0,0,0,0,0,0,0,0,0,0,0,0,0,0,0,0,0,0,0,0,0,0,0,0,0,0,0,0,0,0,0,0,0,0,0,0,0,0,0,0,0,0,0,0,0,0,0,0,0,0,0,0,0,0,0,0,0,0,0,0,0,0,0,0,0,0,0,0,0,0,0,0,0,0,0,0,0,0,0,0,0,0,0,0,0,0,0,0,0,0,0,0,0,0,0,0,0,0,0,0,0,0,0,0,0,0,0,0,0,0,0,0,0,0,0,0,0,0,0,0,0,0,0,0,0,0,0,0,0,0,0,0,0,0,0,0,0,0,0,0,0,0,0,0,0,0,0,0,0,0,0,0,0,0,0,0,0,0,0,0,0,0,0,0,0,0,0,0,0,0,0,0,0,0,0,0,0,0,0,0,0,0,0,0,0,0,0,0,0,0,0,0,0,0,0,0,0,0,0,0,0,0,0,0,0,0,0,0,0,0,0,0,0,0,0,0,0,0,0,0,0,0,0,0,0,0,0,0,0,0,0,0,0,0,0,0,0,0,0,0,0,0,0,0,0,0,0,0,0,0,0,0,0,0,0,0,0,0,0,0,0,0,0,0,0,0,0,0,0,0,0,0,0,0,0,0,0,0,0,0,0,0,0,0,0,0,0,0,0,0,0,0,0,0,0,0,0,0,0,0,0,0,0,0,0,0,0,0,0,0,0,0,0,0,0,0,0,0,0,0,0,0,0,0,0,0,0,0,0,0,0,0,0,0,0,0,0,0,0,0,0,0,0,0,0,0,0,0,0,0,0,0,0,0,0,0,0,0,0,0,0,0,0,0,0,0,0,0,0,0,0,0,0,0,0,0,0,0,0,0,0,0,0,0,0,0,0,0,0,0,0,0,0,0,0,0,0,0,0,0,0,0,0,0,0,0,0,0,0,0,0,0,0,0,0,0,0,0,0,0,0,0,0,0,0,0,0,0,0,0,0,0,0,0,0,0,0,0,0,0,0,0,0,0,0,0,0,0,0,0,0,0,0,0,0,0,0,0,0,0,0,0,0,0,0,0,0,0,0,0,0,0,0,0,0,0,0,0,0,0,0,0,0,0,0,0,0,0,0,0,0,0,0,0,0,0,0,0,0,0,0,0,0,0,0,0,0,0,0,0,0,0,0,0,0,0,0,0,0,0,0,0,0,0,0,0,0,0,0,0,0,0,0,0,0,0,0,0,0,0,0,0,0,0,0,0,0,0,0,0,0,0,0,0,0,0,0,0,0,0,0,0,0,0,0,0,0,0,0,0,0,0,0,0,0,0,0,0,0,0,0,0,0,0,0,0,0,0,0,0,0,0,0,0,0,0,0,0,0,0,0,0,0,0,0,0,0,0,0,0,0,0,0,0,0,0,0,0,0,0,0,0,0,0,0,0,0,0,0,0,0,0,0,0,0,0,0,0,0,0,0,0,0,0,0,0,0,0,0,0,0,0,0,0,0,0,0,0,0,0,0,0,0,0,0,0,0,0,0,0,0,0,0,0,0,0,0,0,0,0,0,0,0,0,0,0,0,0,0,0,0,0,0,0,0,0,0,0,0,0,0,0,0,0,0,0,0,0,0,0,0,0,0,0,0,0,0,0,0,0,0,0,0,0,0,0,0,0,0,0,0,0,0,0,0,0,0,0,0,0,0,0,0,0,0,0,0,0,0,0,0,0,0,0,0,0,0,0,0,0,0,0,0,0,0,0,0,0,0,0,0,0,0,0,0,0,0,0,0,0,0,0,0,0,0,0,0,0,0,0,0,0,0,0,0,0,0,0,0,0,0,0,0,0,0,0,0,0,0,0,0,0,0,0,0,0,0,0,0,0,0,0,0,0,0,0,0,0,0,0,0,0,0,0,0,0,0,0,0,0,0,0,0,0,0,0,0,0,0,0,0,0,0,0,0,0,0,0,0,0,0,0,0]}],[{"header":{"parameterUnit":"kt","parameterCategory":2,"dx":1,"dy":1,"la1":29.764190673828125,"la2":30.86408042907715,"lo1":-88.46762084960938,"lo2":-86.9344482421875,"nx":47,"ny":34,"refTime":"2022-10-13T00:00:00:Z","depth":"25","parameterNumber":3,"parameterNumberName":"V-component_of_CURRENTS"},"data":[-0.0721,-0.0988,-0.0416,0.0326,0.0881,0.1068,0.1004,0.0769,0.063,0.0796,0.0673,0.0844,0.1281,0.165,0.165,0.1527,0.1367,0.1276,0.0774,0.0635,0.0892,0.1009,0.0513,-0.0112,-0.0422,-0.008,0.0219,0.0278,0.0587,0.0475,-0.0315,-0.0577,-0.0561,-0.0747,-0.0972,-0.1057,-0.0982,-0.0812,-0.0561,-0.032,-0.0336,-0.0288,-0.032,-0.0326,-0.0149,0.0027,0.0262,-0.0352,-0.0561,-0.0422,-0.008,0.0448,0.0769,0.0881,0.087,0.0902,0.0833,0.0913,0.1169,0.1516,0.157,0.1372,0.1223,0.1185,0.1127,0.0924,0.0806,0.1004,0.1036,0.0539,0.0075,-0.0326,-0.0149,0.0326,0.023,0.0048,0.0304,0.0085,-0.0667,-0.0876,-0.0785,-0.0902,-0.1036,-0.1009,-0.0902,-0.0598,-0.0443,-0.0374,-0.0347,-0.0342,-0.0235,-0.0053,0.0149,0.0411,-0.0139,-0.0219,-0.0283,-0.0011,0.0278,0.0486,0.0635,0.0806,0.0902,0.0993,0.1175,0.1303,0.1361,0.1255,0.1084,0.1046,0.1073,0.1025,0.0924,0.0881,0.0945,0.0945,0.0683,0.0411,0.0032,-0.0032,0.0246,0.0235,-0.0005,-0.0155,0.0198,-0.0214,-0.0908,-0.1073,-0.0924,-0.0881,-0.079,-0.086,-0.0753,-0.0566,-0.04,-0.0368,-0.0288,-0.0112,-0.0005,0.0048,0.0149,-0.0069,-0.0043,-0.0021,0.0112,0.0278,0.0395,0.0561,0.078,0.103,0.1111,0.1105,0.1078,0.1057,0.0993,0.0924,0.0956,0.0998,0.0966,0.0881,0.0806,0.0785,0.0806,0.0774,0.0699,0.055,0.0342,0.0288,0.0208,-0.0021,-0.0107,-0.0176,0.0011,-0.0427,-0.0961,-0.1228,-0.1153,-0.086,-0.0849,-0.0742,-0.0635,-0.0529,-0.0358,-0.0214,-0.0117,-0.0208,-0.0262,-0.0171,-0.0011,0.0053,0.0112,0.0198,0.0326,0.0481,0.0641,0.0801,0.0908,0.094,0.0881,0.0844,0.0881,0.0881,0.087,0.0902,0.0918,0.0881,0.0806,0.0715,0.0646,0.0657,0.0726,0.0785,0.0817,0.0689,0.0438,0.032,0.023,0.0075,0.0091,-0.0123,-0.0299,-0.0448,-0.0929,-0.1223,-0.1495,-0.1367,-0.0993,-0.0865,-0.0705,-0.0555,-0.0363,-0.0283,-0.0331,-0.0416,-0.0347,0.0075,0.0149,0.023,0.0304,0.0384,0.0486,0.0593,0.0705,0.0785,0.0817,0.0806,0.0817,0.0849,0.086,0.0849,0.0838,0.0822,0.078,0.0721,0.0641,0.0577,0.0566,0.063,0.0721,0.078,0.071,0.0443,0.0272,0.0272,0.0235,0.031,0.0448,-0.0214,-0.0502,-0.0566,-0.0897,-0.1116,-0.1415,-0.15,-0.1516,-0.134,-0.1148,-0.1025,-0.0785,-0.0641,-0.063,-0.0641,0.0171,0.0219,0.0294,0.0363,0.0438,0.0529,0.0625,0.0715,0.0785,0.0822,0.0849,0.0865,0,0,0,0,0,0.0683,0.0635,0.0582,0.0518,0.0459,0.0502,0.0587,0.0641,0.0593,0.04,0.0235,0.0176,0.0203,0.0278,0.0448,0.0133,-0.0182,-0.055,-0.0822,-0.0988,-0.1046,-0.1036,-0.1442,-0.181,-0.1826,-0.1725,-0.1676,-0.157,-0.1196,-0.1217,0.0224,0.0262,0.0331,0.04,0.0491,0.0603,0.071,0,0,0,0,0,0,0,0,0,0,0,0,0,0,0,0,0.0459,0.0491,0.0395,0.0288,0.0144,0.0112,0.0198,0.0155,0.0246,0.0171,-0.0048,-0.0198,-0.0566,-0.1036,-0.1143,-0.1068,-0.1132,-0.1191,-0.1436,-0.1837,-0.1949,-0.1959,-0.2007,-0.2013,0,0,0,0,0,0,0,0,0,0,0,0,0,0,0,0,0,0,0,0,0,0,0,0,0,0,0.0144,0.0032,-0.0027,0.0139,0.0171,0.0133,0.008,0.0027,-0.0059,-0.0267,-0.0683,-0.11,-0.1073,-0.1095,-0.11,-0.1265,-0.1383,-0.1714,-0.1949,-0.2125,-0.2301,0,0,0,0,0,0,0,0,0,0,0,0,0,0,0,0,0,0,0,0,0,0,0,0,0,0,0,0,0,0.0075,0.0133,0.0139,0.0133,0.0123,0.0053,-0.0085,-0.0326,-0.0774,-0.0769,-0.1201,-0.126,-0.1191,-0.1281,-0.1751,-0.1586,-0.149,-0.1442,0,0,0,0,0,0,0,0,0,0,0,0,0,0,0,0,0,0,0,0,0,0,0,0,0,0,0,0,0,0,0,0,0,0.0198,0.016,0.0027,-0.0128,-0.031,-0.0571,-0.0945,-0.0897,-0.1319,-0.1415,-0.1575,-0.1319,-0.1532,-0.1436,0,0,0,0,0,0,0,0,0,0,0,0,0,0,0,0,0,0,0,0,0,0,0,0,0,0,0,0,0,0,0,0,0,0,0,0,0,-0.0171,-0.0278,-0.0443,-0.0678,-0.0945,-0.1062,-0.1474,-0.1623,-0.1324,-0.0806,0,0,0,0,0,0,0,0,0,0,0,0,0,0,0,0,0,0,0,0,0,0,0,0,0,0,0,0,0,0,0,0,0,0,0,0,0,0,-0.0246,-0.0347,-0.0438,-0.0566,-0.0812,-0.1036,-0.1068,-0.1111,-0.1073,0,0,0,0,0,0,0,0,0,0,0,0,0,0,0,0,0,0,0,0,0,0,0,0,0,0,0,0,0,0,0,0,0,0,0,0,0,0,0,-0.0203,-0.0251,-0.0336,-0.0422,-0.0513,-0.063,-0.0726,-0.0726,0,0,0,0,0,0,0,0,0,0,0,0,0,0,0,0,0,0,0,0,0,0,0,0,0,0,0,0,0,0,0,0,0,0,0,0,0,0,0,0,0,0,0,0,-0.0342,-0.0363,-0.0326,0,0,0,0,0,0,0,0,0,0,0,0,0,0,0,0,0,0,0,0,0,0,0,0,0,0,0,0,0,0,0,0,0,0,0,0,0,0,0,0,0,0,0,0,0,0,0,0,0,0,0,0,0,0,0,0,0,0,0,0,0,0,0,0,0,0,0,0,0,0,0,0,0,0,0,0,0,0,0,0,0,0,0,0,0,0,0,0,0,0,0,0,0,0,0,0,0,0,0,0,0,0,0,0,0,0,0,0,0,0,0,0,0,0,0,0,0,0,0,0,0,0,0,0,0,0,0,0,0,0,0,0,0,0,0,0,0,0,0,0,0,0,0,0,0,0,0,0,0,0,0,0,0,0,0,0,0,0,0,0,0,0,0,0,0,0,0,0,0,0,0,0,0,0,0,0,0,0,0,0,0,0,0,0,0,0,0,0,0,0,0,0,0,0,0,0,0,0,0,0,0,0,0,0,0,0,0,0,0,0,0,0,0,0,0,0,0,0,0,0,0,0,0,0,0,0,0,0,0,0,0,0,0,0,0,0,0,0,0,0,0,0,0,0,0,0,0,0,0,0,0,0,0,0,0,0,0,0,0,0,0,0,0,0,0,0,0,0,0,0,0,0,0,0,0,0,0,0,0,0,0,0,0,0,0,0,0,0,0,0,0,0,0,0,0,0,0,0,0,0,0,0,0,0,0,0,0,0,0,0,0,0,0,0,0,0,0,0,0,0,0,0,0,0,0,0,0,0,0,0,0,0,0,0,0,0,0,0,0,0,0,0,0,0,0,0,0,0,0,0,0,0,0,0,0,0,0,0,0,0,0,0,0,0,0,0,0,0,0,0,0,0,0,0,0,0,0,0,0,0,0,0,0,0,0,0,0,0,0,0,0,0,0,0,0,0,0,0,0,0,0,0,0,0,0,0,0,0,0,0,0,0,0,0,0,0,0,0,0,0,0,0,0,0,0,0,0,0,0,0,0,0,0,0,0,0,0,0,0,0,0,0,0,0,0,0,0,0,0,0,0,0,0,0,0,0,0,0,0,0,0,0,0,0,0,0,0,0,0,0,0,0,0,0,0,0,0,0,0,0,0,0,0,0,0,0,0,0,0,0,0,0,0,0,0,0,0,0,0,0,0,0,0,0,0,0,0,0,0,0,0,0,0,0,0,0,0,0,0,0,0,0,0,0,0,0,0,0,0,0,0,0,0,0,0,0,0,0,0,0,0,0,0,0,0,0,0,0,0,0,0,0,0,0,0,0,0,0,0,0,0,0,0,0,0,0,0,0,0,0,0,0,0,0,0,0,0,0,0,0,0,0,0,0,0,0,0,0,0,0,0,0,0,0,0,0,0,0,0,0,0,0,0,0,0,0,0,0,0,0,0,0,0,0,0,0,0,0,0,0,0,0,0,0,0,0,0,0,0,0,0,0,0,0,0,0,0,0,0,0,0,0,0,0,0,0,0,0,0,0,0,0,0,0,0,0,0,0,0,0,0,0,0,0,0,0,0,0,0,0,0,0,0,0,0,0,0,0,0,0,0,0,0,0,0,0,0,0,0,0,0,0,0,0,0,0,0,0,0,0,0,0,0,0,0,0,0,0,0,0,0,0,0,0,0,0,0,0,0,0,0,0,0,0,0,0,0,0,0,0,0,0,0,0,0,0,0,0,0,0,0,0,0,0,0,0,0,0,0,0,0,0,0,0,0,0,0,0,0,0,0,0,0,0,0,0,0,0,0,0,0,0,0,0,0,0,0,0,0,0,0,0,0,0,0,0,0,0,0,0,0,0,0,0,0,0,0,0,0,0,0,0,0,0,0,0,0,0,0,0,0,0,0,0,0,0,0,0,0,0,0,0,0,0,0,0,0,0,0,0,0,0,0,0,0,0,0,0,0,0,0,0,0,0,0,0,0,0,0,0,0,0,0,0,0,0,0,0,0,0,0,0,0,0,0,0,0,0,0,0,0,0,0,0,0,0,0,0,0,0,0,0,0,0,0,0,0,0,0,0,0,0,0]}]]]